[[{"header":{"parameterUnit":"m.s-1","parameterCategory":1,"la1":31.0,"la2":29.5877,"lo1":-88.7671,"lo2":-86.6584,"dy":0.0162,"dx":0.0185,"nx":115,"ny":88,"refTime":"2026-04-15T12:00:00:Z","depth":0,"parameterNumber":2,"parameterNumberName":"U-component_of_WINDS"},"data":[0.0,0.0,0.0,0.0,0.0,0.0,0.0,0.0,0.0,0.0,0.0,0.0,0.0,0.0,0.0,0.0,0.0,0.0,0.0,0.0,0.0,0.0,0.0,0.0,0.0,0.0,0.0,0.0,0.0,0.0,0.0,0.0,0.0,0.0,0.0,0.0,0.0,0.0,0.0,0.0,0.0,0.0,0.0,0.0,0.0,0.0,0.0,0.0,0.0,0.0,0.0,0.0,0.0,0.0,0.0,0.0,0.0,0.0,0.0,0.0,0.0,0.0,0.0,0.0,0.0,0.0,0.0,0.0,0.0,0.0,0.0,0.0,0.0,0.0,0.0,0.0,0.0,0.0,0.0,0.0,0.0,0.0,0.0,0.0,0.0,0.0,0.0,0.0,0.0,0.0,0.0,0.0,0.0,0.0,0.0,0.0,0.0,0.0,0.0,0.0,0.0,0.0,0.0,0.0,0.0,0.0,0.0,0.0,0.0,0.0,0.0,0.0,0.0,0.0,0.0,0.0,0.0,0.0,0.0,0.0,0.0,0.0,0.0,0.0,0.0,0.0,0.0,0.0,0.0,0.0,0.0,0.0,0.0,0.0,0.0,0.0,0.0,0.0,0.0,0.0,0.0,0.0,0.0,0.0,0.0,0.0,0.0,0.0,0.0,0.0,0.0,0.0,0.0,0.0,0.0,0.0,0.0,0.0,0.0,0.0,0.0,0.0,0.0,0.0,0.0,0.0,0.0,0.0,0.0,0.0,0.0,0.0,0.0,0.0,0.0,0.0,0.0,0.0,0.0,0.0,0.0,0.0,0.0,0.0,0.0,0.0,0.0,0.0,0.0,0.0,0.0,0.0,0.0,0.0,0.0,0.0,0.0,0.0,0.0,0.0,0.0,0.0,0.0,0.0,0.0,0.0,0.0,0.0,0.0,0.0,0.0,0.0,0.0,0.0,0.0,0.0,0.0,0.0,0.0,0.0,0.0,0.0,0.0,0.0,0.0,0.0,0.0,0.0,0.0,0.0,0.0,0.0,0.0,0.0,0.0,0.0,0.0,0.0,0.0,0.0,0.0,0.0,0.0,0.0,0.0,0.0,0.0,0.0,0.0,0.0,0.0,0.0,0.0,0.0,0.0,0.0,0.0,0.0,0.0,0.0,0.0,0.0,0.0,0.0,0.0,0.0,0.0,0.0,0.0,0.0,0.0,0.0,0.0,0.0,0.0,0.0,0.0,0.0,0.0,0.0,0.0,0.0,0.0,0.0,0.0,0.0,0.0,0.0,0.0,0.0,0.0,0.0,0.0,0.0,0.0,0.0,0.0,0.0,0.0,0.0,0.0,0.0,0.0,0.0,0.0,0.0,0.0,0.0,0.0,0.0,0.0,0.0,0.0,0.0,0.0,0.0,0.0,0.0,0.0,0.0,0.0,0.0,0.0,0.0,0.0,0.0,0.0,0.0,0.0,0.0,0.0,0.0,0.0,0.0,0.0,0.0,0.0,0.0,0.0,0.0,0.0,0.0,0.0,0.0,0.0,0.0,0.0,0.0,0.0,0.0,0.0,0.0,0.0,0.0,0.0,0.0,0.0,0.0,0.0,0.0,0.0,0.0,0.0,0.0,0.0,0.0,0.0,0.0,0.0,0.0,0.0,0.0,0.0,0.0,0.0,0.0,0.0,0.0,0.0,0.0,0.0,0.0,0.0,0.0,0.0,0.0,0.0,0.0,0.0,0.0,0.0,0.0,0.0,0.0,0.0,0.0,0.0,0.0,0.0,0.0,0.0,0.0,0.0,0.0,0.0,0.0,0.0,0.0,0.0,0.0,0.0,0.0,0.0,0.0,0.0,0.0,0.0,0.0,0.0,0.0,0.0,0.0,0.0,0.0,0.0,0.0,0.0,0.0,0.0,0.0,0.0,0.0,0.0,0.0,0.0,0.0,0.0,0.0,0.0,0.0,0.0,0.0,0.0,0.0,0.0,0.0,0.0,0.0,0.0,0.0,0.0,0.0,0.0,0.0,0.0,0.0,0.0,0.0,0.0,0.0,0.0,0.0,0.0,0.0,0.0,0.0,0.0,0.0,0.0,0.0,0.0,0.0,0.0,0.0,0.0,0.0,0.0,0.0,0.0,0.0,0.0,0.0,0.0,0.0,0.0,0.0,0.0,0.0,0.0,0.0,0.0,0.0,0.0,0.0,0.0,0.0,0.0,0.0,0.0,0.0,0.0,0.0,0.0,0.0,0.0,0.0,0.0,0.0,0.0,0.0,0.0,0.0,0.0,0.0,0.0,0.0,0.0,0.0,0.0,0.0,0.0,0.0,0.0,0.0,0.0,0.0,0.0,0.0,0.0,0.0,0.0,0.0,0.0,0.0,0.0,0.0,0.0,0.0,0.0,0.0,0.0,0.0,0.0,0.0,0.0,0.0,0.0,0.0,0.0,0.0,0.0,0.0,0.0,0.0,0.0,0.0,0.0,0.0,0.0,0.0,0.0,0.0,0.0,0.0,0.0,0.0,0.0,0.0,0.0,0.0,0.0,0.0,0.0,0.0,0.0,0.0,0.0,0.0,0.0,0.0,0.0,0.0,0.0,0.0,0.0,0.0,0.0,0.0,0.0,0.0,0.0,0.0,0.0,0.0,0.0,0.0,0.0,0.0,0.0,0.0,0.0,0.0,0.0,0.0,0.0,0.0,0.0,0.0,0.0,0.0,0.0,0.0,0.0,0.0,0.0,0.0,0.0,0.0,0.0,0.0,0.0,0.0,0.0,0.0,0.0,0.0,0.0,0.0,0.0,0.0,0.0,0.0,0.0,0.0,0.0,0.0,0.0,0.0,0.0,0.0,0.0,0.0,0.0,0.0,0.0,0.0,0.0,0.0,0.0,0.0,0.0,0.0,0.0,0.0,0.0,0.0,0.0,0.0,0.0,0.0,0.0,0.0,0.0,0.0,0.0,0.0,0.0,0.0,0.0,0.0,0.0,0.0,0.0,0.0,0.0,0.0,0.0,0.0,0.0,0.0,0.0,0.0,0.0,0.0,0.0,0.0,0.0,0.0,0.0,0.0,0.0,0.0,0.0,0.0,0.0,0.0,0.0,0.0,0.0,0.0,0.0,0.0,0.0,0.0,0.0,0.0,0.0,0.0,0.0,0.0,0.0,0.0,0.0,0.0,0.0,0.0,0.0,0.0,0.0,0.0,0.0,0.0,0.0,0.0,0.0,0.0,0.0,0.0,0.0,0.0,0.0,0.0,0.0,0.0,0.0,0.0,0.0,0.0,0.0,0.0,0.0,0.0,0.0,0.0,0.0,0.0,0.0,0.0,0.0,0.0,0.0,0.0,0.0,0.0,0.0,0.0,0.0,0.0,0.0,0.0,0.0,0.0,0.0,0.0,0.0,0.0,0.0,0.0,0.0,0.0,0.0,0.0,0.0,0.0,0.0,0.0,0.0,0.0,0.0,0.0,0.0,0.0,0.0,0.0,0.0,0.0,0.0,0.0,0.0,0.0,0.0,0.0,0.0,0.0,0.0,0.0,0.0,0.0,0.0,0.0,0.0,0.0,0.0,0.0,0.0,0.0,0.0,0.0,0.0,0.0,0.0,0.0,0.0,0.0,0.0,0.0,0.0,0.0,0.0,0.0,0.0,0.0,0.0,0.0,0.0,0.0,0.0,0.0,0.0,0.0,0.0,0.0,0.0,0.0,0.0,0.0,0.0,0.0,0.0,0.0,0.0,0.0,0.0,0.0,0.0,0.0,0.0,0.0,0.0,0.0,0.0,0.0,0.0,0.0,0.0,0.0,0.0,0.0,0.0,0.0,0.0,0.0,0.0,0.0,0.0,0.0,0.0,0.0,0.0,0.0,0.0,0.0,0.0,0.0,0.0,0.0,0.0,0.0,0.0,0.0,0.0,0.0,0.0,0.0,0.0,0.0,0.0,0.0,0.0,0.0,0.0,0.0,0.0,0.0,0.0,0.0,0.0,0.0,0.0,0.0,0.0,0.0,0.0,0.0,0.0,0.0,0.0,0.0,0.0,0.0,0.0,0.0,0.0,0.0,0.0,0.0,0.0,0.0,0.0,0.0,0.0,0.0,0.0,0.0,0.0,0.0,0.0,0.0,0.0,0.0,0.0,0.0,0.0,0.0,0.0,0.0,0.0,0.0,0.0,0.0,0.0,0.0,0.0,0.0,0.0,0.0,0.0,0.0,0.0,0.0,0.0,0.0,0.0,0.0,0.0,0.0,0.0,0.0,0.0,0.0,0.0,0.0,0.0,0.0,0.0,0.0,-4.7791,0.0,0.0,0.0,0.0,0.0,0.0,0.0,0.0,0.0,0.0,0.0,0.0,0.0,0.0,0.0,0.0,0.0,0.0,0.0,0.0,0.0,0.0,0.0,0.0,0.0,0.0,0.0,0.0,0.0,0.0,0.0,0.0,0.0,0.0,0.0,0.0,0.0,0.0,0.0,0.0,0.0,0.0,0.0,0.0,0.0,0.0,0.0,0.0,0.0,0.0,0.0,0.0,0.0,0.0,0.0,0.0,0.0,0.0,0.0,0.0,0.0,0.0,0.0,0.0,0.0,0.0,0.0,0.0,0.0,0.0,0.0,0.0,0.0,0.0,0.0,0.0,0.0,0.0,0.0,0.0,0.0,0.0,0.0,0.0,0.0,0.0,0.0,0.0,0.0,0.0,0.0,0.0,0.0,0.0,0.0,0.0,0.0,0.0,0.0,0.0,0.0,0.0,0.0,0.0,0.0,0.0,0.0,0.0,0.0,0.0,-5.0683,-5.0683,-5.0683,-4.9817,-4.7989,0.0,0.0,0.0,0.0,0.0,0.0,0.0,0.0,0.0,0.0,0.0,0.0,0.0,0.0,0.0,0.0,0.0,0.0,0.0,0.0,0.0,0.0,0.0,0.0,0.0,0.0,0.0,0.0,0.0,0.0,0.0,0.0,0.0,0.0,0.0,0.0,0.0,0.0,0.0,0.0,0.0,0.0,0.0,0.0,0.0,0.0,0.0,0.0,0.0,0.0,0.0,0.0,0.0,0.0,0.0,0.0,0.0,0.0,0.0,0.0,0.0,0.0,0.0,0.0,0.0,0.0,0.0,0.0,0.0,0.0,0.0,0.0,0.0,0.0,0.0,0.0,0.0,0.0,0.0,0.0,0.0,0.0,0.0,0.0,0.0,0.0,0.0,0.0,0.0,0.0,0.0,0.0,0.0,0.0,0.0,0.0,0.0,0.0,0.0,0.0,0.0,0.0,0.0,0.0,0.0,0.0,0.0,0.0,0.0,0.0,0.0,0.0,-5.0683,-4.9807,-4.795,0.0,0.0,0.0,0.0,0.0,0.0,0.0,0.0,0.0,0.0,0.0,0.0,0.0,0.0,0.0,0.0,0.0,0.0,0.0,0.0,0.0,0.0,0.0,0.0,0.0,0.0,0.0,0.0,0.0,0.0,0.0,0.0,0.0,0.0,0.0,0.0,0.0,0.0,0.0,0.0,0.0,0.0,0.0,0.0,0.0,0.0,0.0,0.0,0.0,0.0,0.0,0.0,0.0,0.0,0.0,0.0,0.0,0.0,0.0,0.0,0.0,0.0,0.0,0.0,0.0,0.0,0.0,0.0,0.0,0.0,0.0,0.0,0.0,0.0,0.0,0.0,0.0,0.0,0.0,0.0,0.0,0.0,0.0,0.0,0.0,0.0,0.0,0.0,0.0,0.0,0.0,0.0,0.0,0.0,0.0,0.0,0.0,0.0,0.0,0.0,0.0,0.0,0.0,0.0,0.0,0.0,0.0,0.0,0.0,0.0,-5.0683,-5.0683,-5.0693,0.0,-4.7403,0.0,0.0,0.0,0.0,0.0,0.0,0.0,0.0,0.0,0.0,0.0,0.0,0.0,0.0,0.0,0.0,0.0,0.0,0.0,0.0,0.0,0.0,0.0,0.0,0.0,0.0,0.0,0.0,0.0,0.0,0.0,0.0,0.0,0.0,0.0,0.0,0.0,0.0,0.0,0.0,0.0,0.0,0.0,0.0,0.0,0.0,0.0,0.0,0.0,0.0,0.0,0.0,0.0,0.0,0.0,0.0,0.0,0.0,0.0,0.0,0.0,0.0,0.0,0.0,0.0,0.0,0.0,0.0,0.0,0.0,0.0,0.0,0.0,0.0,0.0,0.0,0.0,0.0,0.0,0.0,0.0,0.0,0.0,0.0,0.0,0.0,0.0,0.0,0.0,0.0,0.0,0.0,0.0,0.0,0.0,0.0,0.0,0.0,0.0,0.0,0.0,0.0,0.0,0.0,0.0,0.0,0.0,0.0,0.0,0.0,-5.0683,-5.0683,-4.9702,-4.8509,0.0,0.0,0.0,0.0,0.0,0.0,0.0,0.0,0.0,0.0,0.0,0.0,0.0,0.0,0.0,0.0,0.0,0.0,0.0,0.0,0.0,0.0,0.0,0.0,0.0,0.0,0.0,0.0,0.0,0.0,0.0,0.0,0.0,0.0,0.0,0.0,0.0,0.0,0.0,0.0,0.0,0.0,0.0,0.0,0.0,0.0,0.0,0.0,0.0,0.0,0.0,0.0,0.0,0.0,0.0,0.0,0.0,0.0,0.0,0.0,0.0,0.0,0.0,0.0,0.0,0.0,0.0,0.0,0.0,0.0,0.0,0.0,0.0,0.0,0.0,0.0,0.0,0.0,0.0,0.0,0.0,0.0,0.0,0.0,0.0,0.0,0.0,0.0,0.0,0.0,0.0,0.0,0.0,0.0,0.0,0.0,0.0,0.0,0.0,0.0,0.0,0.0,0.0,0.0,0.0,0.0,0.0,0.0,0.0,0.0,-5.0683,-5.0596,-5.0308,-4.9356,-4.8205,-4.6916,0.0,0.0,0.0,0.0,0.0,0.0,0.0,0.0,0.0,0.0,0.0,0.0,0.0,0.0,0.0,0.0,0.0,0.0,0.0,0.0,0.0,0.0,0.0,0.0,0.0,0.0,0.0,0.0,0.0,0.0,0.0,0.0,0.0,0.0,0.0,0.0,0.0,0.0,0.0,0.0,0.0,0.0,0.0,0.0,0.0,0.0,0.0,0.0,0.0,0.0,0.0,0.0,0.0,0.0,0.0,0.0,0.0,0.0,0.0,0.0,0.0,0.0,0.0,0.0,0.0,0.0,0.0,0.0,0.0,0.0,0.0,0.0,0.0,0.0,0.0,0.0,0.0,0.0,0.0,0.0,0.0,0.0,0.0,0.0,0.0,0.0,0.0,0.0,0.0,0.0,0.0,0.0,0.0,0.0,0.0,0.0,0.0,0.0,0.0,0.0,0.0,0.0,0.0,0.0,0.0,0.0,0.0,0.0,-5.0683,-5.0683,-5.0308,-4.9529,-5.0192,-4.9255,0.0,0.0,0.0,0.0,0.0,0.0,0.0,0.0,0.0,0.0,0.0,0.0,0.0,0.0,0.0,0.0,0.0,0.0,0.0,0.0,0.0,0.0,0.0,0.0,0.0,0.0,0.0,0.0,0.0,0.0,0.0,0.0,0.0,0.0,0.0,0.0,0.0,0.0,0.0,0.0,0.0,0.0,0.0,0.0,0.0,0.0,0.0,0.0,0.0,0.0,0.0,0.0,0.0,0.0,0.0,0.0,0.0,0.0,0.0,0.0,0.0,0.0,0.0,0.0,0.0,0.0,0.0,0.0,0.0,0.0,0.0,0.0,0.0,0.0,0.0,0.0,0.0,0.0,0.0,0.0,0.0,0.0,0.0,0.0,0.0,0.0,0.0,0.0,0.0,0.0,0.0,0.0,0.0,0.0,0.0,0.0,0.0,0.0,0.0,0.0,0.0,0.0,0.0,0.0,0.0,0.0,0.0,0.0,0.0,-5.0683,-5.0683,-5.0558,-5.0221,-4.9462,-4.8419,0.0,0.0,0.0,0.0,0.0,0.0,0.0,0.0,0.0,0.0,0.0,0.0,0.0,0.0,0.0,0.0,0.0,0.0,0.0,0.0,0.0,0.0,0.0,0.0,0.0,0.0,0.0,0.0,0.0,0.0,0.0,0.0,0.0,0.0,0.0,0.0,0.0,0.0,0.0,0.0,0.0,0.0,0.0,0.0,0.0,0.0,0.0,0.0,0.0,0.0,0.0,0.0,0.0,0.0,0.0,0.0,0.0,0.0,0.0,0.0,0.0,0.0,0.0,0.0,0.0,0.0,0.0,0.0,0.0,0.0,0.0,0.0,0.0,0.0,0.0,0.0,0.0,0.0,0.0,0.0,0.0,0.0,0.0,0.0,0.0,0.0,0.0,0.0,0.0,0.0,0.0,0.0,0.0,0.0,0.0,0.0,0.0,0.0,0.0,0.0,0.0,0.0,0.0,0.0,0.0,0.0,0.0,0.0,0.0,-5.0289,0.0,-5.0577,-5.0269,-4.9115,-4.8053,0.0,0.0,0.0,0.0,0.0,0.0,0.0,0.0,0.0,0.0,0.0,0.0,0.0,0.0,0.0,0.0,0.0,0.0,0.0,0.0,0.0,0.0,0.0,0.0,0.0,0.0,0.0,0.0,0.0,0.0,0.0,0.0,0.0,0.0,0.0,0.0,0.0,0.0,0.0,0.0,0.0,0.0,0.0,0.0,0.0,0.0,0.0,0.0,0.0,0.0,0.0,0.0,0.0,0.0,0.0,0.0,0.0,0.0,0.0,0.0,0.0,0.0,0.0,0.0,0.0,0.0,0.0,0.0,0.0,0.0,0.0,0.0,0.0,0.0,0.0,0.0,0.0,0.0,0.0,0.0,0.0,0.0,0.0,0.0,0.0,0.0,0.0,0.0,0.0,0.0,0.0,0.0,0.0,0.0,0.0,0.0,0.0,0.0,0.0,0.0,0.0,0.0,0.0,0.0,0.0,0.0,0.0,0.0,-4.9394,-4.9433,-5.026,-5.0337,-4.9471,-4.9327,-4.8341,0.0,0.0,0.0,0.0,0.0,0.0,0.0,0.0,0.0,0.0,0.0,0.0,0.0,0.0,0.0,0.0,0.0,0.0,0.0,0.0,0.0,0.0,0.0,0.0,0.0,0.0,0.0,0.0,0.0,0.0,0.0,0.0,0.0,0.0,0.0,0.0,0.0,0.0,0.0,0.0,0.0,0.0,0.0,0.0,0.0,0.0,0.0,0.0,0.0,0.0,0.0,0.0,0.0,0.0,0.0,0.0,0.0,0.0,0.0,0.0,0.0,0.0,0.0,0.0,0.0,0.0,0.0,0.0,0.0,0.0,0.0,0.0,0.0,0.0,0.0,0.0,0.0,0.0,0.0,0.0,0.0,0.0,0.0,0.0,0.0,0.0,0.0,0.0,0.0,0.0,0.0,0.0,0.0,0.0,0.0,0.0,0.0,0.0,0.0,0.0,0.0,0.0,0.0,0.0,0.0,0.0,0.0,0.0,0.0,-4.9394,-5.026,-5.0856,-5.1038,-4.9355,-4.8381,0.0,0.0,0.0,0.0,0.0,0.0,0.0,0.0,0.0,0.0,0.0,0.0,0.0,0.0,0.0,0.0,0.0,0.0,0.0,0.0,0.0,0.0,0.0,0.0,0.0,0.0,0.0,0.0,0.0,0.0,0.0,0.0,0.0,0.0,0.0,0.0,0.0,0.0,0.0,0.0,0.0,0.0,0.0,0.0,0.0,0.0,0.0,0.0,0.0,0.0,0.0,0.0,0.0,0.0,0.0,0.0,0.0,0.0,0.0,0.0,0.0,0.0,0.0,0.0,0.0,0.0,0.0,0.0,0.0,0.0,0.0,0.0,0.0,0.0,0.0,0.0,0.0,0.0,0.0,0.0,0.0,0.0,0.0,0.0,0.0,0.0,0.0,0.0,0.0,0.0,0.0,0.0,0.0,0.0,0.0,0.0,0.0,0.0,0.0,0.0,0.0,0.0,0.0,0.0,0.0,0.0,0.0,0.0,0.0,-4.9875,-5.0702,-5.1385,-5.1845,-4.9632,-4.8414,-4.8319,0.0,0.0,0.0,0.0,0.0,0.0,0.0,0.0,0.0,0.0,0.0,0.0,0.0,0.0,0.0,0.0,0.0,0.0,0.0,0.0,0.0,0.0,0.0,0.0,0.0,0.0,0.0,0.0,0.0,0.0,0.0,0.0,0.0,0.0,0.0,0.0,0.0,0.0,0.0,0.0,0.0,0.0,0.0,0.0,0.0,0.0,0.0,0.0,0.0,0.0,0.0,0.0,0.0,0.0,0.0,0.0,0.0,0.0,0.0,0.0,0.0,0.0,0.0,0.0,0.0,0.0,0.0,0.0,0.0,0.0,0.0,0.0,0.0,0.0,0.0,0.0,0.0,0.0,0.0,0.0,0.0,0.0,0.0,0.0,0.0,0.0,0.0,0.0,0.0,0.0,0.0,0.0,0.0,0.0,0.0,0.0,0.0,0.0,0.0,0.0,0.0,0.0,0.0,0.0,0.0,0.0,0.0,0.0,-5.0827,-5.1645,-5.2037,-5.1947,-5.0178,-4.8556,0.0,0.0,0.0,0.0,0.0,0.0,0.0,0.0,0.0,0.0,0.0,0.0,0.0,0.0,0.0,0.0,0.0,0.0,0.0,0.0,0.0,0.0,0.0,0.0,0.0,0.0,0.0,0.0,0.0,0.0,0.0,0.0,0.0,0.0,0.0,0.0,0.0,0.0,0.0,0.0,0.0,0.0,0.0,0.0,0.0,0.0,0.0,0.0,0.0,0.0,0.0,0.0,0.0,0.0,0.0,0.0,0.0,0.0,0.0,0.0,0.0,0.0,0.0,0.0,0.0,0.0,0.0,0.0,0.0,0.0,0.0,0.0,0.0,0.0,0.0,0.0,0.0,0.0,0.0,0.0,0.0,0.0,0.0,0.0,0.0,0.0,0.0,0.0,0.0,0.0,0.0,0.0,0.0,0.0,0.0,0.0,0.0,0.0,0.0,0.0,0.0,0.0,0.0,0.0,0.0,0.0,0.0,0.0,0.0,-5.2452,-5.3376,-5.3787,-5.3637,-5.0792,-4.9228,0.0,0.0,0.0,0.0,0.0,0.0,0.0,0.0,0.0,0.0,0.0,0.0,0.0,0.0,0.0,0.0,0.0,0.0,0.0,0.0,0.0,0.0,0.0,0.0,0.0,0.0,0.0,0.0,0.0,0.0,0.0,0.0,0.0,0.0,0.0,0.0,0.0,0.0,0.0,0.0,0.0,0.0,0.0,0.0,0.0,0.0,0.0,0.0,0.0,0.0,0.0,0.0,0.0,0.0,0.0,0.0,0.0,0.0,0.0,0.0,0.0,0.0,0.0,0.0,0.0,0.0,0.0,0.0,0.0,0.0,0.0,0.0,0.0,0.0,0.0,0.0,0.0,0.0,0.0,0.0,0.0,0.0,0.0,0.0,0.0,0.0,0.0,0.0,0.0,0.0,0.0,0.0,0.0,0.0,0.0,0.0,0.0,0.0,0.0,0.0,0.0,0.0,0.0,0.0,0.0,0.0,0.0,0.0,-5.1337,-5.3164,-5.4376,-5.4949,-5.4871,-5.2228,-5.0302,0.0,0.0,0.0,0.0,0.0,0.0,0.0,0.0,0.0,0.0,0.0,0.0,0.0,0.0,0.0,0.0,0.0,0.0,0.0,0.0,0.0,0.0,0.0,0.0,0.0,0.0,0.0,0.0,0.0,0.0,0.0,0.0,0.0,0.0,0.0,0.0,0.0,0.0,0.0,0.0,0.0,0.0,0.0,0.0,0.0,0.0,0.0,0.0,0.0,0.0,0.0,0.0,0.0,0.0,0.0,0.0,0.0,0.0,0.0,0.0,0.0,0.0,0.0,0.0,0.0,0.0,0.0,0.0,0.0,0.0,0.0,0.0,0.0,0.0,0.0,0.0,0.0,0.0,0.0,0.0,0.0,0.0,0.0,0.0,0.0,0.0,0.0,0.0,0.0,0.0,0.0,0.0,0.0,0.0,0.0,0.0,0.0,0.0,0.0,0.0,0.0,0.0,0.0,0.0,0.0,0.0,0.0,0.0,-5.2269,-5.3337,-5.4788,-5.5542,-5.5458,-5.3817,-5.1452,0.0,0.0,0.0,0.0,0.0,0.0,0.0,0.0,0.0,0.0,0.0,0.0,0.0,0.0,0.0,0.0,0.0,0.0,0.0,0.0,0.0,0.0,0.0,0.0,0.0,0.0,0.0,0.0,0.0,0.0,0.0,0.0,0.0,0.0,0.0,0.0,0.0,0.0,0.0,0.0,0.0,0.0,0.0,0.0,0.0,0.0,0.0,0.0,0.0,0.0,0.0,0.0,0.0,0.0,0.0,0.0,0.0,0.0,0.0,0.0,0.0,0.0,0.0,0.0,0.0,0.0,0.0,0.0,0.0,0.0,0.0,0.0,0.0,0.0,0.0,0.0,0.0,0.0,0.0,0.0,0.0,0.0,0.0,0.0,0.0,0.0,0.0,0.0,0.0,0.0,0.0,0.0,0.0,0.0,0.0,0.0,0.0,0.0,0.0,0.0,0.0,0.0,0.0,0.0,0.0,0.0,0.0,0.0,-5.201,-5.4164,-5.4526,-5.494,-5.5466,-5.3253,-5.1147,0.0,0.0,0.0,0.0,0.0,0.0,0.0,0.0,0.0,0.0,0.0,0.0,0.0,0.0,0.0,0.0,0.0,0.0,0.0,0.0,0.0,0.0,0.0,0.0,0.0,0.0,0.0,0.0,0.0,0.0,0.0,0.0,0.0,0.0,0.0,0.0,0.0,0.0,0.0,0.0,0.0,0.0,0.0,0.0,0.0,0.0,0.0,0.0,-5.1219,0.0,0.0,0.0,0.0,0.0,0.0,0.0,0.0,0.0,0.0,0.0,0.0,0.0,0.0,0.0,0.0,0.0,0.0,0.0,0.0,0.0,0.0,0.0,0.0,0.0,0.0,0.0,0.0,0.0,0.0,0.0,0.0,0.0,0.0,0.0,0.0,0.0,0.0,0.0,0.0,0.0,0.0,0.0,0.0,0.0,0.0,0.0,0.0,0.0,0.0,0.0,0.0,0.0,0.0,0.0,0.0,0.0,0.0,0.0,-5.2106,-5.3837,-5.4216,-5.4737,-5.5389,-5.3637,-5.1648,0.0,0.0,0.0,0.0,0.0,0.0,0.0,0.0,0.0,0.0,0.0,0.0,0.0,0.0,0.0,0.0,0.0,0.0,0.0,0.0,0.0,0.0,0.0,0.0,0.0,0.0,0.0,0.0,0.0,0.0,0.0,0.0,0.0,0.0,0.0,0.0,0.0,0.0,0.0,0.0,0.0,0.0,0.0,0.0,0.0,0.0,0.0,0.0,0.0,0.0,0.0,0.0,0.0,0.0,0.0,0.0,0.0,0.0,0.0,0.0,0.0,0.0,0.0,0.0,0.0,0.0,0.0,0.0,0.0,0.0,0.0,0.0,0.0,0.0,0.0,0.0,0.0,0.0,0.0,0.0,0.0,0.0,0.0,0.0,0.0,0.0,0.0,0.0,0.0,0.0,0.0,0.0,0.0,0.0,0.0,0.0,0.0,0.0,0.0,0.0,0.0,0.0,0.0,0.0,0.0,0.0,0.0,-5.0644,-5.2269,-5.3355,-5.4032,-5.4745,-5.5442,-5.4267,-5.2281,-4.9521,0.0,0.0,0.0,0.0,0.0,0.0,0.0,0.0,0.0,0.0,0.0,0.0,0.0,0.0,0.0,0.0,0.0,0.0,0.0,0.0,0.0,0.0,0.0,0.0,0.0,0.0,0.0,0.0,0.0,0.0,0.0,0.0,0.0,0.0,0.0,0.0,0.0,0.0,-4.8833,-4.9224,0.0,0.0,0.0,0.0,0.0,0.0,0.0,0.0,-4.9877,0.0,0.0,0.0,0.0,0.0,0.0,0.0,0.0,0.0,0.0,0.0,0.0,0.0,0.0,0.0,0.0,0.0,0.0,0.0,0.0,0.0,0.0,0.0,0.0,0.0,0.0,0.0,0.0,0.0,0.0,0.0,0.0,0.0,0.0,0.0,0.0,0.0,0.0,0.0,0.0,0.0,0.0,0.0,0.0,0.0,0.0,0.0,0.0,0.0,0.0,0.0,0.0,0.0,0.0,0.0,0.0,-5.0269,-5.0683,-5.1971,-5.4147,-5.4284,-5.4656,-5.535,-5.4251,-5.229,-4.9578,0.0,0.0,0.0,0.0,0.0,0.0,0.0,0.0,0.0,0.0,0.0,0.0,0.0,0.0,0.0,0.0,0.0,0.0,0.0,0.0,0.0,0.0,0.0,0.0,0.0,0.0,0.0,0.0,0.0,0.0,0.0,0.0,0.0,0.0,0.0,0.0,0.0,0.0,0.0,-5.0699,-5.1582,0.0,0.0,0.0,0.0,0.0,0.0,0.0,0.0,-5.0158,0.0,0.0,0.0,0.0,0.0,0.0,0.0,0.0,0.0,0.0,0.0,0.0,0.0,0.0,0.0,0.0,0.0,0.0,0.0,0.0,0.0,0.0,0.0,0.0,0.0,0.0,0.0,0.0,0.0,0.0,0.0,0.0,0.0,0.0,0.0,0.0,0.0,0.0,0.0,0.0,0.0,0.0,0.0,0.0,0.0,0.0,0.0,0.0,0.0,0.0,0.0,0.0,0.0,0.0,0.0,-5.0067,-5.0856,-5.2286,-5.4309,-5.4304,-5.4338,-5.4491,-5.3309,-5.1359,0.0,0.0,0.0,0.0,0.0,0.0,0.0,0.0,0.0,0.0,0.0,0.0,0.0,0.0,0.0,0.0,0.0,0.0,0.0,0.0,0.0,0.0,0.0,0.0,0.0,0.0,0.0,0.0,0.0,0.0,0.0,0.0,0.0,0.0,0.0,0.0,0.0,0.0,0.0,0.0,-5.1219,-5.1868,-5.4409,0.0,0.0,0.0,0.0,0.0,0.0,-5.0615,-5.0217,0.0,0.0,0.0,0.0,0.0,0.0,0.0,0.0,0.0,0.0,0.0,0.0,0.0,0.0,0.0,0.0,0.0,0.0,0.0,0.0,0.0,0.0,0.0,0.0,0.0,0.0,0.0,0.0,0.0,0.0,0.0,0.0,0.0,0.0,0.0,0.0,0.0,0.0,0.0,0.0,0.0,0.0,0.0,0.0,0.0,0.0,0.0,0.0,0.0,0.0,0.0,0.0,0.0,0.0,0.0,-4.9221,-5.0557,-5.2129,-5.3769,-5.3752,-5.3608,-5.338,-5.205,-5.026,0.0,0.0,0.0,0.0,0.0,0.0,0.0,0.0,0.0,0.0,0.0,0.0,0.0,0.0,0.0,0.0,0.0,0.0,0.0,0.0,0.0,0.0,0.0,0.0,0.0,0.0,0.0,0.0,0.0,0.0,0.0,0.0,0.0,0.0,0.0,0.0,0.0,0.0,0.0,0.0,0.0,-5.2728,-5.5861,-5.3779,0.0,0.0,0.0,0.0,-5.0913,-5.085,0.0,0.0,0.0,0.0,0.0,0.0,0.0,0.0,0.0,0.0,0.0,0.0,0.0,0.0,0.0,0.0,0.0,0.0,0.0,0.0,0.0,0.0,0.0,0.0,0.0,0.0,0.0,0.0,0.0,0.0,0.0,0.0,0.0,0.0,0.0,0.0,0.0,0.0,0.0,0.0,0.0,0.0,0.0,0.0,0.0,0.0,0.0,0.0,0.0,0.0,0.0,0.0,0.0,0.0,0.0,0.0,-4.8317,-4.9135,-5.0371,-5.1919,-5.2016,-5.2125,-5.2409,-5.0662,-4.938,0.0,0.0,0.0,0.0,0.0,0.0,0.0,0.0,0.0,0.0,0.0,0.0,0.0,0.0,0.0,0.0,0.0,0.0,0.0,0.0,0.0,0.0,0.0,0.0,0.0,0.0,0.0,0.0,0.0,0.0,0.0,0.0,0.0,0.0,0.0,0.0,0.0,0.0,0.0,0.0,0.0,-5.5766,-5.5575,-5.3894,-5.2403,0.0,0.0,-5.2633,-5.2518,-5.3528,0.0,0.0,0.0,0.0,0.0,0.0,0.0,0.0,0.0,0.0,0.0,0.0,0.0,0.0,0.0,0.0,0.0,0.0,0.0,0.0,0.0,0.0,0.0,0.0,0.0,0.0,0.0,0.0,0.0,0.0,0.0,0.0,0.0,0.0,0.0,0.0,0.0,0.0,0.0,0.0,0.0,0.0,0.0,0.0,0.0,0.0,0.0,0.0,0.0,0.0,0.0,0.0,0.0,0.0,0.0,-4.9452,-4.9606,-5.0326,-5.1282,-5.2379,-5.2407,-5.205,-5.1352,-4.9631,-4.8009,0.0,0.0,0.0,0.0,0.0,0.0,0.0,0.0,0.0,0.0,0.0,0.0,0.0,0.0,0.0,0.0,0.0,0.0,0.0,0.0,0.0,0.0,0.0,0.0,0.0,0.0,0.0,0.0,0.0,0.0,0.0,0.0,0.0,0.0,0.0,0.0,0.0,0.0,0.0,0.0,0.0,0.0,-5.5995,-5.4619,0.0,0.0,0.0,-5.2633,-5.2174,0.0,0.0,0.0,0.0,0.0,0.0,0.0,0.0,0.0,0.0,0.0,0.0,0.0,0.0,0.0,0.0,0.0,0.0,0.0,0.0,0.0,0.0,0.0,0.0,0.0,0.0,0.0,0.0,0.0,0.0,0.0,0.0,0.0,0.0,0.0,0.0,0.0,0.0,0.0,0.0,0.0,0.0,0.0,0.0,0.0,0.0,0.0,0.0,0.0,0.0,0.0,0.0,0.0,0.0,0.0,0.0,0.0,-5.0048,-5.0777,-5.1425,-5.2015,-5.1698,-5.1013,-5.0006,-4.8329,0.0,0.0,0.0,0.0,0.0,0.0,0.0,0.0,0.0,0.0,0.0,0.0,0.0,0.0,0.0,0.0,0.0,0.0,0.0,0.0,0.0,0.0,0.0,0.0,0.0,0.0,0.0,-3.9588,0.0,0.0,0.0,0.0,0.0,0.0,0.0,0.0,0.0,0.0,0.0,0.0,0.0,0.0,-5.4791,-5.5823,-5.4906,-5.4409,0.0,0.0,-5.2919,-5.2327,-5.3606,-5.3542,0.0,0.0,0.0,0.0,0.0,0.0,0.0,0.0,0.0,0.0,0.0,0.0,0.0,0.0,0.0,0.0,0.0,0.0,0.0,0.0,0.0,0.0,0.0,0.0,0.0,0.0,0.0,0.0,0.0,0.0,0.0,0.0,0.0,0.0,0.0,0.0,0.0,0.0,0.0,0.0,0.0,0.0,0.0,0.0,0.0,0.0,0.0,0.0,0.0,0.0,0.0,0.0,0.0,0.0,-4.8221,-4.8288,-4.9008,-4.9418,-4.9426,-4.8348,-4.7929,-4.8217,-4.6402,-4.5525,0.0,0.0,0.0,0.0,0.0,0.0,0.0,0.0,0.0,0.0,0.0,0.0,0.0,0.0,0.0,0.0,0.0,0.0,0.0,0.0,0.0,0.0,0.0,0.0,0.0,0.0,0.0,0.0,0.0,0.0,0.0,0.0,0.0,0.0,0.0,0.0,0.0,0.0,0.0,0.0,0.0,-5.5059,-5.4371,-5.418,-5.4409,0.0,-5.4619,-5.4008,-5.3932,-5.5944,-5.5992,-5.1273,0.0,0.0,0.0,0.0,0.0,0.0,0.0,0.0,0.0,0.0,0.0,0.0,0.0,0.0,0.0,0.0,0.0,0.0,0.0,0.0,0.0,0.0,0.0,0.0,0.0,0.0,0.0,0.0,0.0,0.0,0.0,0.0,0.0,0.0,0.0,0.0,0.0,0.0,0.0,0.0,0.0,0.0,0.0,0.0,0.0,0.0,0.0,0.0,0.0,0.0,0.0,0.0,0.0,-4.7067,-4.8086,-4.8375,-4.8749,-4.9149,-4.8064,-4.7414,-4.735,-4.5976,-4.4714,0.0,0.0,0.0,0.0,0.0,0.0,0.0,0.0,0.0,0.0,0.0,0.0,0.0,0.0,0.0,0.0,0.0,0.0,0.0,0.0,0.0,0.0,0.0,0.0,0.0,0.0,0.0,0.0,-3.946,-3.9622,-4.1203,0.0,0.0,0.0,0.0,0.0,0.0,0.0,0.0,0.0,0.0,-5.332,-5.4008,-5.3645,0.0,0.0,-5.3779,-5.2666,-5.2949,-5.3392,-5.2599,-4.9345,-4.8931,0.0,0.0,0.0,0.0,0.0,0.0,0.0,0.0,0.0,0.0,0.0,0.0,0.0,0.0,0.0,0.0,0.0,0.0,0.0,0.0,0.0,0.0,0.0,0.0,0.0,0.0,0.0,0.0,0.0,0.0,0.0,0.0,0.0,0.0,0.0,0.0,0.0,0.0,0.0,0.0,0.0,0.0,0.0,0.0,0.0,0.0,0.0,0.0,0.0,0.0,0.0,0.0,-4.5913,-4.7336,-4.7818,-4.8203,-4.846,-4.7483,-4.6826,-4.6529,-4.5323,-4.3931,0.0,0.0,0.0,0.0,0.0,0.0,0.0,0.0,0.0,0.0,0.0,0.0,0.0,0.0,0.0,0.0,0.0,0.0,0.0,0.0,0.0,0.0,0.0,0.0,0.0,0.0,0.0,0.0,-4.0249,-4.0432,-4.1809,0.0,0.0,0.0,0.0,0.0,0.0,0.0,0.0,0.0,0.0,-5.2021,-5.3187,-5.2824,-5.2914,-5.4287,-5.2558,-5.1268,-5.1736,-5.131,-5.0225,-4.8054,0.0,0.0,0.0,0.0,0.0,0.0,0.0,0.0,0.0,0.0,0.0,0.0,0.0,0.0,0.0,0.0,0.0,0.0,0.0,0.0,0.0,0.0,0.0,0.0,0.0,0.0,0.0,-4.8096,0.0,0.0,-5.0596,0.0,0.0,0.0,0.0,0.0,0.0,0.0,0.0,0.0,0.0,0.0,0.0,0.0,0.0,0.0,0.0,0.0,0.0,0.0,0.0,0.0,0.0,-4.4759,-4.5652,-4.7155,-4.7626,-4.6897,-4.6113,-4.5743,-4.5693,-4.4318,-4.3147,-4.2286,0.0,0.0,0.0,0.0,0.0,0.0,0.0,0.0,0.0,0.0,0.0,0.0,0.0,0.0,0.0,0.0,0.0,0.0,0.0,0.0,0.0,0.0,0.0,0.0,0.0,0.0,-4.0008,-3.99,-4.0212,0.0,0.0,0.0,0.0,0.0,0.0,0.0,0.0,0.0,-4.8945,-5.0531,-5.157,-5.1627,-5.1627,-5.1739,-5.2304,-5.0982,-5.0084,-5.0549,-5.0579,-4.9947,0.0,0.0,0.0,0.0,0.0,0.0,0.0,0.0,0.0,0.0,0.0,0.0,0.0,0.0,0.0,0.0,0.0,0.0,0.0,0.0,0.0,0.0,0.0,0.0,0.0,0.0,0.0,-4.7675,-4.8198,0.0,0.0,0.0,0.0,0.0,0.0,0.0,0.0,0.0,0.0,0.0,-4.6028,-4.5748,0.0,0.0,0.0,0.0,0.0,0.0,0.0,0.0,0.0,0.0,0.0,0.0,-4.3912,-4.4739,-4.5827,-4.653,-4.6753,-4.5813,-4.5205,-4.4979,-4.4226,-4.2855,-4.0761,0.0,0.0,0.0,0.0,0.0,0.0,0.0,0.0,0.0,0.0,0.0,0.0,0.0,0.0,0.0,0.0,0.0,0.0,0.0,0.0,0.0,0.0,0.0,0.0,0.0,-4.0034,0.0,0.0,0.0,0.0,0.0,0.0,0.0,0.0,0.0,0.0,0.0,-4.5919,-4.7743,-4.7946,-4.8277,-4.9219,-4.8856,-4.9117,0.0,0.0,0.0,0.0,0.0,0.0,0.0,0.0,0.0,0.0,0.0,0.0,0.0,0.0,-4.7792,-4.6195,-4.6324,-4.6526,-4.5993,0.0,0.0,0.0,0.0,0.0,0.0,0.0,0.0,0.0,0.0,0.0,0.0,0.0,0.0,-4.8276,0.0,-4.8821,0.0,0.0,0.0,0.0,0.0,0.0,0.0,0.0,-4.7451,-4.6932,-4.5614,-4.5594,-4.5297,0.0,-4.422,-4.3528,0.0,0.0,0.0,0.0,0.0,0.0,0.0,0.0,-4.3066,-4.3855,-4.4432,-4.5126,-4.584,-4.509,-4.4494,-4.419,-4.371,-4.2334,-3.9971,-3.9129,-3.7698,0.0,0.0,0.0,0.0,0.0,0.0,0.0,0.0,0.0,0.0,0.0,0.0,0.0,0.0,0.0,0.0,0.0,0.0,0.0,0.0,0.0,0.0,0.0,-3.953,0.0,0.0,0.0,0.0,0.0,0.0,0.0,0.0,0.0,-4.5409,-4.4859,-4.5053,-4.7125,-4.7048,-4.7041,-4.7644,0.0,0.0,0.0,0.0,0.0,0.0,0.0,-4.5372,-4.5148,-4.5406,-4.5791,-4.6305,-4.6581,-4.6929,-4.7736,0.0,0.0,-4.6562,-4.6985,-4.7424,-4.7168,-4.7094,-4.7424,-4.8526,-4.7003,-4.548,0.0,0.0,0.0,0.0,0.0,0.0,0.0,0.0,-4.8282,-4.8274,0.0,-4.8293,0.0,0.0,0.0,0.0,0.0,-4.8009,0.0,0.0,-4.6904,-4.6432,-4.5633,-4.5633,-4.5633,-4.5594,-4.5518,-4.5056,-4.4201,-4.2624,0.0,0.0,0.0,0.0,0.0,0.0,-4.222,-4.3047,-4.3124,-4.3508,-4.4231,-4.3943,-4.3661,-4.3353,-4.2742,-4.1627,-3.9989,-3.9182,-3.8025,-3.6409,-3.5532,0.0,0.0,0.0,0.0,0.0,0.0,0.0,0.0,0.0,0.0,0.0,0.0,0.0,0.0,0.0,0.0,0.0,0.0,0.0,0.0,-3.9338,0.0,0.0,0.0,0.0,0.0,0.0,0.0,0.0,0.0,0.0,-4.4037,-4.4475,-4.5413,-4.7093,0.0,0.0,0.0,0.0,-4.7585,-4.658,-4.5749,-4.5136,-4.489,-4.5443,-4.5883,-4.5883,0.0,0.0,-4.9408,-4.7462,-4.6177,-4.6929,-4.7645,-4.7957,-4.7149,-4.7755,-4.8159,-4.7406,-4.7296,-4.7186,-4.7076,-4.614,-4.4966,-4.9097,0.0,0.0,0.0,0.0,-4.6172,-4.6648,-4.7492,-4.811,-4.8017,-4.7473,-4.8044,0.0,0.0,0.0,0.0,0.0,0.0,-4.6182,-4.6009,-4.6624,-4.6432,-4.5633,-4.624,-4.6201,-4.5594,-4.497,-4.4547,-4.422,-4.2596,-4.1816,-4.1797,0.0,0.0,0.0,0.0,-4.1931,-4.22,-4.2777,-4.322,-4.3451,-4.3344,-4.3052,-4.2557,-4.2187,-4.1367,-4.0087,-3.981,-3.8966,-3.738,-3.6533,0.0,0.0,0.0,0.0,0.0,0.0,0.0,0.0,0.0,0.0,0.0,0.0,0.0,0.0,0.0,0.0,0.0,0.0,0.0,-3.8372,-3.764,-3.7446,0.0,0.0,0.0,0.0,0.0,0.0,0.0,0.0,0.0,-4.4102,-4.4408,-4.4852,0.0,0.0,-4.5013,-4.4547,-4.5164,-4.576,-4.6007,-4.586,0.0,-4.6342,-4.6122,-4.5902,-4.5902,-4.6489,-4.6948,-4.6948,-4.6361,-4.5975,-4.6232,-4.6434,-4.6507,-4.6452,-4.8361,-4.9609,-4.904,-4.8838,-4.8673,-4.8049,-4.7113,-4.6214,-4.9019,-4.7811,-4.6948,-4.6484,-4.6303,-4.631,-4.6813,-4.7657,-4.8159,-4.7913,-4.7124,-4.7627,-4.7063,-4.577,-4.6267,0.0,0.0,0.0,-4.5631,-4.5633,-4.6144,-4.5913,-4.5171,-4.5624,-4.5432,-4.4605,-4.4085,-4.3816,-4.3797,-4.2816,-4.2143,-4.1788,0.0,0.0,-4.0535,-4.1008,-4.145,-4.1797,-4.197,-4.2239,-4.2585,-4.2471,-4.2393,-4.2318,-4.1983,-4.1325,-4.0302,-4.0167,-3.9501,-3.8245,-3.7414,-3.6828,0.0,0.0,0.0,0.0,0.0,0.0,0.0,0.0,0.0,0.0,0.0,-3.5789,-3.4619,0.0,0.0,0.0,-3.6164,-3.7345,-3.7688,-3.7244,0.0,0.0,0.0,0.0,0.0,0.0,0.0,-4.2106,-4.1897,-4.2213,-4.3815,-4.4057,-4.4321,-4.5095,-4.4673,-4.4101,-4.3569,0.0,-4.4764,-4.4929,-4.4947,-4.5112,-4.559,-4.5535,-4.5535,-4.5847,-4.5902,-4.5902,-4.5902,-4.5902,-4.5902,-4.5902,-4.5902,-4.5902,-4.5902,-4.7572,-4.8728,-4.8177,-4.8086,-4.7921,-4.7443,-4.6691,-4.5975,-4.853,-4.6948,-4.6136,-4.6271,-4.698,-4.698,-4.7444,-4.8179,-4.8256,-4.7811,-4.7018,-4.7057,-4.6617,-4.5788,-4.575,0.0,-4.5709,-4.5709,-4.5665,-4.5594,-4.5545,-4.5075,-4.4297,-4.422,-4.3816,-4.3104,-4.3028,-4.2989,-4.2989,-4.2931,-4.2489,-4.17,-4.0893,-4.0496,-4.0496,-4.0496,-4.0893,-4.1662,-4.0912,-4.09,-4.1673,-4.1444,-4.1637,-4.2283,-4.1882,-4.1287,-4.0478,-4.0211,-3.9737,-3.8979,-3.8146,-3.7331,-3.6572,0.0,0.0,0.0,0.0,0.0,0.0,0.0,0.0,0.0,0.0,0.0,0.0,0.0,0.0,-3.3954,-3.5367,0.0,-3.755,-3.7711,0.0,0.0,0.0,-3.778,-3.7614,-3.8248,-3.9294,-4.0838,0.0,0.0,-4.3204,-4.3404,-4.3835,-4.4925,-4.4806,-4.4323,-4.3606,-4.4195,-4.4433,-4.3828,-4.3717,-4.3735,-4.4103,-4.4544,-4.5168,-4.5792,-4.5865,-4.5755,-4.5736,-4.5626,-4.5681,-4.5608,-4.5681,-4.5663,-4.5681,-4.5736,-4.5681,-4.5645,-4.5773,-4.581,-4.5571,-4.5002,-4.4452,-4.7234,-4.6097,-4.5884,-4.5904,-4.6116,-4.6116,-4.6232,-4.6484,-4.7122,-4.6922,-4.6174,-4.6825,-4.6612,-4.5805,-4.5769,-4.5785,-4.5777,-4.5727,-4.5687,-4.5627,-4.4991,-4.4542,-4.4286,-4.3662,-4.3278,-4.3066,-4.2431,-4.2104,-4.2077,-4.1431,-4.1016,-4.0804,-4.0612,-4.0496,-4.0496,-4.0496,-4.0593,-4.0823,-4.0612,-4.0612,-4.0777,-4.0737,-4.0703,-4.074,-4.0633,-4.0374,-3.9989,-3.9901,-3.979,-3.9564,-3.8188,-3.7291,-3.7095,-3.4172,0.0,0.0,0.0,0.0,0.0,0.0,0.0,0.0,0.0,-3.4034,-3.304,0.0,-3.4373,0.0,-3.5679,-3.6711,-3.7728,-3.7147,0.0,0.0,-3.7934,-3.782,-3.834,-3.8597,-3.9093,-4.0065,-4.0175,-4.0781,-4.2396,-4.2598,-4.2907,-4.3781,-4.3823,-4.3699,-4.3551,-4.4176,-4.4636,-4.4488,-4.4856,-4.5314,-4.5259,-4.548,-4.5608,-4.5883,-4.5388,-4.4984,-4.4984,-4.447,-4.4066,-4.4084,-4.4065,-4.4048,-4.4066,-4.4084,-4.3828,-4.3406,-4.4121,-4.4599,-4.3424,-4.3002,-4.2727,-4.6761,-4.5873,-4.5834,-4.5807,-4.5807,-4.5807,-4.5807,-4.5845,-4.6329,-4.6252,-4.5845,-4.631,-4.6252,-4.5826,-4.5798,-4.5803,-4.5769,-4.5352,-4.5148,-4.5062,-4.4217,-4.3623,-4.3206,-4.2747,-4.2316,-4.1931,-4.145,-4.1219,-4.1181,-4.0719,-4.0496,-4.0496,-4.0496,-4.0496,-4.0496,-4.0496,-4.0496,-4.0496,-4.015,-3.9958,-3.9958,-3.9592,-3.9335,-3.9237,-3.9104,-3.8975,-3.8831,-3.874,-3.8696,-3.8658,-3.7806,-3.7143,-3.6755,-3.4573,-3.3355,0.0,0.0,0.0,0.0,0.0,0.0,0.0,0.0,0.0,0.0,0.0,-3.4603,-3.538,-3.6096,-3.6912,-3.7902,-3.7678,-3.782,-3.8703,-3.8387,-3.828,-3.8695,-3.875,-3.9047,-3.9806,-3.9882,-4.0377,-4.1607,-4.1791,-4.1919,-4.2378,-4.2433,-4.2708,-4.3387,-4.3901,-4.4176,-4.4195,-4.4544,-4.4819,-4.4819,-4.4507,-4.4305,-4.4232,-4.3626,-4.3095,-4.3095,-4.2745,-4.2433,-4.2433,-4.2415,-4.2433,-4.2433,-4.2433,-4.2268,-4.2066,-4.247,-4.269,-4.1974,-4.1772,-4.1625,-4.6644,-4.5991,-4.5861,-4.5801,-4.5807,-4.5807,-4.5807,-4.5807,-4.5807,-4.5807,-4.5807,-4.5807,-4.5722,-4.5652,-4.5652,-4.5573,-4.5448,-4.4706,-4.431,-4.4187,-4.3347,-4.258,-4.1917,-4.1697,-4.1239,-4.0516,-4.0496,-4.0439,-4.0362,-4.0362,-4.0342,-4.0342,-4.0342,-4.0342,-4.0342,-4.0342,-4.0362,-4.0342,-3.9554,-3.913,-3.9123,-3.8392,-3.8007,-3.7981,-3.7784,-3.7653,-3.7653,-3.7481,-3.7374,-3.7393,-3.7298,-3.6909,-3.6217,-3.5296,-3.4452,0.0,-3.2902,0.0,0.0,0.0,0.0,0.0,0.0,0.0,0.0,-3.4641,-3.5126,-3.5947,-3.6502,-3.7155,-3.7909,-3.8366,-3.8607,-3.8592,-3.8582,-3.8553,-3.8479,-3.8479,-3.8762,-3.9512,-3.9604,-3.9918,-4.0802,-4.0948,-4.0948,-4.1168,-4.1242,-4.1699,-4.2837,-4.3112,-4.313,-4.3203,-4.3185,-4.3185,-4.3149,-4.2635,-4.2213,-4.2011,-4.1534,-4.0912,-4.0857,-4.0802,-4.0783,-4.0783,-4.0783,-4.0783,-4.0783,-4.0783,-4.0747,-4.0563,-4.0598,-4.0726,-4.0875,-4.0783,-4.0765,-4.6229,-4.6002,-4.5975,-4.5911,-4.5807,-4.5807,-4.5807,-4.5807,-4.5807,-4.5807,-4.5807,-4.5807,-4.5432,-4.4852,-4.4833,-4.4439,-4.3775,-4.3601,-4.3484,-4.3383,-4.2524,-4.2051,-4.1859,-4.1089,-4.065,-4.0516,-4.0496,-4.0169,-3.9527,-3.9527,-3.9534,-3.9534,-3.9534,-3.9515,-3.9534,0.0,0.0,0.0,-3.8681,-3.8238,-3.8219,-3.8084,-3.8007,-3.8007,-3.7959,0.0,-3.7917,-3.7886,-3.787,-3.7851,-3.7191,0.0,0.0,0.0,0.0,0.0,0.0,0.0,0.0,0.0,0.0,0.0,-3.4561,-3.3862,-3.3762,-3.4902,-3.579,-3.6062,-3.6672,-3.7111,-3.7265,-3.72,-3.7082,-3.7047,-3.6892,-3.6787,-3.6772,-3.6791,-3.707,-3.786,-3.797,-3.8502,-3.9808,-4.012,-4.0359,-4.0857,-4.1095,-4.1205,-4.1444,-4.157,-4.1572,-4.157,-4.1625,-4.1554,-4.1554,-4.1389,-4.0965,-4.0524,-4.0267,-3.9845,-3.9294,-3.9148,-3.9166,-3.9166,-3.9148,-3.9166,-3.9166,-3.9166,-3.8964,-3.8322,-3.8227,-3.8576,-3.9808,-3.9588,-3.8964,-4.6152,0.0,-4.6032,-4.5969,0.0,-4.5834,-4.5807,-4.5807,-4.5807,-4.5807,-4.5807,-4.5807,-4.5355,-4.4581,-4.4581,-4.413,-4.3285,-4.2841,-4.2634,-4.2556,-4.1698,-4.1296,-4.1275,-4.08,-4.0558,-4.0539,-4.0119,-3.9688,-3.9304,-3.8854,-3.8661,-3.8661,-3.8649,-3.8661,-3.8642,-3.8238,-3.8219,-3.8649,-3.7796,-3.7373,-3.7353,-3.6969,-3.6769,-3.6769,-3.6776,0.0,0.0,0.0,0.0,0.0,0.0,0.0,0.0,0.0,0.0,-3.4827,-3.4342,-3.4297,-3.4769,-3.443,-3.4551,-3.5357,-3.5056,-3.4697,-3.4454,-3.523,-3.5905,-3.6349,-3.6625,-3.6928,-3.7336,-3.7055,-3.6833,-3.6796,-3.6589,-3.6422,-3.6398,-3.637,-3.6493,-3.6813,-3.6923,-3.7254,-3.8025,-3.8135,-3.845,-3.9148,-3.8982,-3.8927,-3.9368,-4.0396,-4.1001,-4.0598,-4.0506,-4.0377,-3.9958,-3.9533,-3.9239,-3.8796,-3.8392,-3.8006,-3.7588,-3.7514,-3.7514,-3.7514,-3.7533,-3.7533,-3.7514,-3.7514,-3.7386,-3.7033,-3.6905,-3.7107,-3.7988,-3.779,-3.7404,-4.6201,-4.6191,-4.6091,-4.6018,-4.5991,-4.5873,-4.5827,-4.5807,0.0,0.0,0.0,-4.5807,-4.5258,-4.4407,-4.4369,-4.3827,-4.2841,-4.2106,-4.1796,-4.1757,-4.1023,-4.072,-4.0694,-4.0631,-4.0595,-4.0549,-3.9711,-3.9227,-3.9027,-3.82,-3.7777,-3.7777,-3.7777,-3.7777,-3.77,-3.693,-3.6846,-3.7488,-3.6853,-3.6481,-3.6462,-3.5846,-3.55,-3.55,-3.5346,-3.5269,-3.5269,-3.5269,-3.5218,-3.5038,-3.5173,-3.5192,-3.5058,-3.5038,-3.5115,-3.525,-3.5269,-3.5346,-3.5481,-3.55,-3.55,-3.55,-3.55,-3.5486,-3.542,-3.546,-3.5769,-3.6442,-3.6327,-3.6525,-3.7213,-3.6936,-3.6641,-3.6596,-3.636,-3.6131,-3.6061,-3.5998,-3.5929,-3.6056,-3.6079,-3.6156,-3.6358,-3.6413,-3.6523,-3.707,-3.6942,-3.6486,-3.7331,-3.8872,-3.9753,-3.9221,-3.9038,-3.8964,-3.8395,-3.7808,-3.7272,-3.7088,-3.6541,-3.6046,-3.5899,-3.5862,-3.5862,-3.5844,-3.5862,-3.5862,-3.5844,-3.5844,-3.5844,-3.5844,-3.5844,-3.5862,-3.5862,-3.5862,-3.5899,-4.625,-4.6213,-4.6184,-4.6102,-4.5997,-4.5986,-4.5898,-4.5807,-4.5807,-4.5807,-4.5807,-4.5807,-4.4949,-4.3479,-4.3479,-4.2647,-4.1184,-4.1029,-4.0971,-4.0965,-4.0797,-4.072,-4.0694,-4.0621,-4.0586,-4.053,-3.9714,-3.8902,-3.8169,-3.7288,-3.6885,-3.6885,-3.6885,-3.6885,-3.6808,-3.6077,-3.5731,-3.5846,-3.5731,-3.5654,-3.5654,-3.5558,-3.55,-3.5462,-3.4776,-3.4379,-3.4379,-3.4391,-3.4026,-3.3333,-3.3987,-3.4045,-3.3333,-3.3295,-3.3603,-3.4295,-3.4372,-3.4699,-3.5423,-3.55,-3.55,-3.55,-3.55,-3.55,-3.5493,-3.55,-3.5538,-3.5673,-3.5664,-3.5643,-3.5721,-3.5558,-3.5353,-3.5099,-3.4817,-3.4555,-3.4461,-3.4376,-3.4631,-3.5248,-3.5266,-3.5477,-3.6028,-3.6174,-3.6193,-3.6395,-3.6266,-3.6303,-3.6376,-3.6725,-3.6927,-3.6835,-3.6813,-3.6743,-3.6633,-3.656,-3.6138,-3.5463,-3.5298,-3.4986,-3.4468,-3.4376,-3.4357,-3.4229,-3.4339,-3.4302,-3.4266,-3.4156,-3.4302,-3.4339,-3.4376,-3.4321,-3.4357,-3.4321,-3.4449,-4.6284,-4.6269,-4.6202,-4.6171,-4.6105,-4.6051,-4.591,-4.5807,-4.5807,-4.5807,-4.5761,-4.5355,-4.4465,-4.3298,-4.2821,-4.1951,-4.0797,-4.0797,-4.0797,-4.081,-4.0778,-4.0752,-4.0746,-4.0674,-4.0409,-3.9911,-3.9061,-3.8185,-3.7296,-3.6442,-3.6038,-3.6038,-3.6038,-3.6058,-3.6019,-3.5673,-3.55,-3.55,-3.55,-3.55,-3.55,-3.5045,-3.4795,-3.4795,-3.3949,-3.3487,-3.3494,-3.3506,-3.3314,-3.291,-3.3276,-3.3321,-3.2929,-3.2891,-3.3083,-3.3468,-3.3494,-3.3872,-3.4737,-3.5231,-3.55,-3.55,-3.55,-3.55,-3.55,-3.55,-3.55,-3.55,-3.55,-3.5493,-3.5453,-3.5174,-3.4945,-3.4831,-3.445,-3.416,-3.4086,-3.3998,-3.4099,-3.441,-3.4457,-3.4545,-3.489,-3.4945,-3.5147,-3.5463,-3.5591,-3.5445,-3.5055,-3.4981,-3.5128,-3.5495,-3.5591,-3.5404,-3.5073,-3.4926,-3.4761,-3.438,-3.4357,-3.4211,-3.3844,-3.3807,-3.3807,-3.3807,-3.3807,-3.3807,-3.3788,-3.3807,-3.3807,-3.3807,-3.3807,-3.3807,-3.3807,-3.3807,-3.3954,-4.6295,-4.6303,-4.6249,-4.6199,-4.6197,-4.6067,-4.5947,-4.5835,-4.5608,-4.5529,-4.5432,-4.4871,-4.402,-4.2976,-4.2299,-4.1564,-4.0874,-4.0797,-4.0797,-4.0797,-4.0797,-4.0797,-4.0771,-4.0572,-4.0056,-3.9309,-3.8337,-3.7448,-3.6694,-3.5892,-3.55,-3.55,-3.55,-3.55,-3.55,-3.5288,-3.5192,-3.5192,-3.5,-3.5,-3.5173,-3.4353,-3.3917,-3.3853,-3.3064,-3.2641,-3.2622,-3.2641,-3.2526,-3.2352,-3.2526,-3.2545,-3.2352,-3.2333,-3.241,-3.2602,-3.2641,-3.3103,-3.4122,-3.4834,-3.5288,-3.5481,-3.55,-3.55,-3.55,-3.55,-3.55,-3.55,-3.55,-3.55,-3.546,-3.5242,-3.501,-3.4889,-3.4545,-3.4262,-3.413,-3.4074,-3.3998,-3.3947,-3.3908,-3.3887,-3.3847,-3.382,-3.41,-3.4619,-3.4729,-3.4454,-3.3954,-3.3807,-3.41,-3.4491,-3.4729,-3.4546,-3.3917,-3.3862,-3.388,-3.3807,-3.3844,-3.3862,-3.3788,-3.3697,-3.3532,-3.3476,-3.3495,-3.3348,-3.3293,-3.3403,-3.3458,-3.3458,-3.344,-3.355,-3.377,-3.3807,-3.3847,-4.6291,-4.6301,-4.6304,-4.6269,-4.6177,-4.6067,-4.5997,-4.5853,-4.5105,-4.471,-4.4697,-4.4632,-4.3634,-4.2241,-4.2048,-4.1532,-4.0835,-4.0797,-4.0797,-4.0797,-4.0797,-4.0797,-4.07,-3.9997,-3.9554,-3.9168,-3.7726,-3.6922,-3.6683,-3.5898,-3.5481,-3.55,-3.55,-3.5481,-3.5404,-3.4718,-3.434,-3.4302,-3.3545,-3.3526,-3.4205,-3.3468,-3.3026,-3.3006,-3.2218,-3.1814,-3.1814,-3.1814,-3.1442,-3.0769,-3.1429,-3.1468,-3.0769,-3.0654,-3.0981,-3.1737,-3.1814,-3.2487,-3.3975,-3.4282,-3.468,-3.5385,-3.5481,-3.55,-3.55,-3.55,-3.55,-3.55,-3.55,-3.55,-3.55,-3.5439,-3.525,-3.4926,-3.4812,-3.4662,-3.4262,-3.4136,-3.4086,-3.4086,-3.3972,-3.3895,-3.3881,-3.3847,-3.3844,-3.4009,-3.4082,-3.4009,-3.3862,-3.3807,-3.3807,-3.3935,-3.3954,-3.3954,-3.3807,-3.3807,-3.3807,-3.3807,-3.3788,-3.3715,-3.3568,-3.3128,-3.2711,-3.2706,-3.2724,-3.2504,-3.2173,-3.2155,-3.2711,-3.2729,-3.2784,-3.2949,-3.3568,-3.3807,-3.3868,-4.6288,-4.6297,-4.6301,-4.625,-4.62,-4.6139,-4.6068,-4.5919,-4.5035,-4.4369,-4.3795,-4.3305,-4.2667,-4.197,-4.1506,-4.1087,-4.0797,-4.0797,-4.0797,-4.0797,-4.0797,-4.0545,-4.0023,-3.9675,-3.8999,-3.7957,-3.7192,-3.6569,-3.6093,-3.5676,-3.5502,-3.5495,-3.5494,-3.525,-3.4737,-3.4379,-3.3955,-3.3417,-3.2622,-3.2352,-3.2622,-3.2372,-3.2199,-3.2102,-3.1385,-3.0923,-3.0923,-3.0942,-3.0769,-3.0442,-3.075,-3.0769,-3.0423,-3.0404,-3.0558,-3.0942,-3.1429,-3.1987,-3.2679,-3.3641,-3.4353,-3.4718,-3.5212,-3.55,-3.55,-3.55,-3.55,-3.55,-3.55,-3.55,-3.5493,-3.5403,-3.5209,-3.4955,-3.4792,-3.4586,-3.4245,-3.4185,-3.4148,-3.4111,-3.4061,-3.3985,-3.3908,-3.3829,-3.3807,-3.3807,-3.3807,-3.3807,-3.3807,-3.3807,-3.3807,-3.3807,-3.3807,-3.3807,-3.3807,-3.3807,-3.3807,-3.3733,-3.3371,-3.3096,-3.3018,-3.243,-3.1898,-3.1898,-3.1953,-3.1861,-3.158,-3.1599,-3.1898,-3.199,-3.2381,-3.2711,-3.3054,-3.3476,-3.3834,-4.6305,-4.6294,-4.6301,-4.6269,-4.6196,-4.5932,-4.5791,-4.5533,-4.4487,-4.3599,-4.2911,-4.2047,-4.168,-4.1583,-4.1048,-4.0797,-4.0797,-4.0797,-4.0797,-4.0797,-4.0797,-4.0332,-3.9559,-3.923,-3.8367,-3.7067,-3.665,-3.6207,-3.5636,-3.5554,-3.5522,-3.5496,-3.5297,-3.486,-3.4251,-3.3821,-3.3205,-3.2557,-3.1749,-3.1339,-3.1352,-3.1346,-3.1327,-3.1269,-3.0731,-3.0404,-3.0404,-3.0404,-3.0404,-3.0404,-3.0404,-3.0404,-3.0404,-3.0404,-3.0404,-3.0442,-3.0987,-3.1468,-3.1692,-3.3026,-3.3936,-3.4225,-3.5007,-3.55,-3.55,-3.55,-3.55,-3.55,-3.55,-3.55,-3.5467,-3.5361,-3.519,-3.501,-3.4811,-3.4575,-3.437,-3.4257,-3.4185,-3.4136,-3.4111,-3.4049,-3.3921,-3.3829,-3.3807,-3.3807,-3.3807,-3.3807,-3.3807,-3.3807,-3.3807,-3.3807,-3.3807,-3.3807,-3.3807,-3.3807,-3.3807,-3.3642,-3.3201,-3.2674,-3.2472,-3.1788,-3.1072,-3.1072,-3.1213,-3.1121,-3.0742,-3.0815,-3.1544,-3.1549,-3.1874,-3.2388,-3.2687,-3.3185,-3.3646,-4.6305,-4.6295,-4.6305,-4.6249,-4.6211,-4.5337,-4.4951,-4.4814,-4.3066,-4.2238,-4.2096,-4.1277,-4.0874,-4.0913,-4.0835,-4.0797,-4.0797,-4.0797,-4.0797,-4.0797,-4.0758,-4.0313,-3.9481,-3.8663,-3.7767,-3.6781,-3.612,-3.5711,-3.5604,-3.5578,-3.5572,-3.5514,-3.4808,-3.4339,-3.3953,-3.2675,-3.1821,-3.1688,-3.0951,-3.0496,-3.0512,-3.05,-3.0525,-3.0519,-3.0423,-3.0404,-3.0404,-3.0404,-3.0404,-3.0404,-3.0404,-3.0404,-3.0404,-3.0404,-3.0404,-3.0404,-3.0442,-3.0846,-3.1621,-3.2468,-3.3256,-3.409,-3.4872,-3.5462,-3.5385,-3.5462,-3.55,-3.55,-3.55,-3.55,-3.55,-3.546,-3.5388,-3.5193,-3.501,-3.4792,-3.4602,-3.437,-3.424,-3.4185,-3.4136,-3.4049,-3.3921,-3.3842,-3.382,-3.3807,-3.3807,-3.3807,-3.3807,-3.3807,-3.3807,-3.3807,-3.3807,-3.3807,-3.3807,-3.3807,-3.3807,-3.3476,-3.2944,-3.2436,-3.2014,-3.1513,-3.0797,-3.0467,-3.1029,-3.0907,-3.0069,-3.0289,-3.1347,-3.1654,-3.1501,-3.1832,-3.2311,-3.2766,-3.3368,-4.6288,-4.624,-4.5697,-4.5467,-4.5371,-4.4509,-4.411,-4.3954,-4.2773,-4.2174,-4.1956,-4.1232,-4.0848,-4.0797,-4.0797,-4.0797,-4.0797,-4.0797,-4.0797,-4.0739,-4.0236,-3.952,-3.8644,-3.7773,-3.6942,-3.6187,-3.5828,-3.5668,-3.5676,-3.562,-3.5299,-3.4811,-3.4459,-3.3786,-3.2725,-3.2011,-3.1466,-3.0951,-3.0604,-3.0463,-3.0472,-3.0447,-3.0436,-3.04,-3.039,-3.0404,-3.0404,-3.0404,-3.0404,-3.0404,-3.0404,-3.0404,-3.0404,-3.0404,-3.0404,-3.0404,-3.0404,-3.0538,-3.0904,-3.166,-3.2237,-3.2622,-3.3891,-3.4699,-3.4757,-3.5161,-3.55,-3.55,-3.55,-3.55,-3.55,-3.55,-3.5405,-3.5234,-3.5132,-3.4964,-3.4678,-3.4506,-3.4404,-3.4245,-3.4148,-3.4061,-3.3972,-3.3913,-3.386,-3.382,-3.3807,-3.3807,-3.3807,-3.3807,-3.3807,-3.3807,-3.3807,-3.3807,-3.3807,-3.3807,-3.366,-3.2999,-3.2381,-3.1604,-3.1054,-3.0797,-3.0173,-3.032,-3.087,-3.125,-3.0558,-3.0253,-3.1237,-3.1195,-3.1078,-3.1314,-3.2019,-3.2512,-3.3343,-4.6291,-4.6164,-4.5364,-4.5017,-4.4844,-4.3769,-4.326,-4.3111,-4.2304,-4.1857,-4.1657,-4.1148,-4.0868,-4.0837,-4.0815,-4.0797,-4.0797,-4.0797,-4.0797,-4.0719,-3.9907,-3.9036,-3.8179,-3.7303,-3.6477,-3.582,-3.5704,-3.5704,-3.5704,-3.5668,-3.5173,-3.4381,-3.4083,-3.3197,-3.1923,-3.1479,-3.1041,-3.0572,-3.0495,-3.049,-3.0485,-3.0485,-3.0493,-3.0433,-3.045,-3.0427,-3.0404,-3.0404,-3.025,-3.0038,-2.9987,-2.9962,-2.9987,-3.025,-3.0404,-3.0404,-3.0404,-3.0404,-3.05,-3.1218,-3.1833,-3.2122,-3.3353,-3.4282,-3.4584,-3.5154,-3.5442,-3.55,-3.55,-3.55,-3.55,-3.55,-3.5439,-3.5316,-3.5223,-3.5098,-3.4821,-3.4678,-3.4465,-3.4257,-3.4148,-3.4074,-3.4029,-3.3952,-3.3868,-3.382,-3.3807,-3.3807,-3.3807,-3.3807,-3.3807,-3.3807,-3.3807,-3.3623,-3.3421,-3.3275,-3.3293,-3.2711,-3.1696,-3.087,-3.0375,-3.0081,-3.0099,-3.0283,-3.0681,-3.1195,-3.1213,-3.076,-3.0607,-3.0617,-3.0457,-3.0561,-3.139,-3.2289,-3.298,-4.6251,-4.6086,-4.5325,-4.4802,-4.4531,-4.3066,-4.2402,-4.2246,-4.1532,-4.1225,-4.1202,-4.0956,-4.0906,-4.0883,-4.0843,-4.0803,-4.0797,-4.0797,-4.0739,-4.0603,-3.9791,-3.8914,-3.8063,-3.7174,-3.6419,-3.5723,-3.5704,-3.5704,-3.5704,-3.5665,-3.524,-3.435,-3.3527,-3.271,-3.1753,-3.1033,-3.0622,-3.0535,-3.0496,-3.0506,-3.0495,-3.052,-3.0506,-3.051,-3.051,-3.0485,-3.0414,-3.0396,-3.0025,-2.93,-2.9261,-2.9146,-2.9434,-2.9998,-3.039,-3.0404,-3.0404,-3.0404,-3.0481,-3.1135,-3.1891,-3.2583,-3.3609,-3.4372,-3.5007,-3.5365,-3.55,-3.55,-3.55,-3.55,-3.55,-3.55,-3.5493,-3.5486,-3.5331,-3.5218,-3.5107,-3.4831,-3.4506,-3.4262,-3.4173,-3.4074,-3.3992,-3.3947,-3.3881,-3.3834,-3.3807,-3.3807,-3.3807,-3.3807,-3.3807,-3.3807,-3.3788,-3.3642,-3.3128,-3.2638,-3.2638,-3.2417,-3.1219,-3.0246,-3.0008,-2.9769,-3.0136,-3.0405,-3.1041,-3.1556,-3.2169,-3.1703,-3.1062,-3.0902,-3.0426,-3.0219,-3.1006,-3.1893,-3.2317,-4.5408,-4.5202,-4.38,-4.3218,-4.3065,-4.2031,-4.1582,-4.1582,-4.1269,-4.1152,-4.1088,-4.1064,-4.0981,-4.0906,-4.0868,-4.0854,-4.0797,-4.0797,-4.0487,-3.9829,-3.9011,-3.816,-3.7309,-3.6477,-3.5936,-3.5742,-3.5704,-3.5704,-3.5704,-3.5684,-3.4988,-3.3687,-3.3242,-3.2353,-3.1067,-3.0714,-3.0601,-3.0579,-3.0568,-3.0591,-3.0614,-3.0639,-3.0633,-3.0642,-3.0639,-3.0605,-3.0537,-3.0438,-2.9982,-2.9217,-2.9709,-3.0006,-3.0056,-3.029,-3.0449,-3.0396,-3.0404,-3.0404,-3.0423,-3.0654,-3.1212,-3.2025,-3.2852,-3.368,-3.4545,-3.5173,-3.5462,-3.55,-3.55,-3.55,-3.55,-3.55,-3.55,-3.55,-3.5439,-3.5339,-3.5174,-3.4841,-3.4586,-3.4454,-3.4293,-3.4136,-3.4036,-3.3972,-3.3939,-3.3834,-3.3807,-3.3807,-3.3807,-3.3807,-3.3807,-3.3807,-3.3752,-3.366,-3.3201,-3.2729,-3.2528,-3.2234,-3.1201,-3.021,-2.9879,-2.9806,-3.0155,-3.0679,-3.1345,-3.1942,-3.2545,-3.2373,-3.1593,-3.1222,-3.0927,-3.0913,-3.107,-3.1529,-3.2125,-4.4528,-4.434,-4.2979,-4.2397,-4.2303,-4.1543,-4.1191,-4.1191,-4.1191,-4.1172,-4.1143,-4.1114,-4.1044,-4.0986,-4.0924,-4.0893,-4.0843,-4.0802,-4.0158,-3.9108,-3.8508,-3.7729,-3.6884,-3.6091,-3.5704,-3.5704,-3.5704,-3.5704,-3.5684,-3.5342,-3.4485,-3.33,-3.2813,-3.1984,-3.0733,-3.0611,-3.0632,-3.0649,-3.0636,-3.0653,-3.0682,-3.0709,-3.0704,-3.0697,-3.0697,-3.0669,-3.0637,-3.0537,-3.0137,-2.9528,-2.9795,-2.9975,-2.9983,-3.0255,-3.0472,-3.0414,-3.0404,-3.0404,-3.0404,-3.0423,-3.0942,-3.1968,-3.2622,-3.3468,-3.4468,-3.5276,-3.5462,-3.55,-3.55,-3.55,-3.55,-3.55,-3.55,-3.55,-3.55,-3.541,-3.519,-3.4908,-3.4689,-3.4572,-3.4351,-3.4173,-3.4049,-3.3998,-3.3965,-3.3847,-3.3807,-3.3807,-3.3807,-3.3807,-3.3807,-3.3807,-3.3807,-3.3605,-3.3311,-3.2913,-3.2491,-3.199,-3.1311,-3.054,-3.0008,-3.0026,-3.0258,-3.096,-3.1622,-3.2132,-3.2676,-3.2176,-3.1555,-3.1439,-3.1242,-3.0793,-3.0704,-3.1637,-3.2226,-4.3689,-4.3521,-4.2686,-4.226,-4.2166,-4.1484,-4.1191,-4.1191,-4.1191,-4.1191,-4.1191,-4.1143,-4.1111,-4.1072,-4.097,-4.0924,-4.0878,-4.0815,-3.9917,-3.8706,-3.8152,-3.7696,-3.669,-3.5994,-3.5723,-3.5704,-3.5704,-3.5632,-3.5452,-3.4839,-3.391,-3.2977,-3.227,-3.1506,-3.0782,-3.0664,-3.0682,-3.0711,-3.0713,-3.0715,-3.0724,-3.0724,-3.0724,-3.0724,-3.0726,-3.0726,-3.0724,-3.0687,-3.0336,-2.9599,-2.9537,-2.9505,-2.9501,-3.0083,-3.0496,-3.0417,-3.0402,-3.039,-3.039,-3.0404,-3.1019,-3.2391,-3.2814,-3.3583,-3.4911,-3.5308,-3.55,-3.55,-3.55,-3.55,-3.55,-3.55,-3.55,-3.55,-3.55,-3.5417,-3.5242,-3.5027,-3.4889,-3.467,-3.442,-3.4179,-3.4093,-3.4043,-3.3972,-3.3847,-3.3807,-3.3807,-3.3807,-3.3807,-3.3807,-3.3807,-3.382,-3.3678,-3.3421,-3.333,-3.2963,-3.275,-3.2095,-3.1464,-3.0734,-3.0679,-3.0932,-3.1582,-3.2008,-3.2477,-3.2659,-3.2371,-3.193,-3.1656,-3.1149,-3.0372,-3.0693,-3.1706,-3.2463,-4.3315,-4.2674,-4.1801,-4.1436,-4.1422,-4.119,-4.1152,-4.1191,-4.1191,-4.1191,-4.1191,-4.119,-4.1145,-4.1108,-4.1068,-4.1014,-4.096,-4.0893,-3.9937,-3.8477,-3.8214,-3.7328,-3.6245,-3.5839,-3.5704,-3.5704,-3.5684,-3.5361,-3.4756,-3.4476,-3.364,-3.2264,-3.1984,-3.1479,-3.08,-3.0706,-3.0726,-3.0767,-3.0771,-3.08,-3.084,-3.084,-3.0854,-3.0834,-3.084,-3.0859,-3.084,-3.0834,-3.0693,-3.0289,-2.9736,-2.9727,-3.0157,-3.0477,-3.0597,-3.0495,-3.0462,-3.0455,-3.0408,-3.0404,-3.0942,-3.1891,-3.2602,-3.3372,-3.441,-3.5141,-3.5423,-3.55,-3.55,-3.55,-3.55,-3.55,-3.55,-3.55,-3.55,-3.5479,-3.5403,-3.525,-3.5098,-3.5037,-3.4831,-3.4559,-3.4318,-3.4213,-3.4136,-3.3934,-3.386,-3.3873,-3.3908,-3.386,-3.3887,-3.3834,-3.3802,-3.3728,-3.3623,-3.3587,-3.3526,-3.3529,-3.3165,-3.2773,-3.2132,-3.1774,-3.2206,-3.2778,-3.2843,-3.3204,-3.3327,-3.3252,-3.2693,-3.1931,-3.1608,-3.1169,-3.1344,-3.2046,-3.2781,-4.265,-4.183,-4.1311,-4.1102,-4.1108,-4.111,-4.1132,-4.1191,-4.1191,-4.1191,-4.1191,-4.1191,-4.1191,-4.1144,-4.1095,-4.1078,-4.1025,-4.0983,-3.996,-3.8373,-3.7466,-3.6599,-3.5858,-3.5704,-3.5704,-3.5704,-3.5709,-3.5227,-3.4502,-3.41,-3.3164,-3.2124,-3.1593,-3.1193,-3.0792,-3.0773,-3.0801,-3.0851,-3.0833,-3.0876,-3.0898,-3.0918,-3.0918,-3.0898,-3.0918,-3.0918,-3.0898,-3.0898,-3.0703,-3.0286,-3.0113,-3.0264,-3.0598,-3.0676,-3.0647,-3.0545,-3.0518,-3.0487,-3.0449,-3.0419,-3.0808,-3.1641,-3.2449,-3.3276,-3.4141,-3.4968,-3.55,-3.55,-3.55,-3.55,-3.55,-3.55,-3.55,-3.55,-3.55,-3.55,-3.55,-3.5316,-3.5198,-3.5149,-3.5028,-3.4812,-3.4508,-3.4475,-3.4353,-3.4196,-3.4129,-3.4148,-3.4136,-3.403,-3.3998,-3.4005,-3.3992,-3.3962,-3.3994,-3.3981,-3.3994,-3.4012,-3.395,-3.3636,-3.3216,-3.2743,-3.2935,-3.3297,-3.3571,-3.3783,-3.3852,-3.3653,-3.2887,-3.2335,-3.2161,-3.2092,-3.2126,-3.2493,-3.3198,-4.1888,-4.1109,-4.1115,-4.1102,-4.1107,-4.111,-4.1132,-4.1191,-4.1191,-4.1191,-4.1191,-4.1191,-4.1191,-4.1191,-4.1144,-4.1114,-4.1091,-4.105,-3.9861,-3.8303,-3.6861,-3.581,-3.5796,-3.5701,-3.5709,-3.5709,-3.5715,-3.5229,-3.4503,-3.3674,-3.2853,-3.2031,-3.1253,-3.0878,-3.0807,-3.0859,-3.0898,-3.0898,-3.0898,-3.0898,-3.0898,-3.0918,-3.0918,-3.0918,-3.0918,-3.0918,-3.0918,-3.0879,-3.0586,-2.9805,-3.0508,-3.0756,-3.0739,-3.0723,-3.0674,-3.0625,-3.0575,-3.0531,-3.0506,-3.0465,-3.0779,-3.1632,-3.2448,-3.3256,-3.4122,-3.4968,-3.55,-3.55,-3.55,-3.55,-3.55,-3.55,-3.55,-3.55,-3.55,-3.55,-3.546,-3.532,-3.5234,-3.5226,-3.5091,-3.4926,-3.4783,-3.4733,-3.4663,-3.4364,-3.4334,-3.4323,-3.4318,-3.4267,-3.4272,-3.4334,-3.4318,-3.4291,-3.4345,-3.4416,-3.4456,-3.4456,-3.4467,-3.4258,-3.3918,-3.3572,-3.3478,-3.3653,-3.4169,-3.4334,-3.4255,-3.3802,-3.318,-3.294,-3.2921,-3.268,-3.2527,-3.3191,-3.3865,-4.1888,-4.1109,-4.1111,-4.1099,-4.1107,-4.1108,-4.1131,-4.1191,-4.1191,-4.1191,-4.1191,-4.1191,-4.1191,-4.1191,-4.1191,-4.119,-4.1133,-4.0953,-4.0099,-3.8329,-3.658,-3.5846,-3.576,-3.5722,-3.5701,-3.5716,-3.5698,-3.5254,-3.4451,-3.3631,-3.2859,-3.202,-3.123,-3.0829,-3.0878,-3.0898,-3.0918,-3.0918,-3.0918,-3.0918,-3.0918,-3.0918,-3.0918,-3.0918,-3.0918,-3.0918,-3.0918,-3.0918,-3.0801,-3.0703,-3.0762,-3.0898,-3.0859,-3.0853,-3.08,-3.071,-3.068,-3.0639,-3.0595,-3.0567,-3.0849,-3.1702,-3.2471,-3.3256,-3.4129,-3.4988,-3.5442,-3.55,-3.55,-3.55,-3.55,-3.55,-3.55,-3.55,-3.55,-3.55,-3.5493,-3.5472,-3.5417,-3.541,-3.5369,-3.5246,-3.499,-3.4935,-3.4813,-3.4574,-3.451,-3.45,-3.4489,-3.4486,-3.454,-3.4605,-3.4551,-3.4516,-3.4603,-3.4685,-3.4715,-3.4764,-3.4793,-3.4793,-3.4443,-3.4338,-3.4249,-3.4463,-3.4882,-3.4877,-3.4674,-3.4598,-3.4113,-3.3929,-3.37,-3.3547,-3.3551,-3.408,-3.4295,-4.1874,-4.1129,-4.1109,-4.1117,-4.1107,-4.1108,-4.113,-4.1191,-4.1191,-4.1191,-4.1191,-4.1191,-4.1191,-4.1191,-4.1191,-4.1191,-4.0957,-4.0204,-3.9148,-3.7734,-3.6431,-3.583,-3.5805,-3.5767,-3.5752,-3.5741,-3.5756,-3.5146,-3.4147,-3.3512,-3.2723,-3.1634,-3.1055,-3.0896,-3.0898,-3.0918,-3.0918,-3.0918,-3.0918,-3.0918,-3.0918,-3.0918,-3.0918,-3.0918,-3.0918,-3.0918,-3.0918,-3.0918,-3.0918,-3.0918,-3.0918,-3.0918,-3.0918,-3.0917,-3.0874,-3.0806,-3.0718,-3.0696,-3.0625,-3.0621,-3.0895,-3.1758,-3.2527,-3.3318,-3.4148,-3.5007,-3.5442,-3.55,-3.55,-3.55,-3.55,-3.55,-3.55,-3.55,-3.55,-3.55,-3.55,-3.55,-3.55,-3.55,-3.5467,-3.5376,-3.5246,-3.5127,-3.5077,-3.487,-3.4879,-3.487,-3.4832,-3.4822,-3.4803,-3.4822,-3.4744,-3.4734,-3.4822,-3.4889,-3.4954,-3.4981,-3.5027,-3.5035,-3.4907,-3.4927,-3.4994,-3.5122,-3.5144,-3.5163,-3.4991,-3.498,-3.4846,-3.456,-3.4331,-3.4388,-3.438,-3.4372,-3.456,-4.1693,-4.1109,-4.1109,-4.1117,-4.1105,-4.1107,-4.113,-4.1191,-4.1191,-4.1191,-4.1191,-4.1191,-4.1191,-4.1191,-4.1191,-4.1172,-4.0566,-3.9448,-3.8246,-3.7305,-3.6352,-3.5912,-3.5847,-3.586,-3.5856,-3.5834,-3.5827,-3.5024,-3.4046,-3.3379,-3.2706,-3.1387,-3.0937,-3.0898,-3.0918,-3.0918,-3.0918,-3.0918,-3.0918,-3.0918,-3.0918,-3.0918,-3.0918,-3.0918,-3.0918,-3.0918,-3.0918,-3.0918,-3.0918,-3.0918,-3.0918,-3.0918,-3.0918,-3.0918,-3.0916,-3.0897,-3.08,-3.0744,-3.0804,-3.0873,-3.1231,-3.196,-3.2764,-3.3586,-3.4423,-3.5059,-3.5385,-3.55,-3.55,-3.55,-3.55,-3.55,-3.55,-3.55,-3.55,-3.55,-3.55,-3.55,-3.55,-3.55,-3.5481,-3.5405,-3.5342,-3.5243,-3.5239,-3.5215,-3.5198,-3.5174,-3.5132,-3.5107,-3.5044,-3.5027,-3.4944,-3.4917,-3.499,-3.5008,-3.5079,-3.5096,-3.5157,-3.5166,-3.5182,-3.5166,-3.5141,-3.5157,-3.5182,-3.5182,-3.5125,-3.4961,-3.4866,-3.4866,-3.4789,-3.4636,-3.4579,-3.4541,-3.4778,-4.1164,-4.1109,-4.1109,-4.1114,-4.11,-4.1105,-4.111,-4.1112,-4.1191,-4.1191,-4.1191,-4.1191,-4.1191,-4.1191,-4.1191,-4.0801,-3.9883,-3.8828,-3.7988,-3.7168,-3.6348,-3.5957,-3.5957,-3.5957,-3.5957,-3.5971,-3.5882,-3.5306,-3.4397,-3.3706,-3.2851,-3.1992,-3.123,-3.0918,-3.0918,-3.0918,-3.0918,-3.0918,-3.0918,-3.0918,-3.0918,-3.0918,-3.0918,-3.0918,-3.0918,-3.0918,-3.0918,-3.0918,-3.0918,-3.0918,-3.0918,-3.0918,-3.0918,-3.0918,-3.0918,-3.0897,-3.0874,-3.0848,-3.0898,-3.142,-3.2109,-3.2957,-3.3626,-3.4404,-3.5079,-3.5406,-3.5495,-3.55,-3.55,-3.55,-3.55,-3.55,-3.55,-3.55,-3.55,-3.55,-3.55,-3.55,-3.55,-3.55,-3.5474,-3.546,-3.5372,-3.5308,-3.527,-3.5231,-3.5218,-3.519,-3.5166,-3.5157,-3.5149,-3.5149,-3.5157,-3.5149,-3.5157,-3.5149,-3.5157,-3.5157,-3.5174,-3.5174,-3.5182,-3.5182,-3.5182,-3.5182,-3.5182,-3.5182,-3.5076,-3.4942,-3.498,-3.5037,-3.4934,-3.48,-3.4827,-3.4857,-3.4893,-4.0961,-4.1037,-4.1081,-4.1112,-4.1099,-4.1105,-4.1109,-4.1112,-4.1172,-4.1191,-4.1191,-4.1191,-4.1191,-4.1074,-4.0664,-3.9844,-3.8711,-3.8184,-3.7422,-3.6641,-3.6211,-3.6016,-3.6016,-3.6016,-3.6016,-3.5996,-3.5915,-3.5508,-3.4624,-3.3788,-3.3008,-3.2168,-3.1328,-3.0918,-3.0918,-3.0918,-3.0918,-3.0918,-3.0918,-3.0918,-3.0918,-3.0918,-3.0918,-3.0918,-3.0918,-3.0918,-3.0918,-3.0918,-3.0918,-3.0918,-3.0918,-3.0918,-3.0918,-3.0918,-3.0918,-3.0918,-3.0917,-3.0916,-3.103,-3.1602,-3.24,-3.3225,-3.4029,-3.4781,-3.5343,-3.555,-3.5534,-3.5501,-3.55,-3.55,-3.55,-3.55,-3.55,-3.55,-3.55,-3.55,-3.55,-3.55,-3.55,-3.55,-3.5481,-3.546,-3.5398,-3.5335,-3.5297,-3.5266,-3.5226,-3.5209,-3.5182,-3.5182,-3.5182,-3.5182,-3.5182,-3.5182,-3.5182,-3.5182,-3.5182,-3.5182,-3.5182,-3.5182,-3.5182,-3.5182,-3.5182,-3.5182,-3.5182,-3.5182,-3.5163,-3.5076,-3.5144,-3.5182,-3.5087,-3.501,-3.5106,-3.5174,-3.5151,-4.0866,-4.0997,-4.1042,-4.1087,-4.1116,-4.1104,-4.1108,-4.113,-4.1171,-4.1172,-4.1191,-4.1191,-4.1094,-4.0723,-3.9941,-3.8809,-3.7344,-3.7344,-3.6875,-3.623,-3.6055,-3.6016,-3.6016,-3.6016,-3.6016,-3.6016,-3.5976,-3.5547,-3.4746,-3.4082,-3.3184,-3.2305,-3.1445,-3.1172,-3.123,-3.1035,-3.0996,-3.1094,-3.0937,-3.0918,-3.0918,-3.0918,-3.0918,-3.0918,-3.0918,-3.0918,-3.0918,-3.0918,-3.0918,-3.0918,-3.0918,-3.0918,-3.0918,-3.0918,-3.0918,-3.0918,-3.0918,-3.0976,-3.1345,-3.1946,-3.285,-3.3686,-3.4438,-3.5079,-3.5408,-3.559,-3.5553,-3.5508,-3.55,-3.55,-3.55,-3.55,-3.55,-3.55,-3.55,-3.55,-3.55,-3.55,-3.55,-3.55,-3.55,-3.5453,-3.5372,-3.5342,-3.5285,-3.525,-3.5218,-3.5209,-3.5182,-3.5182,-3.5182,-3.5182,-3.5182,-3.5182,-3.5182,-3.5182,-3.5182,-3.5182,-3.5182,-3.5182,-3.5182,-3.5182,-3.5182,-3.5182,-3.5182,-3.5182,-3.5182,-3.5182,-3.5182,-3.5182,-3.5182,-3.5182,-3.5182,-3.5182,-3.5185,-4.0825,-4.099,-4.1019,-4.1035,-4.1091,-4.1103,-4.1105,-4.1103,-4.1171,-4.1152,-4.1112,-4.1074,-4.0703,-3.9902,-3.9121,-3.8184,-3.748,-3.7129,-3.6738,-3.6074,-3.6016,-3.6016,-3.6016,-3.6016,-3.6016,-3.6016,-3.6016,-3.5488,-3.4922,-3.459,-3.373,-3.2598,-3.2266,-3.2051,-3.1973,-3.1543,-3.1328,-3.1777,-3.1348,-3.0996,-3.0976,-3.0996,-3.0996,-3.0918,-3.0918,-3.0918,-3.0918,-3.0918,-3.0918,-3.0918,-3.0918,-3.0918,-3.0918,-3.0918,-3.0918,-3.0918,-3.0976,-3.1211,-3.1874,-3.2613,-3.3448,-3.4273,-3.5164,-3.5606,-3.5676,-3.5574,-3.5522,-3.5494,-3.55,-3.55,-3.55,-3.55,-3.55,-3.55,-3.55,-3.55,-3.55,-3.55,-3.55,-3.55,-3.55,-3.542,-3.5357,-3.5315,-3.5285,-3.525,-3.5209,-3.5209,-3.5182,-3.5182,-3.5182,-3.5182,-3.5182,-3.5182,-3.5182,-3.5182,-3.5182,-3.5182,-3.5182,-3.5182,-3.5182,-3.5182,-3.5182,-3.5182,-3.5182,-3.5182,-3.5182,-3.5182,-3.5182,-3.5182,-3.5182,-3.5182,-3.5182,-3.5182,-3.5182,-4.0697,-4.089,-4.0954,-4.1028,-4.1108,-4.1099,-4.1101,-4.1102,-4.113,-4.1132,-4.0995,-4.0605,-3.9726,-3.8652,-3.7969,-3.7383,-3.6719,-3.6601,-3.6406,-3.6094,-3.6016,-3.6016,-3.6016,-3.6016,-3.6016,-3.6016,-3.5996,-3.5918,-3.5371,-3.4883,-3.4199,-3.3672,-3.3125,-3.2871,-3.2851,-3.2519,-3.2578,-3.2715,-3.25,-3.2109,-3.1758,-3.1601,-3.1406,-3.0957,-3.0957,-3.0957,-3.0976,-3.0918,-3.0918,-3.0918,-3.0918,-3.0918,-3.0918,-3.0918,-3.0918,-3.0937,-3.1406,-3.1797,-3.2187,-3.2985,-3.3823,-3.4638,-3.5419,-3.5819,-3.5733,-3.5609,-3.5534,-3.5507,-3.55,-3.55,-3.55,-3.55,-3.55,-3.55,-3.55,-3.55,-3.55,-3.55,-3.55,-3.55,-3.5474,-3.542,-3.5357,-3.5315,-3.5293,-3.5266,-3.5226,-3.519,-3.5182,-3.5182,-3.5182,-3.5182,-3.5182,-3.5182,-3.5182,-3.5182,-3.5182,-3.5182,-3.5182,-3.5182,-3.5182,-3.5182,-3.5182,-3.5182,-3.5182,-3.5182,-3.5182,-3.5182,-3.5182,-3.5182,-3.5182,-3.5182,-3.5182,-3.5182,-3.5182,-4.061,-4.0776,-4.0914,-4.1006,-4.1076,-4.1112,-4.1117,-4.1117,-4.1108,-4.1111,-4.0819,-4.0059,-3.8809,-3.7715,-3.7246,-3.6641,-3.6074,-3.6016,-3.6016,-3.6016,-3.6016,-3.6016,-3.6016,-3.6016,-3.6016,-3.6016,-3.6016,-3.5957,-3.5781,-3.5391,-3.498,-3.4687,-3.4004,-3.375,-3.3652,-3.3379,-3.3242,-3.3242,-3.3242,-3.2949,-3.2578,-3.25,-3.2148,-3.1719,-3.1387,-3.1328,-3.1445,-3.0996,-3.0918,-3.1289,-3.0996,-3.0918,-3.0918,-3.1191,-3.1328,-3.1523,-3.2031,-3.2656,-3.3027,-3.3592,-3.4157,-3.4894,-3.5446,-3.5902,-3.579,-3.5674,-3.5585,-3.5541,-3.5514,-3.5507,-3.55,-3.55,-3.55,-3.55,-3.55,-3.55,-3.55,-3.55,-3.55,-3.55,-3.5474,-3.5427,-3.5372,-3.5323,-3.5293,-3.5273,-3.5242,-3.5229,-3.5297,-3.5373,-3.5316,-3.5335,-3.5297,-3.5278,-3.522,-3.522,-3.5201,-3.5182,-3.5182,-3.5182,-3.5182,-3.5182,-3.5182,-3.5182,-3.5182,-3.5182,-3.5182,-3.5182,-3.5182,-3.5182,-3.5182,-3.5182,-3.5182,-3.5182,-3.5182,-4.0574,-4.0718,-4.0796,-4.0894,-4.1009,-4.1083,-4.1115,-4.1112,-4.1108,-4.1032,-4.0642,-3.9512,-3.8672,-3.8027,-3.6836,-3.6172,-3.6016,-3.6016,-3.6016,-3.6016,-3.6016,-3.6016,-3.6016,-3.6016,-3.6016,-3.6016,-3.6016,-3.6016,-3.5996,-3.5859,-3.5332,-3.4766,-3.4707,-3.4629,-3.4453,-3.4121,-3.3848,-3.3809,-3.3789,-3.3633,-3.3398,-3.3301,-3.3164,-3.291,-3.2519,-3.2422,-3.3027,-3.1875,-3.1445,-3.2031,-3.1465,-3.125,-3.1426,-3.166,-3.1894,-3.2246,-3.2871,-3.3535,-3.4062,-3.4296,-3.4978,-3.5576,-3.5905,-3.5926,-3.5846,-3.5697,-3.5623,-3.559,-3.5547,-3.5515,-3.5501,-3.55,-3.55,-3.55,-3.55,-3.55,-3.55,-3.55,-3.55,-3.55,-3.5467,-3.542,-3.5537,-3.5546,-3.5354,-3.5334,-3.5635,-3.5641,-3.5763,-3.5821,-3.5621,-3.5545,-3.5469,-3.5411,-3.5316,-3.5335,-3.545,-3.5316,-3.5182,-3.5182,-3.5182,-3.5182,-3.5182,-3.5182,-3.5182,-3.5182,-3.5182,-3.5182,-3.5182,-3.5182,-3.5182,-3.5182,-3.5182,-3.5182,-3.5182,-4.0527,-4.0581,-4.0699,-4.0849,-4.1016,-4.1076,-4.1112,-4.1112,-4.1105,-4.0466,-3.9589,-3.8848,-3.7988,-3.7051,-3.6523,-3.6016,-3.6016,-3.6016,-3.6016,-3.6016,-3.6016,-3.6016,-3.6016,-3.6016,-3.6016,-3.6016,-3.6016,-3.6016,-3.6016,-3.6016,-3.5879,-3.5566,-3.543,-3.5508,-3.5312,-3.5059,-3.4941,-3.4922,-3.4883,-3.4785,-3.4219,-3.4121,-3.3711,-3.2637,-3.3086,-3.2734,-3.2676,-3.2598,-3.2676,-3.2637,-3.2109,-3.2031,-3.2148,-3.2324,-3.2539,-3.2988,-3.375,-3.4336,-3.4629,-3.4785,-3.5115,-3.5752,-3.5949,-3.5942,-3.5899,-3.5813,-3.5741,-3.5664,-3.5596,-3.5559,-3.5546,-3.5522,-3.55,-3.55,-3.55,-3.55,-3.55,-3.55,-3.5467,-3.546,-3.5427,-3.5379,-3.558,-3.5791,-3.556,-3.5387,-3.5753,-3.6099,-3.6279,-3.6432,-3.6337,-3.6298,-3.6279,-3.6126,-3.6042,-3.5927,-3.5793,-3.5507,-3.5259,-3.5182,-3.5182,-3.5182,-3.5182,-3.5182,-3.5182,-3.5182,-3.5182,-3.5182,-3.5182,-3.5182,-3.5182,-3.5182,-3.5182,-3.5182,-3.5182,-4.0496,-4.0512,-4.0655,-4.0795,-4.0944,-4.103,-4.108,-4.1111,-4.1101,-4.0348,-3.8984,-3.8691,-3.7812,-3.666,-3.6094,-3.6016,-3.6016,-3.6016,-3.6016,-3.6016,-3.6016,-3.6016,-3.6016,-3.6016,-3.6016,-3.6016,-3.6016,-3.6016,-3.6016,-3.6016,-3.5957,-3.5937,-3.6016,-3.5957,-3.5957,-3.6016,-3.6016,-3.6016,-3.5937,-3.5781,-3.5117,-3.5039,-3.4805,-3.3613,-3.3809,-3.3867,-3.3574,-3.3496,-3.3437,-3.3398,-3.3144,-3.293,-3.3066,-3.3223,-3.3301,-3.3867,-3.4512,-3.5019,-3.5078,-3.5155,-3.5367,-3.589,-3.5998,-3.598,-3.594,-3.5902,-3.583,-3.5776,-3.5698,-3.5612,-3.5588,-3.5534,-3.5494,-3.55,-3.55,-3.55,-3.55,-3.5481,-3.5441,-3.542,-3.554,-3.5871,-3.6105,-3.643,-3.6635,-3.6449,-3.6632,-3.6929,-3.7063,-3.7215,-3.7292,-3.7292,-3.7311,-3.7139,-3.6948,-3.6576,-3.6214,-3.5889,-3.5602,-3.5239,-3.5182,-3.5239,-3.5239,-3.5182,-3.5182,-3.5182,-3.5182,-3.5201,-3.5201,-3.5182,-3.5182,-3.5182,-3.5182,-3.5182,-3.5182,-4.0496,-4.0512,-4.0636,-4.0746,-4.0824,-4.0944,-4.103,-4.1108,-4.1098,-4.0598,-3.9705,-3.9023,-3.8144,-3.7168,-3.6465,-3.6172,-3.6016,-3.6016,-3.6016,-3.6016,-3.6016,-3.6016,-3.6016,-3.6016,-3.6016,-3.6016,-3.6016,-3.6016,-3.6016,-3.6016,-3.6016,-3.6016,-3.6016,-3.6016,-3.6016,-3.6016,-3.6016,-3.6016,-3.6016,-3.5918,-3.584,-3.5781,-3.5527,-3.5078,-3.4824,-3.4824,-3.4687,-3.4258,-3.4238,-3.4434,-3.3828,-3.3613,-3.375,-3.418,-3.4394,-3.4687,-3.543,-3.584,-3.5937,-3.5937,-3.5952,-3.597,-3.6019,-3.6007,-3.5983,-3.5945,-3.5899,-3.5858,-3.5741,-3.5659,-3.5604,-3.5553,-3.5522,-3.5508,-3.5515,-3.5635,-3.5654,-3.5788,-3.5806,-3.6123,-3.6415,-3.6688,-3.6875,-3.7124,-3.7577,-3.7702,-3.7683,-3.7789,-3.798,-3.819,-3.8362,-3.8419,-3.8438,-3.8075,-3.7769,-3.7092,-3.6634,-3.6309,-3.6126,-3.5954,-3.5679,-3.5621,-3.5545,-3.5354,-3.522,-3.5259,-3.5239,-3.522,-3.5201,-3.5182,-3.5182,-3.5182,-3.5182,-3.5182,-3.5182,-4.0496,-4.0496,-4.0557,-4.0623,-4.0762,-4.0922,-4.1047,-4.1088,-4.1062,-4.0639,-3.9978,-3.9531,-3.8594,-3.7559,-3.6953,-3.6484,-3.6055,-3.6016,-3.6016,-3.6016,-3.6016,-3.6016,-3.6016,-3.6016,-3.6016,-3.6016,-3.6016,-3.6016,-3.6016,-3.6016,-3.6016,-3.6016,-3.6016,-3.6016,-3.6016,-3.6016,-3.6016,-3.6016,-3.6016,-3.5996,-3.6016,-3.5976,-3.5762,-3.5293,-3.5371,-3.5449,-3.5391,-3.4844,-3.5137,-3.5312,-3.4648,-3.4512,-3.4707,-3.5117,-3.498,-3.5351,-3.5976,-3.5996,-3.6016,-3.5994,-3.5991,-3.6008,-3.6021,-3.6012,-3.6009,-3.5985,-3.5956,-3.5945,-3.584,-3.5791,-3.5791,-3.5649,-3.5593,-3.5571,-3.5643,-3.5931,-3.6077,-3.6288,-3.6486,-3.7064,-3.7483,-3.783,-3.8097,-3.8178,-3.8542,-3.8744,-3.8744,-3.8992,-3.9221,-3.947,-3.9652,-3.9661,-3.9584,-3.9145,-3.8648,-3.8009,-3.7512,-3.7254,-3.7177,-3.7139,-3.6814,-3.6298,-3.6394,-3.6489,-3.5897,-3.5335,-3.5392,-3.5411,-3.5239,-3.5182,-3.5182,-3.5182,-3.5182,-3.5182,-3.5182,-4.0496,-4.0496,-4.0496,-4.0566,-4.0699,-4.0857,-4.0989,-4.1087,-4.1083,-4.0659,-3.9958,-3.959,-3.8672,-3.7539,-3.6953,-3.668,-3.6016,-3.6016,-3.6016,-3.6016,-3.6016,-3.6016,-3.6016,-3.6016,-3.6016,-3.6016,-3.6016,-3.6016,-3.6016,-3.6016,-3.6016,-3.6016,-3.6016,-3.6016,-3.6016,-3.6016,-3.6016,-3.6016,-3.6016,-3.6016,-3.6016,-3.5937,-3.5762,-3.5547,-3.5566,-3.5762,-3.5488,-3.5625,-3.6016,-3.5801,-3.5625,-3.5391,-3.5625,-3.5625,-3.543,-3.5859,-3.6016,-3.6016,-3.6016,-3.6013,-3.601,-3.6008,-3.6018,-3.6012,-3.6012,-3.6009,-3.6009,-3.598,-3.5936,-3.5919,-3.5872,-3.5726,-3.5655,-3.5639,-3.5753,-3.6035,-3.6543,-3.6755,-3.7084,-3.7701,-3.8366,-3.8799,-3.9209,-3.9392,-3.9556,-3.968,-3.9794,-4.0014,-4.0186,-4.0244,-4.032,-4.0263,-4.0225,-3.9804,-3.9365,-3.8945,-3.8534,-3.819,-3.8056,-3.796,-3.7578,-3.7043,-3.7349,-3.7445,-3.6623,-3.5965,-3.5736,-3.5621,-3.5316,-3.5182,-3.5182,-3.5182,-3.5182,-3.5182,-3.5182,-4.0496,-4.0496,-4.0496,-4.0586,-4.07,-4.0771,-4.0935,-4.1109,-4.1103,-4.0638,-3.9877,-3.9121,-3.8281,-3.7305,-3.6504,-3.6133,-3.6016,-3.6016,-3.6016,-3.6016,-3.6016,-3.6016,-3.6016,-3.6016,-3.6016,-3.6016,-3.6016,-3.6016,-3.6016,-3.6016,-3.6016,-3.6016,-3.6016,-3.6016,-3.6016,-3.6016,-3.6016,-3.6016,-3.6016,-3.6016,-3.6016,-3.5996,-3.5918,-3.584,-3.5898,-3.5957,-3.584,-3.5976,-3.6016,-3.5976,-3.5957,-3.5957,-3.5996,-3.6016,-3.5996,-3.5996,-3.6016,-3.6016,-3.6015,-3.6012,-3.6009,-3.6006,-3.6017,-3.6013,-3.6012,-3.6012,-3.6012,-3.6006,-3.5968,-3.5931,-3.5883,-3.5797,-3.5725,-3.5741,-3.5791,-3.6248,-3.6872,-3.725,-3.7595,-3.8173,-3.8923,-3.9435,-3.9846,-4.0127,-4.0022,-4.0071,-4.009,-4.0129,-4.0263,-4.0263,-4.032,-4.032,-4.0282,-4.0301,-3.9957,-3.9556,-3.9403,-3.903,-3.8629,-3.8438,-3.8056,-3.796,-3.8171,-3.8018,-3.7158,-3.6481,-3.5812,-3.545,-3.5259,-3.5182,-3.5201,-3.5182,-3.5182,-3.5182,-3.5182,-4.0496,-4.0496,-4.0496,-4.0519,-4.0581,-4.0735,-4.0909,-4.1087,-4.1103,-4.0658,-3.9877,-3.9648,-3.8516,-3.7324,-3.7031,-3.6523,-3.6191,-3.6016,-3.6016,-3.6016,-3.6016,-3.6016,-3.6016,-3.6016,-3.6016,-3.6016,-3.6016,-3.6016,-3.6016,-3.6016,-3.6016,-3.6016,-3.6016,-3.6016,-3.6016,-3.6016,-3.6016,-3.6016,-3.6016,-3.6016,-3.6016,-3.6016,-3.6016,-3.6016,-3.6016,-3.6016,-3.6016,-3.6016,-3.6016,-3.6016,-3.6016,-3.6016,-3.6016,-3.6016,-3.5996,-3.5996,-3.6016,-3.6015,-3.6014,-3.6012,-3.6009,-3.6003,-3.6016,-3.6013,-3.6012,-3.6012,-3.6012,-3.6006,-3.5981,-3.597,-3.596,-3.5894,-3.5827,-3.584,-3.6087,-3.6778,-3.7424,-3.8098,-3.8479,-3.9178,-3.9887,-3.9895,-4.0339,-4.0313,-4.0227,-4.0279,-4.0328,-4.0319,-4.032,-4.031,-4.032,-4.032,-4.032,-4.032,-4.032,-4.0014,-3.9976,-3.9843,-3.9412,-3.9183,-3.9221,-3.9164,-3.9107,-3.8686,-3.7941,-3.6719,-3.5458,-3.5324,-3.5469,-3.5259,-3.5229,-3.5201,-3.5182,-3.5182,-3.5182,-4.0496,-4.0496,-4.0496,-4.0534,-4.0602,-4.0735,-4.0894,-4.1005,-4.0765,-4.0324,-3.9838,-3.91,-3.8281,-3.7383,-3.6894,-3.6445,-3.6035,-3.6016,-3.6016,-3.6016,-3.5957,-3.6016,-3.6016,-3.5996,-3.6016,-3.6016,-3.6016,-3.6016,-3.5976,-3.5996,-3.6016,-3.6016,-3.6016,-3.6016,-3.6016,-3.6016,-3.6016,-3.6016,-3.6016,-3.6016,-3.6016,-3.6016,-3.6016,-3.6016,-3.6016,-3.6016,-3.6016,-3.6016,-3.6016,-3.6016,-3.6016,-3.6016,-3.6016,-3.6016,-3.6016,-3.6016,-3.6016,-3.6016,-3.6013,-3.6012,-3.6008,-3.6022,-3.6014,-3.6013,-3.6012,-3.6012,-3.6012,-3.6009,-3.601,-3.6009,-3.5983,-3.5976,-3.5966,-3.5938,-3.666,-3.7369,-3.8162,-3.8967,-3.9655,-4.0359,-4.0556,-4.0446,-4.046,-4.0425,-4.0372,-4.0377,-4.0368,-4.0358,-4.0335,-4.032,-4.031,-4.032,-4.032,-4.032,-4.032,-4.032,-4.0225,-4.0167,-4.0072,-3.9938,-4.0167,-3.9976,-3.9603,-3.9221,-3.8801,-3.754,-3.6298,-3.5889,-3.5832,-3.5641,-3.5392,-3.5259,-3.522,-3.5182,-3.5182,-4.0496,-4.0496,-4.0496,-4.0564,-4.0668,-4.0639,-4.0703,-4.0757,-3.9967,-3.9716,-3.9408,-3.8064,-3.7382,-3.6934,-3.6445,-3.6191,-3.6016,-3.6016,-3.6016,-3.5976,-3.5723,-3.5762,-3.5937,-3.5918,-3.582,-3.5898,-3.5859,-3.5644,-3.584,-3.5937,-3.6016,-3.6016,-3.6016,-3.6016,-3.6016,-3.6016,-3.6016,-3.6016,-3.6016,-3.6016,-3.6016,-3.6016,-3.6016,-3.6016,-3.6016,-3.6016,-3.6016,-3.6016,-3.6016,-3.6016,-3.6016,-3.6016,-3.6016,-3.6016,-3.6016,-3.6016,-3.6016,-3.6016,-3.6012,-3.601,-3.6005,-3.6018,-3.6012,-3.6012,-3.6012,-3.6012,-3.6012,-3.6012,-3.6012,-3.6012,-3.6006,-3.6025,-3.604,-3.6464,-3.7167,-3.7946,-3.8747,-3.9494,-4.0155,-4.0676,-4.0686,-4.0616,-4.0602,-4.0563,-4.0544,-4.0481,-4.045,-4.0442,-4.0415,-4.0394,-4.0345,-4.0346,-4.032,-4.032,-4.032,-4.032,-4.032,-4.0301,-4.032,-4.0301,-4.0244,-4.011,-3.9957,-3.9451,-3.8897,-3.8438,-3.7578,-3.7005,-3.6451,-3.6175,-3.587,-3.543,-3.5286,-3.5313,-3.5182,-4.0496,-4.0496,-4.0496,-4.0519,-4.047,-4.0012,-3.9868,-3.9727,-3.8445,-3.8384,-3.8607,-3.781,-3.6933,-3.6367,-3.6172,-3.6016,-3.6016,-3.6016,-3.6016,-3.5781,-3.5488,-3.5664,-3.5742,-3.5449,-3.5469,-3.5586,-3.5469,-3.5176,-3.5391,-3.5703,-3.6016,-3.6016,-3.6016,-3.6016,-3.6016,-3.6016,-3.5996,-3.5859,-3.5859,-3.5801,-3.5723,-3.5918,-3.6016,-3.6016,-3.6016,-3.6016,-3.6016,-3.6016,-3.6016,-3.6016,-3.6016,-3.6016,-3.6016,-3.6016,-3.6016,-3.6016,-3.6015,-3.6014,-3.6011,-3.6008,-3.6002,-3.6016,-3.6012,-3.6012,-3.6012,-3.6012,-3.6012,-3.6012,-3.6012,-3.6012,-3.6031,-3.607,-3.6264,-3.6946,-3.7684,-3.8498,-3.9334,-3.9989,-4.0626,-4.0707,-4.0752,-4.074,-4.0732,-4.0726,-4.0707,-4.069,-4.0666,-4.0641,-4.0623,-4.0578,-4.0462,-4.0436,-4.0327,-4.0319,-4.0319,-4.0364,-4.0381,-4.0345,-4.0345,-4.0337,-4.0329,-4.0251,-4.0104,-3.9459,-3.8877,-3.872,-3.844,-3.774,-3.7243,-3.699,-3.6561,-3.6203,-3.5763,-3.5675,-3.5406,-4.0285,-3.9977,-3.9977,-3.9958,-3.9971,-4.0015,-3.9679,-3.8917,-3.8183,-3.7912,-3.7882,-3.7145,-3.6444,-3.6016,-3.6016,-3.6016,-3.6016,-3.6016,-3.6016,-3.5781,-3.5508,-3.5703,-3.5508,-3.5098,-3.5078,-3.5176,-3.5019,-3.4883,-3.5195,-3.5625,-3.6016,-3.6016,-3.6016,-3.6016,-3.6016,-3.5976,-3.5762,-3.543,-3.5469,-3.5273,-3.5195,-3.5469,-3.5937,-3.6016,-3.5996,-3.6016,-3.6016,-3.6016,-3.6016,-3.6016,-3.6016,-3.6016,-3.6016,-3.6016,-3.6016,-3.6016,-3.6015,-3.6013,-3.6011,-3.6006,-3.6021,-3.6014,-3.6012,-3.6012,-3.6012,-3.6012,-3.6012,-3.6012,-3.6012,-3.6012,-3.6012,-3.6051,-3.648,-3.7084,-3.7982,-3.8878,-3.9774,-4.0598,-4.0883,-4.0871,-4.0874,-4.0833,-4.0839,-4.0852,-4.0844,-4.0786,-4.0762,-4.0786,-4.0762,-4.0772,-4.0654,-4.0563,-4.0503,-4.0441,-4.0449,-4.0481,-4.0477,-4.0449,-4.0402,-4.0427,-4.0452,-4.0444,-4.0236,-3.9808,-3.9597,-3.9626,-3.9234,-3.8613,-3.8369,-3.822,-3.7644,-3.7052,-3.66,-3.6278,-3.6408,-3.9861,-3.9188,-3.9265,-3.9323,-3.9398,-4.0056,-3.9612,-3.8447,-3.8198,-3.7771,-3.7116,-3.638,-3.6052,-3.6016,-3.6016,-3.6016,-3.6016,-3.6016,-3.6016,-3.5898,-3.5527,-3.5605,-3.541,-3.5019,-3.4805,-3.4863,-3.4961,-3.5195,-3.5527,-3.5859,-3.6016,-3.6016,-3.6016,-3.6016,-3.5976,-3.5781,-3.5469,-3.4961,-3.4648,-3.416,-3.4414,-3.4902,-3.5488,-3.5781,-3.5937,-3.5996,-3.6016,-3.6016,-3.6016,-3.6016,-3.6016,-3.6016,-3.6016,-3.6016,-3.6016,-3.6015,-3.6014,-3.6012,-3.6009,-3.6004,-3.6018,-3.6013,-3.6012,-3.6012,-3.6012,-3.6012,-3.6012,-3.6012,-3.6012,-3.6031,-3.6031,-3.6305,-3.6792,-3.7516,-3.8494,-3.9352,-4.0288,-4.1049,-4.1042,-4.1003,-4.0968,-4.0932,-4.0896,-4.0926,-4.0912,-4.0859,-4.0848,-4.0882,-4.089,-4.0902,-4.085,-4.081,-4.0762,-4.0713,-4.0617,-4.059,-4.0604,-4.057,-4.0547,-4.0568,-4.0581,-4.053,-4.0508,-4.0506,-4.0359,-4.0217,-4.0106,-3.9669,-3.9502,-3.9178,-3.8647,-3.7954,-3.7567,-3.7383,-3.7803,-3.9027,-3.8315,-3.8996,-3.9304,-3.9256,-3.8884,-3.8484,-3.8106,-3.6962,-3.6323,-3.6312,-3.6184,-3.6012,-3.6015,-3.6016,-3.6016,-3.6016,-3.5996,-3.5996,-3.5937,-3.5078,-3.5215,-3.5234,-3.4707,-3.4316,-3.4609,-3.5117,-3.5391,-3.5605,-3.5859,-3.6016,-3.6016,-3.6016,-3.5976,-3.5879,-3.5566,-3.5059,-3.4609,-3.4082,-3.3613,-3.3809,-3.4277,-3.4766,-3.5176,-3.5625,-3.5859,-3.6016,-3.6016,-3.6016,-3.6016,-3.6016,-3.6016,-3.6015,-3.6015,-3.6015,-3.6014,-3.6012,-3.601,-3.6006,-3.6021,-3.6014,-3.6013,-3.6012,-3.6012,-3.6012,-3.6012,-3.6012,-3.6012,-3.6031,-3.609,-3.6207,-3.6753,-3.7301,-3.8434,-3.947,-4.0153,-4.0932,-4.1088,-4.108,-4.107,-4.1068,-4.0964,-4.0847,-4.0871,-4.0869,-4.0835,-4.0813,-4.0852,-4.1003,-4.1025,-4.1022,-4.0995,-4.0983,-4.0871,-4.0731,-4.0729,-4.0724,-4.0696,-4.0672,-4.0678,-4.0661,-4.0602,-4.0595,-4.0675,-4.0649,-4.0526,-4.0409,-4.0319,-4.003,-3.9644,-3.9341,-3.8896,-3.8531,-3.8446,-3.8838]},{"header":{"parameterUnit":"m.s-1","parameterCategory":1,"la1":31.0,"la2":29.5877,"lo1":-88.7671,"lo2":-86.6584,"dy":0.0162,"dx":0.0185,"nx":115,"ny":88,"refTime":"2026-04-15T12:00:00:Z","depth":0,"parameterNumber":3,"parameterNumberName":"V-component_of_WINDS"},"data":[0.0,0.0,0.0,0.0,0.0,0.0,0.0,0.0,0.0,0.0,0.0,0.0,0.0,0.0,0.0,0.0,0.0,0.0,0.0,0.0,0.0,0.0,0.0,0.0,0.0,0.0,0.0,0.0,0.0,0.0,0.0,0.0,0.0,0.0,0.0,0.0,0.0,0.0,0.0,0.0,0.0,0.0,0.0,0.0,0.0,0.0,0.0,0.0,0.0,0.0,0.0,0.0,0.0,0.0,0.0,0.0,0.0,0.0,0.0,0.0,0.0,0.0,0.0,0.0,0.0,0.0,0.0,0.0,0.0,0.0,0.0,0.0,0.0,0.0,0.0,0.0,0.0,0.0,0.0,0.0,0.0,0.0,0.0,0.0,0.0,0.0,0.0,0.0,0.0,0.0,0.0,0.0,0.0,0.0,0.0,0.0,0.0,0.0,0.0,0.0,0.0,0.0,0.0,0.0,0.0,0.0,0.0,0.0,0.0,0.0,0.0,0.0,0.0,0.0,0.0,0.0,0.0,0.0,0.0,0.0,0.0,0.0,0.0,0.0,0.0,0.0,0.0,0.0,0.0,0.0,0.0,0.0,0.0,0.0,0.0,0.0,0.0,0.0,0.0,0.0,0.0,0.0,0.0,0.0,0.0,0.0,0.0,0.0,0.0,0.0,0.0,0.0,0.0,0.0,0.0,0.0,0.0,0.0,0.0,0.0,0.0,0.0,0.0,0.0,0.0,0.0,0.0,0.0,0.0,0.0,0.0,0.0,0.0,0.0,0.0,0.0,0.0,0.0,0.0,0.0,0.0,0.0,0.0,0.0,0.0,0.0,0.0,0.0,0.0,0.0,0.0,0.0,0.0,0.0,0.0,0.0,0.0,0.0,0.0,0.0,0.0,0.0,0.0,0.0,0.0,0.0,0.0,0.0,0.0,0.0,0.0,0.0,0.0,0.0,0.0,0.0,0.0,0.0,0.0,0.0,0.0,0.0,0.0,0.0,0.0,0.0,0.0,0.0,0.0,0.0,0.0,0.0,0.0,0.0,0.0,0.0,0.0,0.0,0.0,0.0,0.0,0.0,0.0,0.0,0.0,0.0,0.0,0.0,0.0,0.0,0.0,0.0,0.0,0.0,0.0,0.0,0.0,0.0,0.0,0.0,0.0,0.0,0.0,0.0,0.0,0.0,0.0,0.0,0.0,0.0,0.0,0.0,0.0,0.0,0.0,0.0,0.0,0.0,0.0,0.0,0.0,0.0,0.0,0.0,0.0,0.0,0.0,0.0,0.0,0.0,0.0,0.0,0.0,0.0,0.0,0.0,0.0,0.0,0.0,0.0,0.0,0.0,0.0,0.0,0.0,0.0,0.0,0.0,0.0,0.0,0.0,0.0,0.0,0.0,0.0,0.0,0.0,0.0,0.0,0.0,0.0,0.0,0.0,0.0,0.0,0.0,0.0,0.0,0.0,0.0,0.0,0.0,0.0,0.0,0.0,0.0,0.0,0.0,0.0,0.0,0.0,0.0,0.0,0.0,0.0,0.0,0.0,0.0,0.0,0.0,0.0,0.0,0.0,0.0,0.0,0.0,0.0,0.0,0.0,0.0,0.0,0.0,0.0,0.0,0.0,0.0,0.0,0.0,0.0,0.0,0.0,0.0,0.0,0.0,0.0,0.0,0.0,0.0,0.0,0.0,0.0,0.0,0.0,0.0,0.0,0.0,0.0,0.0,0.0,0.0,0.0,0.0,0.0,0.0,0.0,0.0,0.0,0.0,0.0,0.0,0.0,0.0,0.0,0.0,0.0,0.0,0.0,0.0,0.0,0.0,0.0,0.0,0.0,0.0,0.0,0.0,0.0,0.0,0.0,0.0,0.0,0.0,0.0,0.0,0.0,0.0,0.0,0.0,0.0,0.0,0.0,0.0,0.0,0.0,0.0,0.0,0.0,0.0,0.0,0.0,0.0,0.0,0.0,0.0,0.0,0.0,0.0,0.0,0.0,0.0,0.0,0.0,0.0,0.0,0.0,0.0,0.0,0.0,0.0,0.0,0.0,0.0,0.0,0.0,0.0,0.0,0.0,0.0,0.0,0.0,0.0,0.0,0.0,0.0,0.0,0.0,0.0,0.0,0.0,0.0,0.0,0.0,0.0,0.0,0.0,0.0,0.0,0.0,0.0,0.0,0.0,0.0,0.0,0.0,0.0,0.0,0.0,0.0,0.0,0.0,0.0,0.0,0.0,0.0,0.0,0.0,0.0,0.0,0.0,0.0,0.0,0.0,0.0,0.0,0.0,0.0,0.0,0.0,0.0,0.0,0.0,0.0,0.0,0.0,0.0,0.0,0.0,0.0,0.0,0.0,0.0,0.0,0.0,0.0,0.0,0.0,0.0,0.0,0.0,0.0,0.0,0.0,0.0,0.0,0.0,0.0,0.0,0.0,0.0,0.0,0.0,0.0,0.0,0.0,0.0,0.0,0.0,0.0,0.0,0.0,0.0,0.0,0.0,0.0,0.0,0.0,0.0,0.0,0.0,0.0,0.0,0.0,0.0,0.0,0.0,0.0,0.0,0.0,0.0,0.0,0.0,0.0,0.0,0.0,0.0,0.0,0.0,0.0,0.0,0.0,0.0,0.0,0.0,0.0,0.0,0.0,0.0,0.0,0.0,0.0,0.0,0.0,0.0,0.0,0.0,0.0,0.0,0.0,0.0,0.0,0.0,0.0,0.0,0.0,0.0,0.0,0.0,0.0,0.0,0.0,0.0,0.0,0.0,0.0,0.0,0.0,0.0,0.0,0.0,0.0,0.0,0.0,0.0,0.0,0.0,0.0,0.0,0.0,0.0,0.0,0.0,0.0,0.0,0.0,0.0,0.0,0.0,0.0,0.0,0.0,0.0,0.0,0.0,0.0,0.0,0.0,0.0,0.0,0.0,0.0,0.0,0.0,0.0,0.0,0.0,0.0,0.0,0.0,0.0,0.0,0.0,0.0,0.0,0.0,0.0,0.0,0.0,0.0,0.0,0.0,0.0,0.0,0.0,0.0,0.0,0.0,0.0,0.0,0.0,0.0,0.0,0.0,0.0,0.0,0.0,0.0,0.0,0.0,0.0,0.0,0.0,0.0,0.0,0.0,0.0,0.0,0.0,0.0,0.0,0.0,0.0,0.0,0.0,0.0,0.0,0.0,0.0,0.0,0.0,0.0,0.0,0.0,0.0,0.0,0.0,0.0,0.0,0.0,0.0,0.0,0.0,0.0,0.0,0.0,0.0,0.0,0.0,0.0,0.0,0.0,0.0,0.0,0.0,0.0,0.0,0.0,0.0,0.0,0.0,0.0,0.0,0.0,0.0,0.0,0.0,0.0,0.0,0.0,0.0,0.0,0.0,0.0,0.0,0.0,0.0,0.0,0.0,0.0,0.0,0.0,0.0,0.0,0.0,0.0,0.0,0.0,0.0,0.0,0.0,0.0,0.0,0.0,0.0,0.0,0.0,0.0,0.0,0.0,0.0,0.0,0.0,0.0,0.0,0.0,0.0,0.0,0.0,0.0,0.0,0.0,0.0,0.0,0.0,0.0,0.0,0.0,0.0,0.0,0.0,0.0,0.0,0.0,0.0,0.0,0.0,0.0,0.0,0.0,0.0,0.0,0.0,0.0,0.0,0.0,0.0,0.0,0.0,0.0,0.0,0.0,0.0,0.0,0.0,0.0,0.0,0.0,0.0,0.0,0.0,0.0,0.0,0.0,0.0,0.0,0.0,0.0,0.0,0.0,0.0,0.0,0.0,0.0,0.0,0.0,0.0,0.0,0.0,0.0,0.0,0.0,0.0,0.0,0.0,0.0,0.0,0.0,0.0,0.0,0.0,0.0,0.0,0.0,0.0,0.0,0.0,0.0,0.0,0.0,0.0,0.0,0.0,0.0,0.0,0.0,0.0,0.0,0.0,0.0,0.0,0.0,0.0,0.0,0.0,0.0,0.0,0.0,0.0,0.0,0.0,0.0,0.0,0.0,0.0,0.0,0.0,0.0,0.0,0.0,0.0,0.0,0.0,0.0,0.0,0.0,0.0,0.0,0.0,0.0,0.0,0.0,0.0,0.0,0.0,0.0,0.0,0.0,0.0,0.0,0.0,0.0,0.0,0.0,0.0,0.0,0.0,0.0,0.0,0.0,0.0,0.0,0.0,0.0,0.0,0.0,0.0,0.0,0.0,0.0,0.0,0.0,0.0,0.0,0.0,0.0,0.0,0.0,0.0,0.0,0.0,0.0,0.0,0.0,0.0,0.0,0.0,0.0,-1.0104,0.0,0.0,0.0,0.0,0.0,0.0,0.0,0.0,0.0,0.0,0.0,0.0,0.0,0.0,0.0,0.0,0.0,0.0,0.0,0.0,0.0,0.0,0.0,0.0,0.0,0.0,0.0,0.0,0.0,0.0,0.0,0.0,0.0,0.0,0.0,0.0,0.0,0.0,0.0,0.0,0.0,0.0,0.0,0.0,0.0,0.0,0.0,0.0,0.0,0.0,0.0,0.0,0.0,0.0,0.0,0.0,0.0,0.0,0.0,0.0,0.0,0.0,0.0,0.0,0.0,0.0,0.0,0.0,0.0,0.0,0.0,0.0,0.0,0.0,0.0,0.0,0.0,0.0,0.0,0.0,0.0,0.0,0.0,0.0,0.0,0.0,0.0,0.0,0.0,0.0,0.0,0.0,0.0,0.0,0.0,0.0,0.0,0.0,0.0,0.0,0.0,0.0,0.0,0.0,0.0,0.0,0.0,0.0,0.0,0.0,-0.8937,-0.8937,-0.8937,-0.9008,-0.922,0.0,0.0,0.0,0.0,0.0,0.0,0.0,0.0,0.0,0.0,0.0,0.0,0.0,0.0,0.0,0.0,0.0,0.0,0.0,0.0,0.0,0.0,0.0,0.0,0.0,0.0,0.0,0.0,0.0,0.0,0.0,0.0,0.0,0.0,0.0,0.0,0.0,0.0,0.0,0.0,0.0,0.0,0.0,0.0,0.0,0.0,0.0,0.0,0.0,0.0,0.0,0.0,0.0,0.0,0.0,0.0,0.0,0.0,0.0,0.0,0.0,0.0,0.0,0.0,0.0,0.0,0.0,0.0,0.0,0.0,0.0,0.0,0.0,0.0,0.0,0.0,0.0,0.0,0.0,0.0,0.0,0.0,0.0,0.0,0.0,0.0,0.0,0.0,0.0,0.0,0.0,0.0,0.0,0.0,0.0,0.0,0.0,0.0,0.0,0.0,0.0,0.0,0.0,0.0,0.0,0.0,0.0,0.0,0.0,0.0,0.0,0.0,-0.8937,-0.9063,-0.9321,0.0,0.0,0.0,0.0,0.0,0.0,0.0,0.0,0.0,0.0,0.0,0.0,0.0,0.0,0.0,0.0,0.0,0.0,0.0,0.0,0.0,0.0,0.0,0.0,0.0,0.0,0.0,0.0,0.0,0.0,0.0,0.0,0.0,0.0,0.0,0.0,0.0,0.0,0.0,0.0,0.0,0.0,0.0,0.0,0.0,0.0,0.0,0.0,0.0,0.0,0.0,0.0,0.0,0.0,0.0,0.0,0.0,0.0,0.0,0.0,0.0,0.0,0.0,0.0,0.0,0.0,0.0,0.0,0.0,0.0,0.0,0.0,0.0,0.0,0.0,0.0,0.0,0.0,0.0,0.0,0.0,0.0,0.0,0.0,0.0,0.0,0.0,0.0,0.0,0.0,0.0,0.0,0.0,0.0,0.0,0.0,0.0,0.0,0.0,0.0,0.0,0.0,0.0,0.0,0.0,0.0,0.0,0.0,0.0,0.0,-0.8937,-0.8937,-0.8881,0.0,-1.1545,0.0,0.0,0.0,0.0,0.0,0.0,0.0,0.0,0.0,0.0,0.0,0.0,0.0,0.0,0.0,0.0,0.0,0.0,0.0,0.0,0.0,0.0,0.0,0.0,0.0,0.0,0.0,0.0,0.0,0.0,0.0,0.0,0.0,0.0,0.0,0.0,0.0,0.0,0.0,0.0,0.0,0.0,0.0,0.0,0.0,0.0,0.0,0.0,0.0,0.0,0.0,0.0,0.0,0.0,0.0,0.0,0.0,0.0,0.0,0.0,0.0,0.0,0.0,0.0,0.0,0.0,0.0,0.0,0.0,0.0,0.0,0.0,0.0,0.0,0.0,0.0,0.0,0.0,0.0,0.0,0.0,0.0,0.0,0.0,0.0,0.0,0.0,0.0,0.0,0.0,0.0,0.0,0.0,0.0,0.0,0.0,0.0,0.0,0.0,0.0,0.0,0.0,0.0,0.0,0.0,0.0,0.0,0.0,0.0,0.0,-0.8937,-0.8937,-0.8764,-0.9814,0.0,0.0,0.0,0.0,0.0,0.0,0.0,0.0,0.0,0.0,0.0,0.0,0.0,0.0,0.0,0.0,0.0,0.0,0.0,0.0,0.0,0.0,0.0,0.0,0.0,0.0,0.0,0.0,0.0,0.0,0.0,0.0,0.0,0.0,0.0,0.0,0.0,0.0,0.0,0.0,0.0,0.0,0.0,0.0,0.0,0.0,0.0,0.0,0.0,0.0,0.0,0.0,0.0,0.0,0.0,0.0,0.0,0.0,0.0,0.0,0.0,0.0,0.0,0.0,0.0,0.0,0.0,0.0,0.0,0.0,0.0,0.0,0.0,0.0,0.0,0.0,0.0,0.0,0.0,0.0,0.0,0.0,0.0,0.0,0.0,0.0,0.0,0.0,0.0,0.0,0.0,0.0,0.0,0.0,0.0,0.0,0.0,0.0,0.0,0.0,0.0,0.0,0.0,0.0,0.0,0.0,0.0,0.0,0.0,0.0,-0.8937,-0.8865,-0.8814,-0.8703,-0.9643,-1.1806,0.0,0.0,0.0,0.0,0.0,0.0,0.0,0.0,0.0,0.0,0.0,0.0,0.0,0.0,0.0,0.0,0.0,0.0,0.0,0.0,0.0,0.0,0.0,0.0,0.0,0.0,0.0,0.0,0.0,0.0,0.0,0.0,0.0,0.0,0.0,0.0,0.0,0.0,0.0,0.0,0.0,0.0,0.0,0.0,0.0,0.0,0.0,0.0,0.0,0.0,0.0,0.0,0.0,0.0,0.0,0.0,0.0,0.0,0.0,0.0,0.0,0.0,0.0,0.0,0.0,0.0,0.0,0.0,0.0,0.0,0.0,0.0,0.0,0.0,0.0,0.0,0.0,0.0,0.0,0.0,0.0,0.0,0.0,0.0,0.0,0.0,0.0,0.0,0.0,0.0,0.0,0.0,0.0,0.0,0.0,0.0,0.0,0.0,0.0,0.0,0.0,0.0,0.0,0.0,0.0,0.0,0.0,0.0,-0.8937,-0.8937,-0.8814,-0.8733,-0.8794,-0.9463,0.0,0.0,0.0,0.0,0.0,0.0,0.0,0.0,0.0,0.0,0.0,0.0,0.0,0.0,0.0,0.0,0.0,0.0,0.0,0.0,0.0,0.0,0.0,0.0,0.0,0.0,0.0,0.0,0.0,0.0,0.0,0.0,0.0,0.0,0.0,0.0,0.0,0.0,0.0,0.0,0.0,0.0,0.0,0.0,0.0,0.0,0.0,0.0,0.0,0.0,0.0,0.0,0.0,0.0,0.0,0.0,0.0,0.0,0.0,0.0,0.0,0.0,0.0,0.0,0.0,0.0,0.0,0.0,0.0,0.0,0.0,0.0,0.0,0.0,0.0,0.0,0.0,0.0,0.0,0.0,0.0,0.0,0.0,0.0,0.0,0.0,0.0,0.0,0.0,0.0,0.0,0.0,0.0,0.0,0.0,0.0,0.0,0.0,0.0,0.0,0.0,0.0,0.0,0.0,0.0,0.0,0.0,0.0,0.0,-0.8937,-0.8937,-0.8858,-0.8855,-0.8888,-0.9467,0.0,0.0,0.0,0.0,0.0,0.0,0.0,0.0,0.0,0.0,0.0,0.0,0.0,0.0,0.0,0.0,0.0,0.0,0.0,0.0,0.0,0.0,0.0,0.0,0.0,0.0,0.0,0.0,0.0,0.0,0.0,0.0,0.0,0.0,0.0,0.0,0.0,0.0,0.0,0.0,0.0,0.0,0.0,0.0,0.0,0.0,0.0,0.0,0.0,0.0,0.0,0.0,0.0,0.0,0.0,0.0,0.0,0.0,0.0,0.0,0.0,0.0,0.0,0.0,0.0,0.0,0.0,0.0,0.0,0.0,0.0,0.0,0.0,0.0,0.0,0.0,0.0,0.0,0.0,0.0,0.0,0.0,0.0,0.0,0.0,0.0,0.0,0.0,0.0,0.0,0.0,0.0,0.0,0.0,0.0,0.0,0.0,0.0,0.0,0.0,0.0,0.0,0.0,0.0,0.0,0.0,0.0,0.0,0.0,-0.8811,0.0,-0.8861,-0.8807,-0.8937,-0.9504,0.0,0.0,0.0,0.0,0.0,0.0,0.0,0.0,0.0,0.0,0.0,0.0,0.0,0.0,0.0,0.0,0.0,0.0,0.0,0.0,0.0,0.0,0.0,0.0,0.0,0.0,0.0,0.0,0.0,0.0,0.0,0.0,0.0,0.0,0.0,0.0,0.0,0.0,0.0,0.0,0.0,0.0,0.0,0.0,0.0,0.0,0.0,0.0,0.0,0.0,0.0,0.0,0.0,0.0,0.0,0.0,0.0,0.0,0.0,0.0,0.0,0.0,0.0,0.0,0.0,0.0,0.0,0.0,0.0,0.0,0.0,0.0,0.0,0.0,0.0,0.0,0.0,0.0,0.0,0.0,0.0,0.0,0.0,0.0,0.0,0.0,0.0,0.0,0.0,0.0,0.0,0.0,0.0,0.0,0.0,0.0,0.0,0.0,0.0,0.0,0.0,0.0,0.0,0.0,0.0,0.0,0.0,0.0,-0.871,-0.8716,-0.8862,-0.8876,-0.8723,-0.8975,-0.9561,0.0,0.0,0.0,0.0,0.0,0.0,0.0,0.0,0.0,0.0,0.0,0.0,0.0,0.0,0.0,0.0,0.0,0.0,0.0,0.0,0.0,0.0,0.0,0.0,0.0,0.0,0.0,0.0,0.0,0.0,0.0,0.0,0.0,0.0,0.0,0.0,0.0,0.0,0.0,0.0,0.0,0.0,0.0,0.0,0.0,0.0,0.0,0.0,0.0,0.0,0.0,0.0,0.0,0.0,0.0,0.0,0.0,0.0,0.0,0.0,0.0,0.0,0.0,0.0,0.0,0.0,0.0,0.0,0.0,0.0,0.0,0.0,0.0,0.0,0.0,0.0,0.0,0.0,0.0,0.0,0.0,0.0,0.0,0.0,0.0,0.0,0.0,0.0,0.0,0.0,0.0,0.0,0.0,0.0,0.0,0.0,0.0,0.0,0.0,0.0,0.0,0.0,0.0,0.0,0.0,0.0,0.0,0.0,0.0,-0.871,-0.8862,-0.8967,-0.9057,-0.9147,-0.9459,0.0,0.0,0.0,0.0,0.0,0.0,0.0,0.0,0.0,0.0,0.0,0.0,0.0,0.0,0.0,0.0,0.0,0.0,0.0,0.0,0.0,0.0,0.0,0.0,0.0,0.0,0.0,0.0,0.0,0.0,0.0,0.0,0.0,0.0,0.0,0.0,0.0,0.0,0.0,0.0,0.0,0.0,0.0,0.0,0.0,0.0,0.0,0.0,0.0,0.0,0.0,0.0,0.0,0.0,0.0,0.0,0.0,0.0,0.0,0.0,0.0,0.0,0.0,0.0,0.0,0.0,0.0,0.0,0.0,0.0,0.0,0.0,0.0,0.0,0.0,0.0,0.0,0.0,0.0,0.0,0.0,0.0,0.0,0.0,0.0,0.0,0.0,0.0,0.0,0.0,0.0,0.0,0.0,0.0,0.0,0.0,0.0,0.0,0.0,0.0,0.0,0.0,0.0,0.0,0.0,0.0,0.0,0.0,0.0,-0.8794,-0.894,-0.9118,-0.9317,-0.9367,-0.9795,-1.0712,0.0,0.0,0.0,0.0,0.0,0.0,0.0,0.0,0.0,0.0,0.0,0.0,0.0,0.0,0.0,0.0,0.0,0.0,0.0,0.0,0.0,0.0,0.0,0.0,0.0,0.0,0.0,0.0,0.0,0.0,0.0,0.0,0.0,0.0,0.0,0.0,0.0,0.0,0.0,0.0,0.0,0.0,0.0,0.0,0.0,0.0,0.0,0.0,0.0,0.0,0.0,0.0,0.0,0.0,0.0,0.0,0.0,0.0,0.0,0.0,0.0,0.0,0.0,0.0,0.0,0.0,0.0,0.0,0.0,0.0,0.0,0.0,0.0,0.0,0.0,0.0,0.0,0.0,0.0,0.0,0.0,0.0,0.0,0.0,0.0,0.0,0.0,0.0,0.0,0.0,0.0,0.0,0.0,0.0,0.0,0.0,0.0,0.0,0.0,0.0,0.0,0.0,0.0,0.0,0.0,0.0,0.0,0.0,-0.8905,-0.9106,-0.9351,-0.9628,-0.9527,-1.0543,0.0,0.0,0.0,0.0,0.0,0.0,0.0,0.0,0.0,0.0,0.0,0.0,0.0,0.0,0.0,0.0,0.0,0.0,0.0,0.0,0.0,0.0,0.0,0.0,0.0,0.0,0.0,0.0,0.0,0.0,0.0,0.0,0.0,0.0,0.0,0.0,0.0,0.0,0.0,0.0,0.0,0.0,0.0,0.0,0.0,0.0,0.0,0.0,0.0,0.0,0.0,0.0,0.0,0.0,0.0,0.0,0.0,0.0,0.0,0.0,0.0,0.0,0.0,0.0,0.0,0.0,0.0,0.0,0.0,0.0,0.0,0.0,0.0,0.0,0.0,0.0,0.0,0.0,0.0,0.0,0.0,0.0,0.0,0.0,0.0,0.0,0.0,0.0,0.0,0.0,0.0,0.0,0.0,0.0,0.0,0.0,0.0,0.0,0.0,0.0,0.0,0.0,0.0,0.0,0.0,0.0,0.0,0.0,0.0,-0.9249,-0.9412,-0.9666,-0.9941,-0.9643,-1.0295,0.0,0.0,0.0,0.0,0.0,0.0,0.0,0.0,0.0,0.0,0.0,0.0,0.0,0.0,0.0,0.0,0.0,0.0,0.0,0.0,0.0,0.0,0.0,0.0,0.0,0.0,0.0,0.0,0.0,0.0,0.0,0.0,0.0,0.0,0.0,0.0,0.0,0.0,0.0,0.0,0.0,0.0,0.0,0.0,0.0,0.0,0.0,0.0,0.0,0.0,0.0,0.0,0.0,0.0,0.0,0.0,0.0,0.0,0.0,0.0,0.0,0.0,0.0,0.0,0.0,0.0,0.0,0.0,0.0,0.0,0.0,0.0,0.0,0.0,0.0,0.0,0.0,0.0,0.0,0.0,0.0,0.0,0.0,0.0,0.0,0.0,0.0,0.0,0.0,0.0,0.0,0.0,0.0,0.0,0.0,0.0,0.0,0.0,0.0,0.0,0.0,0.0,0.0,0.0,0.0,0.0,0.0,0.0,-0.9052,-0.9374,-0.9588,-0.9936,-1.0356,-1.0034,-1.0692,0.0,0.0,0.0,0.0,0.0,0.0,0.0,0.0,0.0,0.0,0.0,0.0,0.0,0.0,0.0,0.0,0.0,0.0,0.0,0.0,0.0,0.0,0.0,0.0,0.0,0.0,0.0,0.0,0.0,0.0,0.0,0.0,0.0,0.0,0.0,0.0,0.0,0.0,0.0,0.0,0.0,0.0,0.0,0.0,0.0,0.0,0.0,0.0,0.0,0.0,0.0,0.0,0.0,0.0,0.0,0.0,0.0,0.0,0.0,0.0,0.0,0.0,0.0,0.0,0.0,0.0,0.0,0.0,0.0,0.0,0.0,0.0,0.0,0.0,0.0,0.0,0.0,0.0,0.0,0.0,0.0,0.0,0.0,0.0,0.0,0.0,0.0,0.0,0.0,0.0,0.0,0.0,0.0,0.0,0.0,0.0,0.0,0.0,0.0,0.0,0.0,0.0,0.0,0.0,0.0,0.0,0.0,0.0,-0.9275,-0.9405,-0.9722,-1.0169,-1.0717,-1.0461,-1.1289,0.0,0.0,0.0,0.0,0.0,0.0,0.0,0.0,0.0,0.0,0.0,0.0,0.0,0.0,0.0,0.0,0.0,0.0,0.0,0.0,0.0,0.0,0.0,0.0,0.0,0.0,0.0,0.0,0.0,0.0,0.0,0.0,0.0,0.0,0.0,0.0,0.0,0.0,0.0,0.0,0.0,0.0,0.0,0.0,0.0,0.0,0.0,0.0,0.0,0.0,0.0,0.0,0.0,0.0,0.0,0.0,0.0,0.0,0.0,0.0,0.0,0.0,0.0,0.0,0.0,0.0,0.0,0.0,0.0,0.0,0.0,0.0,0.0,0.0,0.0,0.0,0.0,0.0,0.0,0.0,0.0,0.0,0.0,0.0,0.0,0.0,0.0,0.0,0.0,0.0,0.0,0.0,0.0,0.0,0.0,0.0,0.0,0.0,0.0,0.0,0.0,0.0,0.0,0.0,0.0,0.0,0.0,0.0,-0.9171,-0.9551,-0.986,-1.0307,-1.0781,-1.0291,-1.1222,0.0,0.0,0.0,0.0,0.0,0.0,0.0,0.0,0.0,0.0,0.0,0.0,0.0,0.0,0.0,0.0,0.0,0.0,0.0,0.0,0.0,0.0,0.0,0.0,0.0,0.0,0.0,0.0,0.0,0.0,0.0,0.0,0.0,0.0,0.0,0.0,0.0,0.0,0.0,0.0,0.0,0.0,0.0,0.0,0.0,0.0,0.0,0.0,-1.0887,0.0,0.0,0.0,0.0,0.0,0.0,0.0,0.0,0.0,0.0,0.0,0.0,0.0,0.0,0.0,0.0,0.0,0.0,0.0,0.0,0.0,0.0,0.0,0.0,0.0,0.0,0.0,0.0,0.0,0.0,0.0,0.0,0.0,0.0,0.0,0.0,0.0,0.0,0.0,0.0,0.0,0.0,0.0,0.0,0.0,0.0,0.0,0.0,0.0,0.0,0.0,0.0,0.0,0.0,0.0,0.0,0.0,0.0,0.0,-0.9188,-0.9493,-0.9926,-1.033,-1.0767,-1.1157,-1.2102,0.0,0.0,0.0,0.0,0.0,0.0,0.0,0.0,0.0,0.0,0.0,0.0,0.0,0.0,0.0,0.0,0.0,0.0,0.0,0.0,0.0,0.0,0.0,0.0,0.0,0.0,0.0,0.0,0.0,0.0,0.0,0.0,0.0,0.0,0.0,0.0,0.0,0.0,0.0,0.0,0.0,0.0,0.0,0.0,0.0,0.0,0.0,0.0,0.0,0.0,0.0,0.0,0.0,0.0,0.0,0.0,0.0,0.0,0.0,0.0,0.0,0.0,0.0,0.0,0.0,0.0,0.0,0.0,0.0,0.0,0.0,0.0,0.0,0.0,0.0,0.0,0.0,0.0,0.0,0.0,0.0,0.0,0.0,0.0,0.0,0.0,0.0,0.0,0.0,0.0,0.0,0.0,0.0,0.0,0.0,0.0,0.0,0.0,0.0,0.0,0.0,0.0,0.0,0.0,0.0,0.0,0.0,-0.893,-0.9275,-0.9528,-0.9953,-1.0394,-1.0902,-1.2217,-1.3217,-1.3792,0.0,0.0,0.0,0.0,0.0,0.0,0.0,0.0,0.0,0.0,0.0,0.0,0.0,0.0,0.0,0.0,0.0,0.0,0.0,0.0,0.0,0.0,0.0,0.0,0.0,0.0,0.0,0.0,0.0,0.0,0.0,0.0,0.0,0.0,0.0,0.0,0.0,0.0,-1.1949,-1.1138,0.0,0.0,0.0,0.0,0.0,0.0,0.0,0.0,-1.0716,0.0,0.0,0.0,0.0,0.0,0.0,0.0,0.0,0.0,0.0,0.0,0.0,0.0,0.0,0.0,0.0,0.0,0.0,0.0,0.0,0.0,0.0,0.0,0.0,0.0,0.0,0.0,0.0,0.0,0.0,0.0,0.0,0.0,0.0,0.0,0.0,0.0,0.0,0.0,0.0,0.0,0.0,0.0,0.0,0.0,0.0,0.0,0.0,0.0,0.0,0.0,0.0,0.0,0.0,0.0,0.0,-0.8807,-0.8937,-0.9281,-0.9975,-1.0306,-1.0748,-1.1261,-1.2462,-1.3341,-1.3807,0.0,0.0,0.0,0.0,0.0,0.0,0.0,0.0,0.0,0.0,0.0,0.0,0.0,0.0,0.0,0.0,0.0,0.0,0.0,0.0,0.0,0.0,0.0,0.0,0.0,0.0,0.0,0.0,0.0,0.0,0.0,0.0,0.0,0.0,0.0,0.0,0.0,0.0,0.0,-1.0892,-1.0964,0.0,0.0,0.0,0.0,0.0,0.0,0.0,0.0,-1.2448,0.0,0.0,0.0,0.0,0.0,0.0,0.0,0.0,0.0,0.0,0.0,0.0,0.0,0.0,0.0,0.0,0.0,0.0,0.0,0.0,0.0,0.0,0.0,0.0,0.0,0.0,0.0,0.0,0.0,0.0,0.0,0.0,0.0,0.0,0.0,0.0,0.0,0.0,0.0,0.0,0.0,0.0,0.0,0.0,0.0,0.0,0.0,0.0,0.0,0.0,0.0,0.0,0.0,0.0,0.0,-0.8828,-0.9082,-0.9514,-1.0066,-1.0617,-1.124,-1.2018,-1.3291,-1.4183,0.0,0.0,0.0,0.0,0.0,0.0,0.0,0.0,0.0,0.0,0.0,0.0,0.0,0.0,0.0,0.0,0.0,0.0,0.0,0.0,0.0,0.0,0.0,0.0,0.0,0.0,0.0,0.0,0.0,0.0,0.0,0.0,0.0,0.0,0.0,0.0,0.0,0.0,0.0,0.0,-1.0887,-1.1025,-1.1565,0.0,0.0,0.0,0.0,0.0,0.0,-1.1627,-1.2695,0.0,0.0,0.0,0.0,0.0,0.0,0.0,0.0,0.0,0.0,0.0,0.0,0.0,0.0,0.0,0.0,0.0,0.0,0.0,0.0,0.0,0.0,0.0,0.0,0.0,0.0,0.0,0.0,0.0,0.0,0.0,0.0,0.0,0.0,0.0,0.0,0.0,0.0,0.0,0.0,0.0,0.0,0.0,0.0,0.0,0.0,0.0,0.0,0.0,0.0,0.0,0.0,0.0,0.0,0.0,-0.8679,-0.9199,-0.972,-1.0087,-1.0692,-1.1578,-1.2754,-1.3947,-1.4828,0.0,0.0,0.0,0.0,0.0,0.0,0.0,0.0,0.0,0.0,0.0,0.0,0.0,0.0,0.0,0.0,0.0,0.0,0.0,0.0,0.0,0.0,0.0,0.0,0.0,0.0,0.0,0.0,0.0,0.0,0.0,0.0,0.0,0.0,0.0,0.0,0.0,0.0,0.0,0.0,0.0,-1.1208,-1.1874,-1.1431,0.0,0.0,0.0,0.0,-1.0822,-1.174,0.0,0.0,0.0,0.0,0.0,0.0,0.0,0.0,0.0,0.0,0.0,0.0,0.0,0.0,0.0,0.0,0.0,0.0,0.0,0.0,0.0,0.0,0.0,0.0,0.0,0.0,0.0,0.0,0.0,0.0,0.0,0.0,0.0,0.0,0.0,0.0,0.0,0.0,0.0,0.0,0.0,0.0,0.0,0.0,0.0,0.0,0.0,0.0,0.0,0.0,0.0,0.0,0.0,0.0,0.0,0.0,-0.852,-0.894,-0.9449,-1.0092,-1.0406,-1.1317,-1.2946,-1.3693,-1.4568,0.0,0.0,0.0,0.0,0.0,0.0,0.0,0.0,0.0,0.0,0.0,0.0,0.0,0.0,0.0,0.0,0.0,0.0,0.0,0.0,0.0,0.0,0.0,0.0,0.0,0.0,0.0,0.0,0.0,0.0,0.0,0.0,0.0,0.0,0.0,0.0,0.0,0.0,0.0,0.0,0.0,-1.1853,-1.1813,-1.1455,-1.1139,0.0,0.0,-1.1187,-1.1163,-1.2296,0.0,0.0,0.0,0.0,0.0,0.0,0.0,0.0,0.0,0.0,0.0,0.0,0.0,0.0,0.0,0.0,0.0,0.0,0.0,0.0,0.0,0.0,0.0,0.0,0.0,0.0,0.0,0.0,0.0,0.0,0.0,0.0,0.0,0.0,0.0,0.0,0.0,0.0,0.0,0.0,0.0,0.0,0.0,0.0,0.0,0.0,0.0,0.0,0.0,0.0,0.0,0.0,0.0,0.0,0.0,-0.872,-0.8747,-0.9157,-0.9678,-1.0181,-1.0543,-1.1658,-1.376,-1.3764,-1.4449,0.0,0.0,0.0,0.0,0.0,0.0,0.0,0.0,0.0,0.0,0.0,0.0,0.0,0.0,0.0,0.0,0.0,0.0,0.0,0.0,0.0,0.0,0.0,0.0,0.0,0.0,0.0,0.0,0.0,0.0,0.0,0.0,0.0,0.0,0.0,0.0,0.0,0.0,0.0,0.0,0.0,0.0,-1.1902,-1.161,0.0,0.0,0.0,-1.1187,-1.109,0.0,0.0,0.0,0.0,0.0,0.0,0.0,0.0,0.0,0.0,0.0,0.0,0.0,0.0,0.0,0.0,0.0,0.0,0.0,0.0,0.0,0.0,0.0,0.0,0.0,0.0,0.0,0.0,0.0,0.0,0.0,0.0,0.0,0.0,0.0,0.0,0.0,0.0,0.0,0.0,0.0,0.0,0.0,0.0,0.0,0.0,0.0,0.0,0.0,0.0,0.0,0.0,0.0,0.0,0.0,0.0,0.0,-0.8825,-0.9296,-0.9763,-1.0111,-1.0694,-1.2071,-1.4162,-1.3915,0.0,0.0,0.0,0.0,0.0,0.0,0.0,0.0,0.0,0.0,0.0,0.0,0.0,0.0,0.0,0.0,0.0,0.0,0.0,0.0,0.0,0.0,0.0,0.0,0.0,0.0,0.0,-1.4409,0.0,0.0,0.0,0.0,0.0,0.0,0.0,0.0,0.0,0.0,0.0,0.0,0.0,0.0,-1.1646,-1.1866,-1.1671,-1.1565,0.0,0.0,-1.1248,-1.1122,-1.213,-1.3164,0.0,0.0,0.0,0.0,0.0,0.0,0.0,0.0,0.0,0.0,0.0,0.0,0.0,0.0,0.0,0.0,0.0,0.0,0.0,0.0,0.0,0.0,0.0,0.0,0.0,0.0,0.0,0.0,0.0,0.0,0.0,0.0,0.0,0.0,0.0,0.0,0.0,0.0,0.0,0.0,0.0,0.0,0.0,0.0,0.0,0.0,0.0,0.0,0.0,0.0,0.0,0.0,0.0,0.0,-0.8503,-0.8569,-0.9194,-0.955,-0.9608,-1.094,-1.234,-1.3883,-1.4297,-1.5177,0.0,0.0,0.0,0.0,0.0,0.0,0.0,0.0,0.0,0.0,0.0,0.0,0.0,0.0,0.0,0.0,0.0,0.0,0.0,0.0,0.0,0.0,0.0,0.0,0.0,0.0,0.0,0.0,0.0,0.0,0.0,0.0,0.0,0.0,0.0,0.0,0.0,0.0,0.0,0.0,0.0,-1.1703,-1.1557,-1.1516,-1.1565,0.0,-1.161,-1.148,-1.1464,-1.1955,-1.2734,-1.3979,0.0,0.0,0.0,0.0,0.0,0.0,0.0,0.0,0.0,0.0,0.0,0.0,0.0,0.0,0.0,0.0,0.0,0.0,0.0,0.0,0.0,0.0,0.0,0.0,0.0,0.0,0.0,0.0,0.0,0.0,0.0,0.0,0.0,0.0,0.0,0.0,0.0,0.0,0.0,0.0,0.0,0.0,0.0,0.0,0.0,0.0,0.0,0.0,0.0,0.0,0.0,0.0,0.0,-0.8299,-0.8479,-0.8748,-0.909,-0.9498,-1.06,-1.1987,-1.3577,-1.4221,-1.5015,0.0,0.0,0.0,0.0,0.0,0.0,0.0,0.0,0.0,0.0,0.0,0.0,0.0,0.0,0.0,0.0,0.0,0.0,0.0,0.0,0.0,0.0,0.0,0.0,0.0,0.0,0.0,0.0,-1.4362,-1.4372,-1.4997,0.0,0.0,0.0,0.0,0.0,0.0,0.0,0.0,0.0,0.0,-1.1334,-1.148,-1.1403,0.0,0.0,-1.1431,-1.1495,-1.2285,-1.2449,-1.2993,-1.4617,-1.4843,0.0,0.0,0.0,0.0,0.0,0.0,0.0,0.0,0.0,0.0,0.0,0.0,0.0,0.0,0.0,0.0,0.0,0.0,0.0,0.0,0.0,0.0,0.0,0.0,0.0,0.0,0.0,0.0,0.0,0.0,0.0,0.0,0.0,0.0,0.0,0.0,0.0,0.0,0.0,0.0,0.0,0.0,0.0,0.0,0.0,0.0,0.0,0.0,0.0,0.0,0.0,0.0,-0.8096,-0.8347,-0.8539,-0.8825,-0.9255,-1.069,-1.2001,-1.3177,-1.4345,-1.5073,0.0,0.0,0.0,0.0,0.0,0.0,0.0,0.0,0.0,0.0,0.0,0.0,0.0,0.0,0.0,0.0,0.0,0.0,0.0,0.0,0.0,0.0,0.0,0.0,0.0,0.0,0.0,0.0,-1.4649,-1.4716,-1.5217,0.0,0.0,0.0,0.0,0.0,0.0,0.0,0.0,0.0,0.0,-1.1057,-1.1305,-1.1228,-1.1368,-1.2035,-1.1712,-1.1836,-1.3139,-1.315,-1.3516,-1.5036,0.0,0.0,0.0,0.0,0.0,0.0,0.0,0.0,0.0,0.0,0.0,0.0,0.0,0.0,0.0,0.0,0.0,0.0,0.0,0.0,0.0,0.0,0.0,0.0,0.0,0.0,0.0,-0.8535,0.0,0.0,-0.8865,0.0,0.0,0.0,0.0,0.0,0.0,0.0,0.0,0.0,0.0,0.0,0.0,0.0,0.0,0.0,0.0,0.0,0.0,0.0,0.0,0.0,0.0,-0.7892,-0.7998,-0.858,-0.8827,-0.8798,-1.123,-1.2578,-1.2833,-1.4721,-1.5651,-1.5391,0.0,0.0,0.0,0.0,0.0,0.0,0.0,0.0,0.0,0.0,0.0,0.0,0.0,0.0,0.0,0.0,0.0,0.0,0.0,0.0,0.0,0.0,0.0,0.0,0.0,0.0,-1.4512,-1.4522,-1.4636,0.0,0.0,0.0,0.0,0.0,0.0,0.0,0.0,0.0,-1.0404,-1.0741,-1.102,-1.1033,-1.1033,-1.1529,-1.2799,-1.2534,-1.2662,-1.3959,-1.4146,-1.444,0.0,0.0,0.0,0.0,0.0,0.0,0.0,0.0,0.0,0.0,0.0,0.0,0.0,0.0,0.0,0.0,0.0,0.0,0.0,0.0,0.0,0.0,0.0,0.0,0.0,0.0,0.0,-0.7871,-0.8174,0.0,0.0,0.0,0.0,0.0,0.0,0.0,0.0,0.0,0.0,0.0,-0.8116,-0.8015,0.0,0.0,0.0,0.0,0.0,0.0,0.0,0.0,0.0,0.0,0.0,0.0,-0.7743,-0.7889,-0.8132,-0.8414,-0.8718,-1.0104,-1.1323,-1.2263,-1.3732,-1.4599,-1.4785,0.0,0.0,0.0,0.0,0.0,0.0,0.0,0.0,0.0,0.0,0.0,0.0,0.0,0.0,0.0,0.0,0.0,0.0,0.0,0.0,0.0,0.0,0.0,0.0,0.0,-1.4324,0.0,0.0,0.0,0.0,0.0,0.0,0.0,0.0,0.0,0.0,0.0,-1.0075,-1.1132,-1.129,-1.159,-1.25,-1.2578,-1.2817,0.0,0.0,0.0,0.0,0.0,0.0,0.0,0.0,0.0,0.0,0.0,0.0,0.0,0.0,-1.7395,-1.6814,-1.686,-1.6991,-1.6797,0.0,0.0,0.0,0.0,0.0,0.0,0.0,0.0,0.0,0.0,0.0,0.0,0.0,0.0,-0.77,0.0,-0.8006,0.0,0.0,0.0,0.0,0.0,0.0,0.0,0.0,-0.8367,-0.8275,-0.7992,-0.7988,-0.7987,0.0,-0.7797,-0.7675,0.0,0.0,0.0,0.0,0.0,0.0,0.0,0.0,-0.7594,-0.7733,-0.7834,-0.8058,-0.8392,-0.9379,-1.0528,-1.1737,-1.3416,-1.4371,-1.4499,-1.4242,-1.3721,0.0,0.0,0.0,0.0,0.0,0.0,0.0,0.0,0.0,0.0,0.0,0.0,0.0,0.0,0.0,0.0,0.0,0.0,0.0,0.0,0.0,0.0,0.0,-1.3756,0.0,0.0,0.0,0.0,0.0,0.0,0.0,0.0,0.0,-0.9756,-0.9894,-1.0453,-1.1531,-1.2003,-1.2495,-1.3325,0.0,0.0,0.0,0.0,0.0,0.0,0.0,-1.5568,-1.6321,-1.6526,-1.661,-1.6854,-1.6954,-1.7139,-1.7434,0.0,0.0,-1.6947,-1.7101,-1.732,-1.7226,-1.7199,-1.732,-1.7662,-1.7108,-1.6553,0.0,0.0,0.0,0.0,0.0,0.0,0.0,0.0,-0.7539,-0.7592,0.0,-0.7595,0.0,0.0,0.0,0.0,0.0,-0.8465,0.0,0.0,-0.8323,-0.8187,-0.7995,-0.7995,-0.7995,-0.7988,-0.7975,-0.7894,-0.7794,-0.7516,0.0,0.0,0.0,0.0,0.0,0.0,-0.7444,-0.759,-0.7604,-0.7672,-0.7849,-0.904,-1.0231,-1.1313,-1.3631,-1.4741,-1.4506,-1.4213,-1.3793,-1.3207,-1.2933,0.0,0.0,0.0,0.0,0.0,0.0,0.0,0.0,0.0,0.0,0.0,0.0,0.0,0.0,0.0,0.0,0.0,0.0,0.0,0.0,-1.3354,0.0,0.0,0.0,0.0,0.0,0.0,0.0,0.0,0.0,0.0,-0.9813,-1.0524,-1.1375,-1.1742,0.0,0.0,0.0,0.0,-1.4095,-1.4967,-1.4809,-1.5047,-1.6173,-1.654,-1.67,-1.67,0.0,0.0,-1.7922,-1.7275,-1.6807,-1.7139,-1.74,-1.7514,-1.7219,-1.744,-1.7528,-1.7313,-1.7273,-1.7233,-1.7192,-1.6851,-1.6366,-0.6083,0.0,0.0,0.0,0.0,-0.6592,-0.6712,-0.6886,-0.6976,-0.7069,-0.7148,-0.7287,0.0,0.0,0.0,0.0,0.0,0.0,-0.8143,-0.8113,-0.8221,-0.8187,-0.7995,-0.8153,-0.8147,-0.7988,-0.7929,-0.7855,-0.7797,-0.7559,-0.7373,-0.737,0.0,0.0,0.0,0.0,-0.7394,-0.7441,-0.7543,-0.7621,-0.7662,-0.8033,-0.9102,-1.0957,-1.2446,-1.3441,-1.3999,-1.3902,-1.3655,-1.31,-1.2802,0.0,0.0,0.0,0.0,0.0,0.0,0.0,0.0,0.0,0.0,0.0,0.0,0.0,0.0,0.0,0.0,0.0,0.0,0.0,-1.2979,-1.3007,-1.3031,0.0,0.0,0.0,0.0,0.0,0.0,0.0,0.0,0.0,-1.1766,-1.2055,-1.265,0.0,0.0,-1.4355,-1.4959,-1.5331,-1.5701,-1.6123,-1.6127,0.0,-1.6867,-1.6787,-1.6707,-1.6707,-1.6921,-1.7088,-1.7088,-1.6874,-1.6734,-1.6827,-1.6901,-1.6927,-1.6907,-1.7602,-1.8056,-1.7849,-1.7776,-1.7716,-1.7488,-1.7206,-1.6878,-0.6236,-0.6719,-0.6546,-0.6481,-0.6507,-0.6457,-0.6527,-0.6698,-0.6768,-0.684,-0.6833,-0.6906,-0.6981,-0.7045,-0.7276,0.0,0.0,0.0,-0.7892,-0.7995,-0.8136,-0.8096,-0.7914,-0.8045,-0.8011,-0.7865,-0.7773,-0.7726,-0.7723,-0.755,-0.7431,-0.7415,0.0,0.0,-0.7102,-0.7231,-0.7309,-0.737,-0.74,-0.7448,-0.7509,-0.7919,-0.8818,-1.0306,-1.1742,-1.2733,-1.3241,-1.3586,-1.3601,-1.3169,-1.2883,-1.2726,0.0,0.0,0.0,0.0,0.0,0.0,0.0,0.0,0.0,0.0,0.0,-1.3026,-1.2643,0.0,0.0,0.0,-1.2673,-1.2723,-1.2747,-1.2779,0.0,0.0,0.0,0.0,0.0,0.0,0.0,-1.3377,-1.326,-1.336,-1.3867,-1.3944,-1.4081,-1.4544,-1.4893,-1.5239,-1.575,0.0,-1.6293,-1.6353,-1.6359,-1.642,-1.6593,-1.6573,-1.6573,-1.6687,-1.6707,-1.6707,-1.6707,-1.6707,-1.6707,-1.6707,-1.6707,-1.6707,-1.6707,-1.7315,-1.7736,-1.7535,-1.7502,-1.7442,-1.7268,-1.7052,-1.679,-0.6659,-0.6546,-0.6433,-0.6452,-0.6603,-0.6603,-0.6668,-0.6771,-0.6782,-0.6719,-0.6608,-0.6613,-0.6655,-0.6792,-0.7042,0.0,-0.7547,-0.7547,-0.7693,-0.7988,-0.7928,-0.7897,-0.7811,-0.7797,-0.7726,-0.76,-0.7587,-0.758,-0.758,-0.757,-0.7492,-0.7353,-0.721,-0.7095,-0.7095,-0.7095,-0.721,-0.7346,-0.7214,-0.7166,-0.7395,-0.8291,-0.8993,-0.9422,-1.1222,-1.2181,-1.2231,-1.3017,-1.3392,-1.3137,-1.2856,-1.2582,-1.2326,0.0,0.0,0.0,0.0,0.0,0.0,0.0,0.0,0.0,0.0,0.0,0.0,0.0,0.0,-1.2358,-1.2872,0.0,-1.3205,-1.2618,0.0,0.0,0.0,-1.2595,-1.3551,-1.3921,-1.4302,-1.4914,0.0,0.0,-1.5725,-1.5744,-1.5469,-1.4814,-1.5592,-1.6132,-1.5818,-1.6086,-1.6172,-1.5952,-1.5858,-1.5864,-1.6052,-1.6213,-1.644,-1.6667,-1.6693,-1.6653,-1.6647,-1.6607,-1.6627,-1.66,-1.6627,-1.662,-1.6627,-1.6647,-1.6627,-1.6613,-1.666,-1.6673,-1.6587,-1.638,-1.6234,-0.5017,-0.6427,-0.6398,-0.64,-0.643,-0.643,-0.6446,-0.6481,-0.657,-0.6594,-0.6438,-0.6581,-0.6551,-0.6539,-0.6789,-0.6945,-0.6995,-0.7191,-0.7441,-0.7686,-0.7579,-0.7654,-0.7759,-0.7699,-0.7631,-0.7594,-0.7482,-0.7424,-0.7467,-0.7305,-0.7186,-0.7149,-0.7115,-0.7095,-0.7095,-0.7095,-0.7112,-0.7152,-0.7115,-0.7115,-0.719,-0.7412,-0.7912,-0.8706,-0.9194,-0.9786,-1.0435,-1.0691,-1.0801,-1.074,-1.0367,-1.0167,-1.007,-1.0001,0.0,0.0,0.0,0.0,0.0,0.0,0.0,0.0,0.0,-1.2136,-1.1781,0.0,-1.2172,0.0,-1.2986,-1.3,-1.2441,-1.27,0.0,0.0,-1.3526,-1.3439,-1.3955,-1.4048,-1.4229,-1.4583,-1.4623,-1.4843,-1.5431,-1.5504,-1.5511,-1.5504,-1.5734,-1.5905,-1.5798,-1.6079,-1.6301,-1.6192,-1.6326,-1.6493,-1.6417,-1.6553,-1.66,-1.67,-1.652,-1.6429,-1.6373,-1.6186,-1.6039,-1.5991,-1.5984,-1.6032,-1.6039,-1.5991,-1.5952,-1.5798,-1.6059,-1.6233,-1.5805,-1.5651,-1.5551,-0.4657,-0.5734,-0.6187,-0.6387,-0.6387,-0.6387,-0.6387,-0.6392,-0.646,-0.6449,-0.6392,-0.6457,-0.6449,-0.6389,-0.6589,-0.6692,-0.6789,-0.693,-0.71,-0.7389,-0.735,-0.7349,-0.7473,-0.7489,-0.7461,-0.7394,-0.7309,-0.7268,-0.7261,-0.718,-0.7095,-0.7095,-0.7095,-0.7095,-0.7095,-0.7095,-0.7095,-0.7095,-0.7034,-0.7001,-0.7001,-0.6937,-0.7157,-0.7671,-0.8134,-0.8551,-0.9099,-0.948,-0.9738,-0.9728,-0.9514,-0.9347,-0.9207,-0.9143,-0.8937,0.0,0.0,0.0,0.0,0.0,0.0,0.0,0.0,0.0,0.0,0.0,-1.0869,-1.1198,-1.1903,-1.2172,-1.1769,-1.2653,-1.3439,-1.3753,-1.3593,-1.3603,-1.3893,-1.3913,-1.4067,-1.4439,-1.4516,-1.4696,-1.5144,-1.5211,-1.5257,-1.5424,-1.5444,-1.5545,-1.5792,-1.5979,-1.6079,-1.6086,-1.6213,-1.6313,-1.6313,-1.6199,-1.6126,-1.6099,-1.5879,-1.5738,-1.5738,-1.5558,-1.5444,-1.5444,-1.5438,-1.5444,-1.5444,-1.5444,-1.5384,-1.5311,-1.5458,-1.5538,-1.5277,-1.5204,-1.515,-0.4645,-0.4885,-0.5834,-0.6284,-0.6387,-0.6387,-0.6387,-0.6387,-0.6387,-0.6387,-0.6387,-0.6387,-0.6426,-0.6365,-0.6365,-0.6506,-0.6691,-0.6632,-0.677,-0.7048,-0.7108,-0.7078,-0.7015,-0.7259,-0.7272,-0.7098,-0.7095,-0.7085,-0.7071,-0.7071,-0.7068,-0.7068,-0.7068,-0.7068,-0.7068,-0.7068,-0.7071,-0.7068,-0.693,-0.6856,-0.6898,-0.677,-0.6702,-0.674,-0.7473,-0.7918,-0.7918,-0.8696,-0.9145,-0.915,-0.9127,-0.8989,-0.8779,-0.8596,-0.8351,0.0,-0.7861,0.0,0.0,0.0,0.0,0.0,0.0,0.0,0.0,-0.9566,-0.9494,-0.9213,-1.0381,-1.1138,-1.1139,-1.2374,-1.3199,-1.3241,-1.3332,-1.3416,-1.3626,-1.3626,-1.3822,-1.4332,-1.4366,-1.4529,-1.4901,-1.4955,-1.4955,-1.5035,-1.5062,-1.5177,-1.5591,-1.5691,-1.5698,-1.5671,-1.5718,-1.5718,-1.5705,-1.5518,-1.5364,-1.5291,-1.5117,-1.4941,-1.4921,-1.4901,-1.4894,-1.4894,-1.4894,-1.4894,-1.4894,-1.4894,-1.4881,-1.4814,-1.4776,-1.4823,-1.4928,-1.4894,-1.4888,-0.303,-0.4784,-0.5035,-0.5586,-0.6387,-0.6387,-0.6387,-0.6387,-0.6387,-0.6387,-0.6387,-0.6387,-0.6385,-0.6304,-0.6301,-0.6295,-0.625,-0.6225,-0.6353,-0.6629,-0.6688,-0.6801,-0.7005,-0.7107,-0.7122,-0.7098,-0.7095,-0.7038,-0.697,-0.697,-0.6927,-0.6927,-0.6927,-0.6923,-0.6927,0.0,0.0,0.0,-0.682,-0.6742,-0.6739,-0.6715,-0.6702,-0.6702,-0.6864,0.0,-0.6985,-0.715,-0.7233,-0.7229,-0.7145,0.0,0.0,0.0,0.0,0.0,0.0,0.0,0.0,0.0,0.0,0.0,-0.6953,-0.743,-0.8692,-0.9352,-0.9506,-0.9159,-0.9912,-1.0379,-1.0335,-1.1329,-1.2093,-1.2261,-1.2838,-1.3253,-1.3293,-1.33,-1.3447,-1.3733,-1.3773,-1.3966,-1.4489,-1.4603,-1.4689,-1.4921,-1.5008,-1.5048,-1.5135,-1.513,-1.5182,-1.513,-1.515,-1.5176,-1.5176,-1.5115,-1.491,-1.475,-1.4656,-1.4502,-1.4302,-1.4249,-1.4255,-1.4255,-1.4249,-1.4255,-1.4255,-1.4255,-1.4182,-1.3948,-1.3866,-1.3993,-1.4489,-1.4409,-1.4182,-0.1914,0.0,-0.428,-0.5085,0.0,-0.6187,-0.6387,-0.6387,-0.6387,-0.6387,-0.6387,-0.6387,-0.6374,-0.6265,-0.6265,-0.6251,-0.6083,-0.6021,-0.6087,-0.6218,-0.6278,-0.6448,-0.6583,-0.6828,-0.6969,-0.6966,-0.6984,-0.6953,-0.6886,-0.6851,-0.6817,-0.6817,-0.6771,-0.6817,-0.6814,-0.6742,-0.6739,-0.6771,-0.6664,-0.659,-0.6586,-0.6519,-0.6525,-0.6525,-0.6485,0.0,0.0,0.0,0.0,0.0,0.0,0.0,0.0,0.0,0.0,-0.618,-0.6442,-0.6473,-0.617,-0.6071,-0.617,-0.6433,-0.6339,-0.6666,-0.7559,-0.7851,-0.796,-0.7851,-0.8582,-0.9079,-0.9136,-1.0363,-1.1261,-1.1381,-1.2154,-1.2764,-1.2889,-1.2969,-1.3147,-1.3353,-1.3393,-1.3513,-1.3793,-1.3833,-1.3995,-1.4249,-1.4188,-1.4168,-1.4329,-1.4703,-1.4923,-1.4776,-1.4743,-1.4696,-1.4593,-1.4389,-1.4282,-1.4073,-1.3926,-1.3786,-1.3681,-1.3654,-1.3654,-1.3654,-1.3661,-1.3661,-1.3654,-1.3654,-1.3607,-1.3433,-1.3387,-1.346,-1.378,-1.3754,-1.3614,-0.0958,-0.1361,-0.3324,-0.4431,-0.4885,-0.5734,-0.6237,-0.6387,0.0,0.0,0.0,-0.6387,-0.6361,-0.6241,-0.6236,-0.6159,-0.6021,-0.5918,-0.5874,-0.5869,-0.6039,-0.6086,-0.6127,-0.6526,-0.6748,-0.6786,-0.6824,-0.6873,-0.6881,-0.6736,-0.6661,-0.6661,-0.6661,-0.6661,-0.6647,-0.6512,-0.6538,-0.661,-0.6498,-0.6474,-0.647,-0.6361,-0.63,-0.63,-0.6272,-0.6259,-0.6259,-0.6259,-0.621,-0.6218,-0.6242,-0.6245,-0.6221,-0.6218,-0.6231,-0.6255,-0.6259,-0.6272,-0.6296,-0.63,-0.63,-0.63,-0.63,-0.6377,-0.6525,-0.6412,-0.6347,-0.6467,-0.7185,-0.768,-0.7825,-0.9209,-1.0248,-1.0407,-1.1334,-1.2045,-1.2373,-1.2615,-1.2811,-1.3034,-1.3087,-1.316,-1.3233,-1.3253,-1.3293,-1.3447,-1.34,-1.328,-1.3587,-1.4148,-1.4469,-1.4275,-1.4208,-1.4182,-1.3975,-1.3761,-1.352,-1.3453,-1.33,-1.312,-1.3066,-1.3053,-1.3053,-1.3046,-1.3053,-1.3053,-1.3046,-1.3046,-1.3046,-1.3046,-1.3046,-1.3053,-1.3053,-1.3053,-1.3066,0.005,-0.1261,-0.1562,-0.287,-0.4834,-0.4935,-0.5534,-0.6387,-0.6387,-0.6387,-0.6387,-0.6387,-0.6317,-0.6111,-0.6111,-0.5994,-0.5742,-0.5721,-0.5712,-0.5757,-0.5961,-0.6086,-0.6127,-0.6343,-0.6564,-0.6782,-0.669,-0.6685,-0.6687,-0.6617,-0.6545,-0.6545,-0.6545,-0.6545,-0.6532,-0.6402,-0.634,-0.6361,-0.634,-0.6327,-0.6327,-0.631,-0.63,-0.6293,-0.6132,-0.6023,-0.6023,-0.6064,-0.6,-0.5878,-0.5993,-0.6003,-0.5878,-0.5871,-0.5925,-0.6047,-0.6061,-0.6118,-0.6286,-0.63,-0.63,-0.63,-0.63,-0.63,-0.6338,-0.63,-0.6306,-0.633,-0.6489,-0.6606,-0.6822,-0.772,-0.8692,-0.9446,-1.0231,-1.102,-1.174,-1.2047,-1.2263,-1.2569,-1.2749,-1.2913,-1.3113,-1.3166,-1.3173,-1.3247,-1.32,-1.3213,-1.324,-1.3367,-1.344,-1.3407,-1.3353,-1.3373,-1.3333,-1.3307,-1.3153,-1.2951,-1.2891,-1.2777,-1.2545,-1.2512,-1.2505,-1.2458,-1.2498,-1.2485,-1.2472,-1.2432,-1.2485,-1.2498,-1.2512,-1.2492,-1.2505,-1.2492,-1.2538,0.0707,-0.0202,-0.0907,-0.1915,-0.3123,-0.4282,-0.5434,-0.6387,-0.6387,-0.6387,-0.6431,-0.6374,-0.6249,-0.6133,-0.6018,-0.5896,-0.5688,-0.5688,-0.5688,-0.5735,-0.5822,-0.5863,-0.5908,-0.6124,-0.631,-0.6455,-0.6449,-0.6476,-0.6576,-0.6467,-0.6395,-0.6395,-0.6395,-0.6399,-0.6392,-0.633,-0.63,-0.63,-0.63,-0.63,-0.63,-0.6179,-0.6135,-0.6135,-0.5986,-0.5905,-0.5868,-0.5908,-0.5874,-0.5803,-0.5867,-0.5838,-0.5806,-0.58,-0.5833,-0.5901,-0.5868,-0.5973,-0.6125,-0.6252,-0.63,-0.63,-0.63,-0.63,-0.63,-0.63,-0.63,-0.63,-0.63,-0.6338,-0.6451,-0.7557,-0.847,-0.8927,-1.0164,-1.1099,-1.1446,-1.1706,-1.195,-1.2185,-1.2287,-1.2446,-1.2699,-1.2719,-1.2792,-1.2951,-1.2998,-1.2945,-1.2759,-1.2732,-1.2786,-1.2919,-1.2998,-1.2886,-1.2766,-1.2712,-1.2652,-1.2556,-1.2505,-1.2452,-1.2318,-1.2305,-1.2305,-1.2305,-1.2305,-1.2305,-1.2298,-1.2305,-1.2305,-1.2305,-1.2305,-1.2305,-1.2305,-1.2305,-1.2358,0.1111,0.0707,-0.0303,-0.1058,-0.1765,-0.3879,-0.5286,-0.6034,-0.6258,-0.6399,-0.6385,-0.6306,-0.6187,-0.604,-0.5945,-0.5841,-0.5699,-0.5688,-0.5688,-0.5688,-0.5688,-0.5688,-0.573,-0.5883,-0.6031,-0.6138,-0.6158,-0.6267,-0.6388,-0.6329,-0.63,-0.63,-0.63,-0.63,-0.63,-0.6262,-0.6245,-0.6245,-0.6211,-0.6211,-0.6242,-0.6057,-0.5942,-0.5969,-0.583,-0.5755,-0.5752,-0.5755,-0.5735,-0.5705,-0.5735,-0.5739,-0.5705,-0.5701,-0.5715,-0.5749,-0.5755,-0.5837,-0.6017,-0.6142,-0.6262,-0.6296,-0.63,-0.63,-0.63,-0.63,-0.63,-0.63,-0.63,-0.63,-0.6412,-0.733,-0.8284,-0.8699,-0.9906,-1.0844,-1.1254,-1.1484,-1.1706,-1.1855,-1.1966,-1.2083,-1.2194,-1.2268,-1.2412,-1.2643,-1.2683,-1.2583,-1.2358,-1.2305,-1.2412,-1.2596,-1.2683,-1.2616,-1.2345,-1.2325,-1.2331,-1.2305,-1.2318,-1.2325,-1.2298,-1.2265,-1.2204,-1.2184,-1.2191,-1.2138,-1.2118,-1.2158,-1.2178,-1.2178,-1.2171,-1.2211,-1.2291,-1.2305,-1.2194,0.1263,0.0808,0.0657,-0.0252,-0.1764,-0.3879,-0.4834,-0.5072,-0.5888,-0.6333,-0.6282,-0.6322,-0.6132,-0.5937,-0.5909,-0.5791,-0.5694,-0.5688,-0.5688,-0.5688,-0.5688,-0.5688,-0.5675,-0.5621,-0.5691,-0.5897,-0.5891,-0.5972,-0.6221,-0.6289,-0.6296,-0.63,-0.63,-0.6296,-0.6282,-0.6122,-0.6016,-0.601,-0.5915,-0.5911,-0.5993,-0.5901,-0.5823,-0.582,-0.5681,-0.561,-0.561,-0.561,-0.5579,-0.546,-0.5542,-0.5549,-0.546,-0.544,-0.5498,-0.5596,-0.561,-0.5728,-0.5952,-0.6006,-0.6115,-0.6279,-0.6296,-0.63,-0.63,-0.63,-0.63,-0.63,-0.63,-0.63,-0.63,-0.6528,-0.7292,-0.8546,-0.9003,-0.949,-1.0844,-1.1298,-1.1446,-1.1446,-1.1781,-1.2003,-1.204,-1.2194,-1.2318,-1.2378,-1.2405,-1.2378,-1.2325,-1.2305,-1.2305,-1.2351,-1.2358,-1.2358,-1.2305,-1.2305,-1.2305,-1.2305,-1.2298,-1.2271,-1.2218,-1.2058,-1.1946,-1.1904,-1.1911,-1.183,-1.171,-1.1703,-1.1946,-1.1953,-1.1973,-1.2033,-1.2218,-1.2305,-1.2077,0.1364,0.101,0.0859,-0.0151,-0.1664,-0.2569,-0.3626,-0.4826,-0.5181,-0.5644,-0.6106,-0.6086,-0.5996,-0.5899,-0.5833,-0.5729,-0.5688,-0.5688,-0.5688,-0.5688,-0.5688,-0.5653,-0.558,-0.5532,-0.5568,-0.5673,-0.5641,-0.571,-0.5838,-0.597,-0.606,-0.6099,-0.6219,-0.6255,-0.6125,-0.6023,-0.5949,-0.5855,-0.5752,-0.5705,-0.5752,-0.5708,-0.5677,-0.5661,-0.5569,-0.5487,-0.5487,-0.5491,-0.546,-0.5402,-0.5457,-0.546,-0.5399,-0.5395,-0.5423,-0.5491,-0.5542,-0.564,-0.5762,-0.5932,-0.6057,-0.6122,-0.6248,-0.63,-0.63,-0.63,-0.63,-0.63,-0.63,-0.63,-0.6338,-0.6721,-0.7484,-0.8513,-0.9079,-0.9836,-1.0962,-1.1149,-1.126,-1.1372,-1.1521,-1.1744,-1.1966,-1.2187,-1.2305,-1.2305,-1.2305,-1.2305,-1.2305,-1.2305,-1.2305,-1.2305,-1.2305,-1.2305,-1.2305,-1.2305,-1.2305,-1.2278,-1.2187,-1.2087,-1.2017,-1.1804,-1.161,-1.161,-1.163,-1.1597,-1.1455,-1.1462,-1.161,-1.1643,-1.1826,-1.1946,-1.2031,-1.2184,-1.194,0.1465,0.1162,0.0859,-0.005,-0.1159,-0.1504,-0.25,-0.3934,-0.4431,-0.5016,-0.5649,-0.5769,-0.5858,-0.5844,-0.5723,-0.5688,-0.5688,-0.5688,-0.5688,-0.5688,-0.5688,-0.5623,-0.5516,-0.547,-0.5435,-0.5416,-0.5436,-0.5492,-0.5604,-0.575,-0.5825,-0.586,-0.5986,-0.599,-0.5847,-0.5811,-0.5706,-0.5668,-0.5527,-0.5491,-0.5528,-0.5562,-0.5559,-0.5549,-0.5453,-0.5395,-0.5395,-0.5395,-0.5395,-0.5395,-0.5395,-0.5395,-0.5395,-0.5395,-0.5395,-0.5402,-0.5464,-0.5549,-0.5624,-0.5823,-0.5946,-0.5996,-0.6173,-0.63,-0.63,-0.63,-0.63,-0.63,-0.63,-0.63,-0.6374,-0.6834,-0.748,-0.8284,-0.9084,-0.9873,-1.0631,-1.0925,-1.1149,-1.1298,-1.1372,-1.1558,-1.1929,-1.2187,-1.2305,-1.2305,-1.2305,-1.2305,-1.2305,-1.2305,-1.2305,-1.2305,-1.2305,-1.2305,-1.2305,-1.2305,-1.2305,-1.2245,-1.2084,-1.1933,-1.1859,-1.157,-1.1309,-1.1309,-1.1322,-1.1289,-1.1189,-1.1216,-1.1442,-1.1483,-1.1562,-1.1748,-1.1897,-1.1956,-1.1709,0.1465,0.1111,0.0606,0.0202,-0.0151,-0.1138,-0.1619,-0.2104,-0.3673,-0.4533,-0.475,-0.5343,-0.5699,-0.5704,-0.5694,-0.5688,-0.5688,-0.5688,-0.5688,-0.5688,-0.5683,-0.5621,-0.5505,-0.5434,-0.535,-0.521,-0.5277,-0.5377,-0.5559,-0.5595,-0.5634,-0.5625,-0.5591,-0.5554,-0.5492,-0.5321,-0.5218,-0.5303,-0.5214,-0.5206,-0.5346,-0.5412,-0.5382,-0.5416,-0.5399,-0.5395,-0.5395,-0.5395,-0.5395,-0.5395,-0.5395,-0.5395,-0.5395,-0.5395,-0.5395,-0.5395,-0.5402,-0.5474,-0.5576,-0.5725,-0.5864,-0.5973,-0.6149,-0.6293,-0.6279,-0.6293,-0.63,-0.63,-0.63,-0.63,-0.63,-0.6412,-0.6799,-0.7561,-0.8284,-0.9079,-0.9922,-1.0631,-1.1043,-1.1149,-1.1298,-1.1558,-1.1929,-1.215,-1.2268,-1.2305,-1.2305,-1.2305,-1.2305,-1.2305,-1.2305,-1.2305,-1.2305,-1.2305,-1.2305,-1.2305,-1.2305,-1.2184,-1.1991,-1.1846,-1.1692,-1.147,-1.1209,-1.1089,-1.1255,-1.1249,-1.0981,-1.1062,-1.141,-1.1482,-1.1271,-1.139,-1.1442,-1.1083,-1.0882,0.1364,0.0958,0.0748,0.0397,-0.0049,-0.0437,-0.0962,-0.1631,-0.2242,-0.3319,-0.441,-0.4743,-0.5151,-0.5688,-0.5688,-0.5688,-0.5688,-0.5688,-0.5688,-0.568,-0.561,-0.551,-0.5431,-0.5309,-0.5192,-0.5086,-0.5115,-0.5132,-0.5212,-0.5323,-0.5354,-0.5319,-0.5419,-0.5427,-0.5256,-0.5142,-0.5089,-0.4971,-0.4916,-0.4927,-0.4997,-0.5027,-0.5093,-0.519,-0.5359,-0.5395,-0.5395,-0.5395,-0.5395,-0.5395,-0.5395,-0.5395,-0.5395,-0.5395,-0.5395,-0.5395,-0.5395,-0.5419,-0.5484,-0.5583,-0.5684,-0.5752,-0.5976,-0.6118,-0.6129,-0.62,-0.63,-0.63,-0.63,-0.63,-0.63,-0.63,-0.6602,-0.7369,-0.7748,-0.8475,-0.9576,-1.018,-1.0519,-1.0962,-1.126,-1.1521,-1.1781,-1.2009,-1.2157,-1.2268,-1.2305,-1.2305,-1.2305,-1.2305,-1.2305,-1.2305,-1.2305,-1.2305,-1.2305,-1.2305,-1.2251,-1.2011,-1.1826,-1.1503,-1.1303,-1.1209,-1.0982,-1.1035,-1.1236,-1.1335,-1.1122,-1.1048,-1.1369,-1.12,-1.1005,-1.0744,-1.0791,-1.029,-1.0115,0.1263,0.0856,0.0792,0.0491,0.0,0.0,-0.0425,-0.1082,-0.1293,-0.2194,-0.3416,-0.4053,-0.4656,-0.524,-0.5555,-0.5688,-0.5688,-0.5688,-0.5688,-0.5677,-0.5564,-0.5443,-0.5366,-0.5284,-0.5127,-0.5034,-0.5018,-0.5018,-0.5018,-0.5132,-0.5139,-0.5023,-0.517,-0.5147,-0.4949,-0.488,-0.4778,-0.474,-0.4728,-0.4761,-0.4794,-0.4794,-0.4864,-0.499,-0.513,-0.5263,-0.5395,-0.5395,-0.5368,-0.533,-0.5287,-0.5317,-0.5287,-0.5368,-0.5395,-0.5395,-0.5395,-0.5395,-0.5412,-0.5504,-0.5613,-0.5664,-0.5881,-0.6006,-0.6098,-0.6238,-0.6289,-0.63,-0.63,-0.63,-0.63,-0.63,-0.6528,-0.7065,-0.7326,-0.7902,-0.8965,-0.9576,-1.025,-1.0925,-1.126,-1.1484,-1.1676,-1.1898,-1.2077,-1.2268,-1.2305,-1.2305,-1.2305,-1.2305,-1.2305,-1.2305,-1.2305,-1.2238,-1.2164,-1.2111,-1.2118,-1.1946,-1.1536,-1.1236,-1.1056,-1.0949,-1.0955,-1.1022,-1.1129,-1.1315,-1.1322,-1.1196,-1.0989,-1.0842,-1.0413,-1.004,-0.9822,-0.9411,-0.934,0.1312,0.0855,0.0791,0.0489,0.0,0.0,0.0,0.0,-0.0952,-0.144,-0.1979,-0.3358,-0.4119,-0.4523,-0.5196,-0.5644,-0.5688,-0.5688,-0.568,-0.5661,-0.5548,-0.5469,-0.5349,-0.5224,-0.5118,-0.5021,-0.5018,-0.5018,-0.5018,-0.5012,-0.4953,-0.4828,-0.4787,-0.4706,-0.4498,-0.443,-0.4406,-0.4461,-0.4456,-0.4525,-0.4728,-0.4561,-0.4525,-0.4628,-0.4628,-0.4794,-0.5226,-0.5326,-0.5294,-0.5133,-0.5127,-0.5106,-0.5157,-0.5222,-0.5359,-0.5395,-0.5395,-0.5395,-0.5409,-0.5525,-0.5623,-0.5745,-0.5888,-0.6061,-0.6173,-0.6276,-0.63,-0.63,-0.63,-0.63,-0.63,-0.63,-0.6338,-0.6377,-0.6988,-0.7446,-0.7863,-0.9008,-1.018,-1.0844,-1.1186,-1.1484,-1.1663,-1.1855,-1.204,-1.2231,-1.2305,-1.2305,-1.2305,-1.2305,-1.2305,-1.2305,-1.2298,-1.2245,-1.2058,-1.1919,-1.1919,-1.1839,-1.1363,-1.1009,-1.0922,-1.0835,-1.0969,-1.1029,-1.0992,-1.1175,-1.155,-1.1344,-1.0695,-1.0377,-0.9886,-0.9311,-0.8927,-0.8658,-0.8735,0.1387,0.1085,0.086,0.0613,0.0282,0.0092,0.0,0.0,0.0,0.0,-0.1435,-0.2017,-0.3045,-0.4119,-0.4656,-0.5107,-0.5688,-0.5688,-0.5645,-0.5553,-0.5483,-0.5363,-0.5243,-0.5127,-0.505,-0.5023,-0.5018,-0.5018,-0.5018,-0.5015,-0.4917,-0.4772,-0.4709,-0.4583,-0.4332,-0.4317,-0.4131,-0.3687,-0.3618,-0.3418,-0.3015,-0.295,-0.3017,-0.3119,-0.3153,-0.3284,-0.3547,-0.4583,-0.5085,-0.4922,-0.5172,-0.5291,-0.5232,-0.4899,-0.4891,-0.5326,-0.5395,-0.5395,-0.5399,-0.544,-0.5539,-0.5647,-0.5793,-0.5939,-0.6091,-0.6242,-0.6293,-0.63,-0.63,-0.63,-0.63,-0.63,-0.63,-0.63,-0.6528,-0.6949,-0.7557,-0.8889,-0.9836,-1.0288,-1.0812,-1.1298,-1.1595,-1.1781,-1.1935,-1.2231,-1.2305,-1.2305,-1.2305,-1.2305,-1.2305,-1.2305,-1.2285,-1.2251,-1.2084,-1.1953,-1.1879,-1.1772,-1.1356,-1.0995,-1.0875,-1.0848,-1.0975,-1.0902,-1.0831,-1.0959,-1.1365,-1.1147,-1.0341,-0.9769,-0.9198,-0.8682,-0.818,-0.8044,-0.8159,0.1409,0.1161,0.0891,0.0648,0.0369,0.0136,0.0,0.0,0.0,0.0,-0.0853,-0.1256,-0.2016,-0.3226,-0.3941,-0.4614,-0.5196,-0.5508,-0.5599,-0.5496,-0.5412,-0.5344,-0.5184,-0.5072,-0.5018,-0.5018,-0.5018,-0.5018,-0.5015,-0.4928,-0.4847,-0.4717,-0.4393,-0.4104,-0.3876,-0.3589,-0.322,-0.285,-0.2781,-0.2581,-0.2213,-0.2114,-0.2181,-0.2281,-0.2281,-0.238,-0.2546,-0.3547,-0.4068,-0.4051,-0.4254,-0.4513,-0.4715,-0.4488,-0.4622,-0.5226,-0.5395,-0.5395,-0.5395,-0.5399,-0.5491,-0.5637,-0.5752,-0.5901,-0.6078,-0.622,-0.6293,-0.63,-0.63,-0.63,-0.63,-0.63,-0.63,-0.63,-0.63,-0.6683,-0.748,-0.8623,-0.9539,-0.9954,-1.0625,-1.1186,-1.1558,-1.1706,-1.1861,-1.2194,-1.2305,-1.2305,-1.2305,-1.2305,-1.2305,-1.2305,-1.2305,-1.2231,-1.2124,-1.202,-1.1866,-1.1643,-1.1396,-1.1116,-1.0922,-1.0929,-1.0976,-1.051,-1.0313,-1.0131,-1.042,-0.9991,-0.9347,-0.8904,-0.8518,-0.7928,-0.7478,-0.7523,-0.7663,0.1383,0.1092,0.0885,0.0692,0.0414,0.0136,0.0,0.0,0.0,0.0,0.0,-0.0853,-0.1346,-0.1838,-0.3179,-0.3941,-0.4387,-0.5102,-0.5344,-0.5268,-0.5277,-0.5298,-0.5156,-0.5059,-0.5021,-0.5018,-0.5018,-0.4968,-0.4982,-0.4858,-0.4728,-0.4488,-0.3855,-0.3311,-0.31,-0.2447,-0.2213,-0.208,-0.2047,-0.2013,-0.1879,-0.1879,-0.1879,-0.1879,-0.1846,-0.1846,-0.1879,-0.2146,-0.2387,-0.2525,-0.2779,-0.3101,-0.3655,-0.4027,-0.432,-0.509,-0.5292,-0.5359,-0.5359,-0.5395,-0.5504,-0.5711,-0.5786,-0.5922,-0.6156,-0.6265,-0.63,-0.63,-0.63,-0.63,-0.63,-0.63,-0.63,-0.63,-0.63,-0.6644,-0.733,-0.8127,-0.878,-0.9533,-1.04,-1.1105,-1.1366,-1.1515,-1.1781,-1.2194,-1.2305,-1.2305,-1.2305,-1.2305,-1.2305,-1.2305,-1.2268,-1.2258,-1.2164,-1.2131,-1.1997,-1.1839,-1.1523,-1.1142,-1.0921,-1.0902,-1.0651,-1.0185,-0.9671,-0.9466,-0.9326,-0.9053,-0.8743,-0.8408,-0.7875,-0.7187,-0.7015,-0.7138,-0.742,0.1465,0.135,0.114,0.0859,0.0587,0.0359,0.018,0.0,0.0,0.0,0.0,-0.027,-0.0763,-0.1436,-0.1928,-0.2553,-0.3314,-0.4253,-0.455,-0.4426,-0.5116,-0.5246,-0.5094,-0.5037,-0.5018,-0.5018,-0.5015,-0.493,-0.4885,-0.4769,-0.4391,-0.3747,-0.3432,-0.2996,-0.2458,-0.2147,-0.1846,-0.1444,-0.1344,-0.1109,0.0,0.0,-0.0572,-0.0572,0.0,0.0,0.0,-0.0605,-0.134,-0.2484,-0.2014,-0.2144,-0.2871,-0.28,-0.3182,-0.4184,-0.4553,-0.4858,-0.5259,-0.5395,-0.5491,-0.5623,-0.5749,-0.5884,-0.6067,-0.6196,-0.6286,-0.63,-0.63,-0.63,-0.63,-0.63,-0.63,-0.63,-0.63,-0.6416,-0.6721,-0.7292,-0.7902,-0.8169,-0.8927,-0.9787,-1.0533,-1.087,-1.1174,-1.1892,-1.2157,-1.212,-1.1966,-1.2157,-1.2083,-1.2231,-1.2261,-1.2234,-1.2238,-1.2225,-1.2161,-1.2038,-1.1663,-1.1125,-1.0946,-1.0786,-1.0348,-0.9826,-0.9031,-0.8665,-0.8735,-0.8638,-0.8303,-0.7887,-0.7479,-0.6946,-0.6877,-0.6958,-0.7343,0.1489,0.1461,0.1172,0.0942,0.0673,0.0493,0.0269,0.0,0.0,0.0,0.0,0.0,0.0,-0.0808,-0.1211,-0.1704,-0.2374,-0.327,-0.376,-0.4118,-0.4808,-0.5103,-0.504,-0.5018,-0.5018,-0.5018,-0.4979,-0.4755,-0.4427,-0.4338,-0.3779,-0.3022,-0.259,-0.2181,-0.1715,-0.131,0.0,-0.0707,-0.0639,-0.0404,0.0,0.0,0.0,0.0,0.0,0.0,0.0,0.0,0.0,-0.1256,-0.1183,-0.1321,-0.2006,-0.2011,-0.2412,-0.348,-0.4018,-0.4522,-0.4891,-0.5193,-0.5467,-0.5579,-0.5722,-0.5867,-0.602,-0.6166,-0.63,-0.63,-0.63,-0.63,-0.63,-0.63,-0.63,-0.63,-0.63,-0.63,-0.63,-0.7065,-0.7442,-0.7672,-0.8208,-0.9003,-0.9895,-1.0008,-1.0421,-1.0987,-1.113,-1.1136,-1.1174,-1.1552,-1.1706,-1.1626,-1.1663,-1.157,-1.1292,-1.1205,-1.1168,-1.1174,-1.1113,-1.0686,-1.0394,-1.0206,-0.9639,-0.9,-0.8331,-0.7955,-0.8088,-0.8079,-0.7668,-0.728,-0.6983,-0.6931,-0.6865,-0.7018,-0.736,0.1463,0.1391,0.1211,0.0942,0.0718,0.0493,0.0269,0.0,0.0,0.0,0.0,0.0,0.0,0.0,-0.0808,-0.1256,-0.1345,-0.2286,-0.3093,-0.3646,-0.4281,-0.4516,-0.4474,-0.4898,-0.4979,-0.4979,-0.494,-0.4443,-0.3931,-0.3614,-0.2983,-0.224,-0.1501,-0.1112,-0.0908,0.0,0.0,0.0,0.0,0.0,0.0,0.0,0.0,0.0,0.0,0.0,0.0,0.0,0.0,0.0,0.0,-0.0604,-0.1174,-0.1543,-0.2044,-0.2679,-0.3382,-0.3918,-0.4253,-0.4791,-0.5289,-0.54,-0.5612,-0.5864,-0.6017,-0.6166,-0.63,-0.63,-0.63,-0.63,-0.63,-0.63,-0.63,-0.63,-0.63,-0.63,-0.6412,-0.6945,-0.7369,-0.7407,-0.8021,-0.8546,-0.9036,-0.9226,-0.941,-1.0383,-1.0415,-1.0453,-1.0533,-1.0763,-1.0683,-1.0415,-1.0533,-1.0689,-1.0378,-1.0072,-1.0002,-1.0002,-0.9965,-0.9702,-0.9247,-0.8956,-0.8541,-0.8079,-0.7849,-0.7651,-0.7555,-0.7339,-0.7166,-0.7077,-0.7073,-0.6984,-0.6951,-0.7207,-0.7508,0.1463,0.1391,0.1346,0.1076,0.0718,0.0673,0.0404,0.0,0.0,0.0,0.0,0.0,0.0,0.0,0.0,-0.0315,0.0,-0.1385,-0.2145,-0.289,-0.2959,-0.3057,-0.3365,-0.4268,-0.4898,-0.4781,-0.4304,-0.39,-0.3507,-0.2831,-0.2154,-0.1398,-0.1125,-0.0807,-0.0269,0.0,0.0,0.0,0.0,0.0,0.0,0.0,0.0,0.0,0.0,0.0,0.0,0.0,0.0,0.0,0.0,0.0,0.0,-0.0606,-0.1109,-0.1777,-0.2246,-0.2748,-0.3384,-0.4092,-0.461,-0.4844,-0.5361,-0.5864,-0.5979,-0.6169,-0.6289,-0.63,-0.63,-0.63,-0.63,-0.63,-0.63,-0.63,-0.63,-0.63,-0.6338,-0.6454,-0.6644,-0.6683,-0.6795,-0.7211,-0.8199,-0.8347,-0.8761,-0.9588,-0.9814,-0.9852,-0.989,-0.997,-0.9782,-0.9475,-0.9744,-0.9938,-0.9556,-0.9253,-0.914,-0.9031,-0.8998,-0.8917,-0.8468,-0.8323,-0.8104,-0.7877,-0.7613,-0.7453,-0.737,-0.7354,-0.729,-0.7212,-0.7163,-0.7131,-0.7208,-0.7439,-0.7642,0.1828,0.1391,0.1391,0.1122,0.0718,0.0673,0.0449,0.0,0.0,0.0,0.0,0.0,0.0,0.0,0.0,0.0,0.0,-0.0921,-0.1581,-0.2101,-0.2308,-0.2506,-0.2582,-0.3287,-0.3837,-0.3756,-0.3404,-0.2998,-0.25,-0.205,-0.1429,-0.0656,0.0,-0.0404,0.0,0.0,0.0,0.0,0.0,0.0,0.0,0.0,0.0,0.0,0.0,0.0,0.0,0.0,0.0,0.0,0.0,0.0,0.0,-0.0202,-0.0539,-0.0941,-0.1643,-0.2012,-0.2679,-0.332,-0.3999,-0.4463,-0.5006,-0.5501,-0.5868,-0.6173,-0.6289,-0.63,-0.63,-0.63,-0.63,-0.63,-0.63,-0.63,-0.63,-0.63,-0.63,-0.63,-0.63,-0.63,-0.6374,-0.6756,-0.7211,-0.7587,-0.7817,-0.8533,-0.8575,-0.8613,-0.8765,-0.8803,-0.8879,-0.8803,-0.9107,-0.9145,-0.8803,-0.8537,-0.8351,-0.8237,-0.8127,-0.8089,-0.7859,-0.7863,-0.7918,-0.7706,-0.751,-0.7514,-0.7477,-0.7435,-0.7407,-0.7346,-0.7297,-0.7309,-0.7347,-0.7384,-0.7622,0.2322,0.1391,0.1391,0.1122,0.0807,0.0718,0.0449,0.009,0.0,0.0,0.0,0.0,0.0,0.0,0.0,0.0,0.0,-0.0602,-0.1085,-0.1181,-0.1587,-0.1803,-0.1918,-0.2036,-0.2115,-0.2152,-0.227,-0.195,-0.1561,-0.1129,-0.0749,0.0,0.0,0.0,0.0,0.0,0.0,0.0,0.0,0.0,0.0,0.0,0.0,0.0,0.0,0.0,0.0,0.0,0.0,0.0,0.0,0.0,0.0,-0.0135,-0.0304,-0.0337,-0.1109,-0.151,-0.185,-0.2531,-0.3317,-0.4137,-0.4605,-0.5057,-0.5645,-0.6103,-0.6279,-0.63,-0.63,-0.63,-0.63,-0.63,-0.63,-0.63,-0.63,-0.63,-0.63,-0.63,-0.63,-0.63,-0.6296,-0.6602,-0.683,-0.713,-0.7249,-0.7365,-0.7442,-0.7557,-0.7748,-0.7863,-0.805,-0.8127,-0.8389,-0.8504,-0.8199,-0.8122,-0.7897,-0.7821,-0.7633,-0.7595,-0.7518,-0.7595,-0.771,-0.7633,-0.7518,-0.7518,-0.7506,-0.7431,-0.7411,-0.7411,-0.7395,-0.7362,-0.735,-0.7342,-0.7631,0.2337,0.1391,0.1391,0.1256,0.1031,0.0807,0.0538,0.0314,0.009,0.0,0.0,0.0,0.0,0.0,0.0,0.0,0.0,0.0,0.0,0.0,0.0,0.0,0.0,0.0,0.0,-0.0628,-0.1096,-0.1349,-0.1088,-0.0588,0.0,0.0,0.0,0.0,0.0,0.0,0.0,0.0,0.0,0.0,0.0,0.0,0.0,0.0,0.0,0.0,0.0,0.0,0.0,0.0,0.0,0.0,0.0,0.0,-0.0135,-0.0303,-0.0539,-0.0841,-0.1113,-0.1681,-0.2245,-0.292,-0.3868,-0.472,-0.5243,-0.5806,-0.6099,-0.63,-0.63,-0.63,-0.63,-0.63,-0.63,-0.63,-0.63,-0.63,-0.63,-0.63,-0.63,-0.63,-0.6335,-0.6412,-0.6676,-0.6903,-0.7096,-0.7288,-0.7446,-0.748,-0.7595,-0.7633,-0.7672,-0.7672,-0.7633,-0.7672,-0.7633,-0.7672,-0.7633,-0.7633,-0.7557,-0.7557,-0.7518,-0.7518,-0.7518,-0.7518,-0.7518,-0.7518,-0.7456,-0.7427,-0.7435,-0.7447,-0.7465,-0.7437,-0.7403,-0.7449,-0.7656,0.3044,0.2151,0.1614,0.1301,0.1076,0.0807,0.0583,0.0359,0.0,0.0,0.0,0.0,0.0,0.0,0.0,0.0,0.0,0.0,0.0,0.0,0.0,0.0,0.0,0.0,0.0,0.0,-0.0431,0.0,-0.0604,-0.0258,0.0,0.0,0.0,0.0,0.0,0.0,0.0,0.0,0.0,0.0,0.0,0.0,0.0,0.0,0.0,0.0,0.0,0.0,0.0,0.0,0.0,0.0,0.0,0.0,0.0,0.0,-0.0236,-0.0371,-0.0575,-0.1104,-0.1627,-0.225,-0.3202,-0.4078,-0.4771,-0.5392,-0.5867,-0.618,-0.63,-0.63,-0.63,-0.63,-0.63,-0.63,-0.63,-0.63,-0.63,-0.63,-0.63,-0.63,-0.6296,-0.6412,-0.6641,-0.6868,-0.7061,-0.7215,-0.7407,-0.7484,-0.7518,-0.7518,-0.7518,-0.7518,-0.7518,-0.7518,-0.7518,-0.7518,-0.7518,-0.7518,-0.7518,-0.7518,-0.7518,-0.7518,-0.7518,-0.7518,-0.7518,-0.7518,-0.7514,-0.7456,-0.751,-0.7518,-0.7498,-0.7482,-0.7502,-0.7557,-0.7753,0.3935,0.2822,0.2061,0.148,0.1166,0.0852,0.0628,0.0494,0.018,0.0,0.009,0.0,0.0,0.0,0.0,0.0,0.0,0.0,0.0,0.0,0.0,0.0,0.0,0.0,0.0,0.0,0.0,0.0,0.0,0.0,0.0,0.0,0.0,0.0,0.0,0.0,0.0,0.0,0.0,0.0,0.0,0.0,0.0,0.0,0.0,0.0,0.0,0.0,0.0,0.0,0.0,0.0,0.0,0.0,0.0,0.0,0.0,-0.0237,-0.041,-0.0662,-0.1183,-0.1729,-0.2257,-0.3301,-0.4426,-0.5121,-0.5631,-0.6141,-0.63,-0.63,-0.63,-0.63,-0.63,-0.63,-0.63,-0.63,-0.63,-0.63,-0.63,-0.63,-0.63,-0.6451,-0.6676,-0.683,-0.7019,-0.7292,-0.7446,-0.7484,-0.7518,-0.7518,-0.7518,-0.7518,-0.7518,-0.7518,-0.7518,-0.7518,-0.7518,-0.7518,-0.7518,-0.7518,-0.7518,-0.7518,-0.7518,-0.7518,-0.7518,-0.7518,-0.7518,-0.7518,-0.7518,-0.7518,-0.7518,-0.7518,-0.7518,-0.7518,-0.7599,0.4516,0.2911,0.2778,0.2195,0.1345,0.0897,0.0807,0.0897,0.0314,0.018,0.0314,0.0,0.0,0.0,0.0,0.0,0.0,0.0,0.0,0.0,0.0,0.0,0.0,0.0,0.0,0.0,0.0,0.0,0.0,0.0,0.0,0.0,0.0,0.0,0.0,0.0,0.0,0.0,0.0,0.0,0.0,0.0,0.0,0.0,0.0,0.0,0.0,0.0,0.0,0.0,0.0,0.0,0.0,0.0,0.0,0.0,-0.0034,-0.0102,-0.0278,-0.0534,-0.0766,-0.1272,-0.1881,-0.288,-0.3986,-0.5237,-0.5944,-0.6219,-0.63,-0.63,-0.63,-0.63,-0.63,-0.63,-0.63,-0.63,-0.63,-0.63,-0.63,-0.63,-0.63,-0.6525,-0.6753,-0.6865,-0.7019,-0.7292,-0.7484,-0.7484,-0.7518,-0.7518,-0.7518,-0.7518,-0.7518,-0.7518,-0.7518,-0.7518,-0.7518,-0.7518,-0.7518,-0.7518,-0.7518,-0.7518,-0.7518,-0.7518,-0.7518,-0.7518,-0.7518,-0.7518,-0.7518,-0.7518,-0.7518,-0.7518,-0.7518,-0.7518,-0.7518,0.5403,0.3667,0.3133,0.233,0.1436,0.1076,0.0987,0.0942,0.0494,0.0269,0.0313,0.0,0.0,0.0,0.0,0.0,0.0,0.0,0.0,0.0,0.0,0.0,0.0,0.0,0.0,0.0,0.0,0.0,0.0,0.0,0.0,0.0,0.0,0.0,0.0,0.0,0.0,0.0,0.0,0.0,0.0,0.0,0.0,0.0,0.0,0.0,0.0,0.0,0.0,0.0,0.0,0.0,0.0,0.0,0.0,0.0,0.0,0.0,-0.014,-0.0432,-0.059,-0.0831,-0.1469,-0.2387,-0.3638,-0.4846,-0.5867,-0.6261,-0.63,-0.63,-0.63,-0.63,-0.63,-0.63,-0.63,-0.63,-0.63,-0.63,-0.63,-0.63,-0.6335,-0.6525,-0.6753,-0.6865,-0.698,-0.7215,-0.7407,-0.748,-0.7518,-0.7518,-0.7518,-0.7518,-0.7518,-0.7518,-0.7518,-0.7518,-0.7518,-0.7518,-0.7518,-0.7518,-0.7518,-0.7518,-0.7518,-0.7518,-0.7518,-0.7518,-0.7518,-0.7518,-0.7518,-0.7518,-0.7518,-0.7518,-0.7518,-0.7518,-0.7518,0.616,0.4601,0.3624,0.2688,0.1749,0.1301,0.1122,0.1122,0.0628,0.0448,0.0356,0.0,0.0,0.0,0.0,0.0,0.0,0.0,0.0,0.0,0.0,0.0,0.0,0.0,0.0,0.0,0.0,0.0,0.0,0.0,0.0,0.0,0.0,0.0,0.0,0.0,0.0,0.0,0.0,0.0,0.0,0.0,0.0,0.0,0.0,0.0,0.0,0.0,0.0,0.0,0.0,0.0,0.0,0.0,0.0,0.0,0.0,0.0,0.0,-0.0293,-0.0484,-0.0761,-0.1277,-0.2314,-0.3249,-0.4341,-0.516,-0.5828,-0.6222,-0.6261,-0.63,-0.63,-0.63,-0.63,-0.63,-0.63,-0.63,-0.63,-0.63,-0.63,-0.6335,-0.6486,-0.6676,-0.6826,-0.698,-0.7176,-0.733,-0.7488,-0.7543,-0.7559,-0.7547,-0.7551,-0.7543,-0.7539,-0.7526,-0.7526,-0.7522,-0.7518,-0.7518,-0.7518,-0.7518,-0.7518,-0.7518,-0.7518,-0.7518,-0.7518,-0.7518,-0.7518,-0.7518,-0.7518,-0.7518,-0.7518,-0.7518,-0.7518,-0.7518,0.6517,0.5542,0.4603,0.3623,0.2643,0.1569,0.1211,0.1301,0.0673,0.0492,0.0488,0.0,0.0,0.0,0.0,0.0,0.0,0.0,0.0,0.0,0.0,0.0,0.0,0.0,0.0,0.0,0.0,0.0,0.0,0.0,0.0,0.0,0.0,0.0,0.0,0.0,0.0,0.0,0.0,0.0,0.0,0.0,0.0,0.0,0.0,0.0,0.0,0.0,0.0,0.0,0.0,0.0,0.0,0.0,0.0,0.0,0.0,0.0,0.0,-0.0224,-0.042,-0.0854,-0.1528,-0.2237,-0.2821,-0.4146,-0.4888,-0.5121,-0.567,-0.6103,-0.618,-0.63,-0.63,-0.63,-0.63,-0.63,-0.63,-0.63,-0.63,-0.63,-0.6374,-0.6525,-0.6747,-0.6909,-0.7072,-0.7269,-0.7453,-0.7616,-0.7602,-0.7614,-0.7612,-0.7596,-0.758,-0.7567,-0.7547,-0.7551,-0.7575,-0.7547,-0.7518,-0.7518,-0.7518,-0.7518,-0.7518,-0.7518,-0.7518,-0.7518,-0.7518,-0.7518,-0.7518,-0.7518,-0.7518,-0.7518,-0.7518,-0.7518,-0.7518,0.6918,0.6473,0.5539,0.4293,0.2823,0.1749,0.1301,0.1301,0.0807,0.0441,0.0259,0.0,0.0,0.0,0.0,0.0,0.0,0.0,0.0,0.0,0.0,0.0,0.0,0.0,0.0,0.0,0.0,0.0,0.0,0.0,0.0,0.0,0.0,0.0,0.0,0.0,0.0,0.0,0.0,0.0,0.0,0.0,0.0,0.0,0.0,0.0,0.0,0.0,0.0,0.0,0.0,0.0,0.0,0.0,0.0,0.0,0.0,0.0,0.0,-0.019,-0.0421,-0.0819,-0.1412,-0.1962,-0.2353,-0.3212,-0.3756,-0.4261,-0.5082,-0.5592,-0.555,-0.5944,-0.63,-0.63,-0.63,-0.63,-0.63,-0.63,-0.6374,-0.6412,-0.6486,-0.6637,-0.6835,-0.7079,-0.7235,-0.7401,-0.7559,-0.7714,-0.7711,-0.7744,-0.7724,-0.7715,-0.7711,-0.7679,-0.7702,-0.7677,-0.7649,-0.7588,-0.7535,-0.7518,-0.7518,-0.7518,-0.7518,-0.7518,-0.7518,-0.7518,-0.7518,-0.7518,-0.7518,-0.7518,-0.7518,-0.7518,-0.7518,-0.7518,-0.7518,0.7095,0.7007,0.6121,0.4783,0.3267,0.2285,0.1659,0.1346,0.0987,0.0528,0.0128,0.0,0.0,0.0,0.0,0.0,0.0,0.0,0.0,0.0,0.0,0.0,0.0,0.0,0.0,0.0,0.0,0.0,0.0,0.0,0.0,0.0,0.0,0.0,0.0,0.0,0.0,0.0,0.0,0.0,0.0,0.0,0.0,0.0,0.0,0.0,0.0,0.0,0.0,0.0,0.0,0.0,0.0,0.0,0.0,0.0,0.0,0.0,0.0,-0.0268,-0.0502,-0.0783,-0.1139,-0.161,-0.2002,-0.2314,-0.3017,-0.3405,-0.4304,-0.4965,-0.5002,-0.5747,-0.6219,-0.63,-0.63,-0.63,-0.63,-0.6296,-0.6409,-0.6525,-0.6627,-0.677,-0.71,-0.737,-0.7537,-0.7664,-0.7745,-0.7849,-0.7878,-0.791,-0.7927,-0.7927,-0.7931,-0.7894,-0.7854,-0.7816,-0.7739,-0.7669,-0.7608,-0.7531,-0.7518,-0.7531,-0.7531,-0.7518,-0.7518,-0.7518,-0.7518,-0.7522,-0.7522,-0.7518,-0.7518,-0.7518,-0.7518,-0.7518,-0.7518,0.7095,0.7007,0.6118,0.5184,0.4156,0.3267,0.2285,0.1436,0.1121,0.0753,0.0347,0.0,0.0,0.0,0.0,0.0,0.0,0.0,0.0,0.0,0.0,0.0,0.0,0.0,0.0,0.0,0.0,0.0,0.0,0.0,0.0,0.0,0.0,0.0,0.0,0.0,0.0,0.0,0.0,0.0,0.0,0.0,0.0,0.0,0.0,0.0,0.0,0.0,0.0,0.0,0.0,0.0,0.0,0.0,0.0,0.0,0.0,0.0,0.0,0.0,-0.0588,-0.0706,-0.1061,-0.1415,-0.1532,-0.1923,-0.2353,-0.2665,-0.3756,-0.4616,-0.5162,-0.5631,-0.5944,-0.6141,-0.6103,-0.6323,-0.6327,-0.6351,-0.6475,-0.6695,-0.6831,-0.6965,-0.7335,-0.768,-0.7902,-0.7971,-0.7967,-0.8032,-0.8073,-0.8117,-0.8154,-0.8166,-0.817,-0.8093,-0.8028,-0.7926,-0.7829,-0.7759,-0.7679,-0.7642,-0.7624,-0.7612,-0.7596,-0.7555,-0.7526,-0.7535,-0.7531,-0.7526,-0.7522,-0.7518,-0.7518,-0.7518,-0.7518,-0.7518,-0.7518,0.7095,0.7095,0.6741,0.6071,0.505,0.3535,0.2331,0.1435,0.0986,0.0665,0.0393,0.0129,0.0,0.0,0.0,0.0,0.0,0.0,0.0,0.0,0.0,0.0,0.0,0.0,0.0,0.0,0.0,0.0,0.0,0.0,0.0,0.0,0.0,0.0,0.0,0.0,0.0,0.0,0.0,0.0,0.0,0.0,0.0,0.0,0.0,0.0,0.0,0.0,0.0,0.0,0.0,0.0,0.0,0.0,0.0,0.0,0.0,0.0,0.0,-0.0353,-0.0589,-0.0746,-0.1022,-0.1297,-0.1375,-0.1492,-0.1688,-0.1923,-0.2899,-0.3446,-0.3446,-0.4693,-0.524,-0.5515,-0.5685,-0.6214,-0.6402,-0.6439,-0.6557,-0.6869,-0.7074,-0.7439,-0.7794,-0.7984,-0.8149,-0.8235,-0.8235,-0.8288,-0.8337,-0.839,-0.8473,-0.843,-0.8414,-0.8321,-0.8215,-0.8122,-0.8016,-0.7918,-0.7902,-0.7894,-0.7825,-0.7715,-0.7736,-0.7756,-0.763,-0.7551,-0.7563,-0.7567,-0.7531,-0.7518,-0.7518,-0.7518,-0.7518,-0.7518,-0.7518,0.7095,0.7095,0.7095,0.6561,0.5539,0.4024,0.2642,0.148,0.0941,0.0621,0.0436,0.0,0.0,0.0,0.0,0.0,0.0,0.0,0.0,0.0,0.0,0.0,0.0,0.0,0.0,0.0,0.0,0.0,0.0,0.0,0.0,0.0,0.0,0.0,0.0,0.0,0.0,0.0,0.0,0.0,0.0,0.0,0.0,0.0,0.0,0.0,0.0,0.0,0.0,0.0,0.0,0.0,0.0,0.0,0.0,0.0,0.0,0.0,0.0,-0.0393,-0.0629,-0.0746,-0.11,-0.1297,-0.1297,-0.1375,-0.1375,-0.161,-0.208,-0.2354,-0.2744,-0.407,-0.4496,-0.4771,-0.5224,-0.5707,-0.5992,-0.6027,-0.6539,-0.686,-0.7241,-0.7674,-0.8111,-0.8283,-0.8453,-0.8434,-0.8459,-0.8551,-0.8588,-0.86,-0.8616,-0.8604,-0.8596,-0.8506,-0.8412,-0.8322,-0.8191,-0.8117,-0.8089,-0.8069,-0.7988,-0.7874,-0.7939,-0.7959,-0.7784,-0.7686,-0.7637,-0.7612,-0.7547,-0.7518,-0.7518,-0.7518,-0.7518,-0.7518,-0.7518,0.7095,0.7095,0.7095,0.6564,0.5675,0.4645,0.3132,0.1391,0.0897,0.0709,0.0653,0.0171,0.0,0.0,0.0,0.0,0.0,0.0,0.0,0.0,0.0,0.0,0.0,0.0,0.0,0.0,0.0,0.0,0.0,0.0,0.0,0.0,0.0,0.0,0.0,0.0,0.0,0.0,0.0,0.0,0.0,0.0,0.0,0.0,0.0,0.0,0.0,0.0,0.0,0.0,0.0,0.0,0.0,0.0,0.0,0.0,0.0,0.0,-0.0236,-0.0471,-0.0668,-0.0825,-0.114,-0.1258,-0.1297,-0.1297,-0.1297,-0.1454,-0.1846,-0.2158,-0.2588,-0.3171,-0.3715,-0.4112,-0.4513,-0.4933,-0.5264,-0.565,-0.6333,-0.6774,-0.7126,-0.7576,-0.8016,-0.8301,-0.8325,-0.8472,-0.8476,-0.8575,-0.8604,-0.8604,-0.8616,-0.8616,-0.8608,-0.8612,-0.8539,-0.8453,-0.842,-0.8296,-0.8211,-0.817,-0.8089,-0.8069,-0.8113,-0.8081,-0.7898,-0.7796,-0.7653,-0.7575,-0.7535,-0.7518,-0.7522,-0.7518,-0.7518,-0.7518,-0.7518,0.7095,0.7095,0.7095,0.6962,0.6473,0.4956,0.322,0.148,0.0897,0.071,0.0653,0.0216,0.0,0.0,0.0,0.0,0.0,0.0,0.0,0.0,0.0,0.0,0.0,0.0,0.0,0.0,0.0,0.0,0.0,0.0,0.0,0.0,0.0,0.0,0.0,0.0,0.0,0.0,0.0,0.0,0.0,0.0,0.0,0.0,0.0,0.0,0.0,0.0,0.0,0.0,0.0,0.0,0.0,0.0,0.0,0.0,0.0,-0.0079,-0.0275,-0.0471,-0.0707,-0.0943,-0.1179,-0.1258,-0.1297,-0.1297,-0.1297,-0.1454,-0.1571,-0.1806,-0.2003,-0.2431,-0.282,-0.3136,-0.3634,-0.415,-0.4512,-0.51,-0.5751,-0.6337,-0.672,-0.7349,-0.7841,-0.7973,-0.8002,-0.8241,-0.8388,-0.8432,-0.8616,-0.8568,-0.8616,-0.8616,-0.8616,-0.8616,-0.8616,-0.8551,-0.8543,-0.8514,-0.8377,-0.8329,-0.8337,-0.8325,-0.8312,-0.8223,-0.8065,-0.7805,-0.7537,-0.7508,-0.758,-0.7535,-0.7488,-0.7522,-0.7518,-0.7518,-0.7518,0.7095,0.7095,0.7095,0.6874,0.634,0.4956,0.3398,0.2014,0.1156,0.0792,0.0652,0.0299,0.0,0.0,0.0,0.0,0.0,0.0,0.0,0.0,0.0,0.0,0.0,0.0,0.0,0.0,0.0,0.0,0.0,0.0,0.0,0.0,0.0,0.0,0.0,0.0,0.0,0.0,0.0,0.0,0.0,0.0,0.0,0.0,0.0,0.0,0.0,0.0,0.0,0.0,0.0,0.0,0.0,0.0,0.0,0.0,0.0,0.0,-0.0393,-0.0511,-0.0746,-0.0983,-0.1218,-0.1258,-0.1297,-0.1297,-0.1297,-0.1375,-0.1336,-0.1375,-0.1532,-0.1689,-0.1885,-0.2041,-0.2684,-0.3352,-0.3885,-0.444,-0.5089,-0.5717,-0.6378,-0.7041,-0.7408,-0.7492,-0.7665,-0.7848,-0.7893,-0.7845,-0.816,-0.8524,-0.8568,-0.8616,-0.8616,-0.8616,-0.8616,-0.8616,-0.8596,-0.8584,-0.8563,-0.8535,-0.8584,-0.8543,-0.8418,-0.8337,-0.8247,-0.7979,-0.7715,-0.7669,-0.7657,-0.7616,-0.7563,-0.7535,-0.7526,-0.7518,-0.7518,0.7095,0.7095,0.7095,0.6697,0.5761,0.4765,0.3785,0.2895,0.1614,0.091,0.0688,0.0415,0.0163,0.0,0.0,0.0,0.0,0.0,0.0,0.0,0.0,0.0,0.0,0.0,0.0,0.0,0.0,0.0,0.0,0.0,0.0,0.0,0.0,0.0,0.0,0.0,0.0,0.0,0.0,0.0,0.0,0.0,0.0,0.0,0.0,0.0,0.0,0.0,0.0,0.0,0.0,0.0,0.0,0.0,0.0,0.0,0.0,0.0,-0.0471,-0.0629,-0.0864,-0.11,-0.1297,-0.1297,-0.1297,-0.1297,-0.1297,-0.1297,-0.1297,-0.1297,-0.1454,-0.1455,-0.1574,-0.1712,-0.211,-0.2487,-0.2794,-0.3499,-0.4353,-0.4949,-0.5492,-0.6115,-0.634,-0.6334,-0.6331,-0.6956,-0.7132,-0.6949,-0.7217,-0.776,-0.8208,-0.83,-0.8524,-0.8524,-0.8616,-0.8616,-0.8616,-0.8612,-0.8524,-0.8612,-0.86,-0.8571,-0.8539,-0.8385,-0.8268,-0.817,-0.7988,-0.7866,-0.7748,-0.7731,-0.7665,-0.7571,-0.75,-0.7466,-0.7518,0.7095,0.7095,0.7095,0.6962,0.6546,0.4913,0.4102,0.3738,0.1973,0.1047,0.0674,0.0412,0.0201,0.0,0.0,0.0,0.0,0.0,0.0,0.0,0.0,0.0,0.0,0.0,0.0,0.0,0.0,0.0,0.0,0.0,0.0,0.0,0.0,0.0,0.0,0.0,0.0,0.0,0.0,0.0,0.0,0.0,0.0,0.0,0.0,0.0,0.0,0.0,0.0,0.0,0.0,0.0,0.0,0.0,0.0,0.0,-0.0118,-0.0354,-0.055,-0.0746,-0.0982,-0.1179,-0.1297,-0.1297,-0.1297,-0.1297,-0.1297,-0.1297,-0.1297,-0.1297,-0.1298,-0.1299,-0.1346,-0.1411,-0.1522,-0.1681,-0.1803,-0.2665,-0.3554,-0.4144,-0.4643,-0.4912,-0.5137,-0.5181,-0.5179,-0.5312,-0.5489,-0.5531,-0.5664,-0.611,-0.718,-0.754,-0.8296,-0.8432,-0.8432,-0.8212,-0.8032,-0.8208,-0.8208,-0.8344,-0.848,-0.8281,-0.8023,-0.8252,-0.8264,-0.7966,-0.7777,-0.7979,-0.7874,-0.7652,-0.7605,-0.7407,-0.7317,-0.7258,-0.7405,0.7058,0.7004,0.7004,0.7001,0.6689,0.5046,0.4214,0.379,0.2126,0.1158,0.0827,0.0527,0.0278,0.0,0.0,0.0,0.0,0.0,0.0,0.0,0.0,0.0,0.0,0.0,0.0,0.0,0.0,0.0,0.0,0.0,0.0,0.0,0.0,0.0,0.0,0.0,0.0,0.0,0.0,0.0,0.0,0.0,0.0,0.0,0.0,0.0,0.0,0.0,0.0,0.0,0.0,0.0,0.0,0.0,0.0,0.0,-0.0196,-0.0393,-0.0589,-0.0825,-0.1022,-0.1218,-0.1297,-0.1297,-0.1297,-0.1297,-0.1297,-0.1297,-0.1297,-0.1297,-0.1297,-0.1298,-0.1314,-0.1376,-0.1409,-0.1485,-0.1563,-0.195,-0.2769,-0.3441,-0.3846,-0.4067,-0.4202,-0.4069,-0.4158,-0.4512,-0.4554,-0.4512,-0.4554,-0.4465,-0.5578,-0.6334,-0.6823,-0.7404,-0.736,-0.7183,-0.7092,-0.736,-0.7716,-0.7584,-0.7452,-0.7496,-0.7548,-0.7603,-0.7562,-0.73,-0.7272,-0.7506,-0.7328,-0.6954,-0.7062,-0.7244,-0.7114,-0.6929,-0.6871,0.6984,0.6866,0.6879,0.6889,0.6681,0.5185,0.4294,0.3787,0.2211,0.1278,0.0972,0.0675,0.0393,0.0,0.0,0.0,0.0,0.0,0.0,0.0,0.0,0.0,0.0,0.0,0.0,0.0,0.0,0.0,0.0,0.0,0.0,0.0,0.0,0.0,0.0,0.0,0.0,0.0,0.0,0.0,0.0,0.0,0.0,0.0,0.0,0.0,0.0,0.0,0.0,0.0,0.0,0.0,0.0,0.0,0.0,-0.0157,-0.0275,-0.0471,-0.0668,-0.0904,-0.11,-0.1258,-0.1297,-0.1297,-0.1297,-0.1297,-0.1297,-0.1297,-0.1297,-0.1298,-0.1298,-0.1307,-0.1325,-0.131,-0.1302,-0.1331,-0.1407,-0.1433,-0.2061,-0.2732,-0.2955,-0.3176,-0.3129,-0.2996,-0.3175,-0.3575,-0.3708,-0.3757,-0.3667,-0.3534,-0.3888,-0.4289,-0.4554,-0.5134,-0.598,-0.6157,-0.6068,-0.629,-0.6558,-0.6425,-0.6473,-0.6782,-0.6915,-0.6688,-0.6618,-0.664,-0.6711,-0.695,-0.6655,-0.6337,-0.6554,-0.6778,-0.6497,-0.6298,-0.6157,0.6881,0.6756,0.6832,0.6886,0.6701,0.5681,0.4853,0.4047,0.2828,0.1784,0.107,0.0711,0.0471,0.0236,0.0,0.0,0.0,0.0,0.0,0.0,0.0,0.0,0.0,0.0,0.0,0.0,0.0,0.0,0.0,0.0,0.0,0.0,0.0,0.0,0.0,0.0,0.0,0.0,0.0,0.0,0.0,0.0,0.0,0.0,0.0,0.0,0.0,0.0,0.0,0.0,0.0,0.0,-0.0118,-0.0118,-0.0196,-0.0354,-0.0471,-0.0629,-0.0825,-0.1022,-0.1218,-0.1258,-0.1297,-0.1297,-0.1297,-0.1297,-0.1297,-0.1297,-0.1298,-0.13,-0.1304,-0.1324,-0.1303,-0.1342,-0.1335,-0.1358,-0.1429,-0.1435,-0.1659,-0.1883,-0.1928,-0.2057,-0.2051,-0.1963,-0.2008,-0.2274,-0.2318,-0.232,-0.2418,-0.2374,-0.2419,-0.2552,-0.2731,-0.3666,-0.4821,-0.5001,-0.5045,-0.5267,-0.5445,-0.5401,-0.5669,-0.634,-0.6384,-0.5852,-0.603,-0.6192,-0.631,-0.6251,-0.6206,-0.6013,-0.6187,-0.6248,-0.593,-0.5703,-0.5588]}]]